<?xml version="1.0" encoding="UTF-8" standalone="no" ?>
<gpx xmlns="http://www.topografix.com/GPX/1/1" xmlns:xsi="http://www.w3.org/2001/XMLSchema-instance" xsi:schemaLocation="http://www.topografix.com/GPX/1/1 http://www.topografix.com/GPX/1/1/gpx.xsd" version="1.1" creator="VisuGPX - https://www.visugpx.com">
  <metadata>
    <name>VTT du lundi 24 aout 2020 (le Sabot à 3) tronquée</name>
    <desc><![CDATA[En partant de Coulevon (à 3 avec Jacky), j'ai oublié de déclencher l'enregistrement du parcours, je n'y ai pensé qu'à Colombier, donc on peut ajouter 4,2 km. A Moncey on a fait une petite boucle de 4 km avant d'aller classiquement en direction de la grotte des Equevillons, puis vers le Pylône qu'on a contourné (chemin sympa) puis on est rentré au bercail par une descente sérieuse (que je ne connaissais pas).
Temps correct, terrain sec évidemment, tout comme nos gosiers (mais on y a remédié à l'arrivée).]]></desc>
  </metadata>
  <wpt lat="47.663" lon="6.21786">
    <ele>233</ele>
    <name><![CDATA[0000055]]></name>
    <type><![CDATA[Point de départ]]></type>
  </wpt>
  <wpt lat="47.663" lon="6.21786">
    <ele>233</ele>
    <name><![CDATA[0000055]]></name>
    <type><![CDATA[Point de départ]]></type>
  </wpt>
  <wpt lat="47.64432" lon="6.18329">
    <ele>230</ele>
    <name><![CDATA[0000057]]></name>
    <type><![CDATA[Point d'arrivée]]></type>
  </wpt>
  <trk>
    <name><![CDATA[2020-08-24 10:05]]></name>
    <desc><![CDATA[<p>Heure de départ: 08/24/2020 10:05<br/>Heure d'arrivée: 08/24/2020 13:02<br/>Distance: 14,1 km (02:57)<br/>Temps déplacement: 01:38<br/>Vitesse moyenne: 4,76 km/h<br/>Vitesse moyenne mouv.: 8,53 km/h<br/>Vitesse Max.: 37,26 km/h<br/>Altitude minimale: 225 m<br/>Altitude maximale: 378 m<br/>Vitesse de montée: 108,4 m/h<br/>Vitesse de descente: -394 m/h<br/>Gain d'altitude: 241 m<br/>Perte d'altitude: -262 m<br/>Temps de montée: 02:13<br/>Temps de descente: 00:39<br/></p><hr align="center" width="480" style="height: 2px; width: 517px"/>]]></desc>
    <trkseg>
      <trkpt lat="47.663" lon="6.21786">
        <ele>233</ele>
        <time>2020-08-24T08:05:25Z</time>
      </trkpt>
      <trkpt lat="47.66298" lon="6.21795">
        <ele>234</ele>
        <time>2020-08-24T08:05:27Z</time>
      </trkpt>
      <trkpt lat="47.66296" lon="6.21802">
        <ele>234</ele>
        <time>2020-08-24T08:05:32Z</time>
      </trkpt>
      <trkpt lat="47.66291" lon="6.21811">
        <ele>234</ele>
        <time>2020-08-24T08:05:35Z</time>
      </trkpt>
      <trkpt lat="47.66288" lon="6.21817">
        <ele>234</ele>
        <time>2020-08-24T08:05:37Z</time>
      </trkpt>
      <trkpt lat="47.66284" lon="6.21821">
        <ele>235</ele>
        <time>2020-08-24T08:05:39Z</time>
      </trkpt>
      <trkpt lat="47.6628" lon="6.21826">
        <ele>235</ele>
        <time>2020-08-24T08:05:41Z</time>
      </trkpt>
      <trkpt lat="47.66276" lon="6.21832">
        <ele>236</ele>
        <time>2020-08-24T08:05:44Z</time>
      </trkpt>
      <trkpt lat="47.66273" lon="6.21837">
        <ele>237</ele>
        <time>2020-08-24T08:05:46Z</time>
      </trkpt>
      <trkpt lat="47.6627" lon="6.21847">
        <ele>237</ele>
        <time>2020-08-24T08:05:48Z</time>
      </trkpt>
      <trkpt lat="47.66268" lon="6.21855">
        <ele>237</ele>
        <time>2020-08-24T08:05:52Z</time>
      </trkpt>
      <trkpt lat="47.66268" lon="6.21862">
        <ele>237</ele>
        <time>2020-08-24T08:05:55Z</time>
      </trkpt>
      <trkpt lat="47.66268" lon="6.21872">
        <ele>237</ele>
        <time>2020-08-24T08:05:58Z</time>
      </trkpt>
      <trkpt lat="47.66268" lon="6.21879">
        <ele>237</ele>
        <time>2020-08-24T08:06:02Z</time>
      </trkpt>
      <trkpt lat="47.66266" lon="6.21887">
        <ele>237</ele>
        <time>2020-08-24T08:06:06Z</time>
      </trkpt>
      <trkpt lat="47.66262" lon="6.21894">
        <ele>238</ele>
        <time>2020-08-24T08:06:10Z</time>
      </trkpt>
      <trkpt lat="47.66258" lon="6.21898">
        <ele>238</ele>
        <time>2020-08-24T08:06:14Z</time>
      </trkpt>
      <trkpt lat="47.66255" lon="6.21903">
        <ele>239</ele>
        <time>2020-08-24T08:06:17Z</time>
      </trkpt>
      <trkpt lat="47.66251" lon="6.21908">
        <ele>240</ele>
        <time>2020-08-24T08:06:19Z</time>
      </trkpt>
      <trkpt lat="47.66246" lon="6.21912">
        <ele>243</ele>
        <time>2020-08-24T08:06:22Z</time>
      </trkpt>
      <trkpt lat="47.66242" lon="6.21916">
        <ele>243</ele>
        <time>2020-08-24T08:06:24Z</time>
      </trkpt>
      <trkpt lat="47.66237" lon="6.2192">
        <ele>242</ele>
        <time>2020-08-24T08:06:26Z</time>
      </trkpt>
      <trkpt lat="47.66233" lon="6.21924">
        <ele>242</ele>
        <time>2020-08-24T08:06:28Z</time>
      </trkpt>
      <trkpt lat="47.66228" lon="6.21929">
        <ele>243</ele>
        <time>2020-08-24T08:06:31Z</time>
      </trkpt>
      <trkpt lat="47.66224" lon="6.21934">
        <ele>243</ele>
        <time>2020-08-24T08:06:34Z</time>
      </trkpt>
      <trkpt lat="47.6622" lon="6.21939">
        <ele>243</ele>
        <time>2020-08-24T08:06:37Z</time>
      </trkpt>
      <trkpt lat="47.66217" lon="6.21945">
        <ele>243</ele>
        <time>2020-08-24T08:06:42Z</time>
      </trkpt>
      <trkpt lat="47.66212" lon="6.21947">
        <ele>243</ele>
        <time>2020-08-24T08:06:47Z</time>
      </trkpt>
      <trkpt lat="47.66208" lon="6.2195">
        <ele>243</ele>
        <time>2020-08-24T08:06:51Z</time>
      </trkpt>
      <trkpt lat="47.66204" lon="6.21955">
        <ele>243</ele>
        <time>2020-08-24T08:06:55Z</time>
      </trkpt>
      <trkpt lat="47.66199" lon="6.21957">
        <ele>243</ele>
        <time>2020-08-24T08:07:00Z</time>
      </trkpt>
      <trkpt lat="47.66194" lon="6.21958">
        <ele>243</ele>
        <time>2020-08-24T08:07:05Z</time>
      </trkpt>
      <trkpt lat="47.6619" lon="6.21962">
        <ele>243</ele>
        <time>2020-08-24T08:07:09Z</time>
      </trkpt>
      <trkpt lat="47.66185" lon="6.21961">
        <ele>243</ele>
        <time>2020-08-24T08:07:14Z</time>
      </trkpt>
      <trkpt lat="47.6618" lon="6.21961">
        <ele>243</ele>
        <time>2020-08-24T08:07:18Z</time>
      </trkpt>
      <trkpt lat="47.66175" lon="6.21963">
        <ele>243</ele>
        <time>2020-08-24T08:07:23Z</time>
      </trkpt>
      <trkpt lat="47.6617" lon="6.21961">
        <ele>244</ele>
        <time>2020-08-24T08:07:27Z</time>
      </trkpt>
      <trkpt lat="47.66165" lon="6.21958">
        <ele>247</ele>
        <time>2020-08-24T08:07:32Z</time>
      </trkpt>
      <trkpt lat="47.66162" lon="6.21951">
        <ele>247</ele>
        <time>2020-08-24T08:07:36Z</time>
      </trkpt>
      <trkpt lat="47.66159" lon="6.21945">
        <ele>248</ele>
        <time>2020-08-24T08:07:40Z</time>
      </trkpt>
      <trkpt lat="47.66155" lon="6.21939">
        <ele>248</ele>
        <time>2020-08-24T08:07:45Z</time>
      </trkpt>
      <trkpt lat="47.66153" lon="6.21933">
        <ele>248</ele>
        <time>2020-08-24T08:07:50Z</time>
      </trkpt>
      <trkpt lat="47.66147" lon="6.21931">
        <ele>248</ele>
        <time>2020-08-24T08:07:55Z</time>
      </trkpt>
      <trkpt lat="47.66142" lon="6.21927">
        <ele>248</ele>
        <time>2020-08-24T08:07:59Z</time>
      </trkpt>
      <trkpt lat="47.66141" lon="6.21919">
        <ele>248</ele>
        <time>2020-08-24T08:08:05Z</time>
      </trkpt>
      <trkpt lat="47.66138" lon="6.21912">
        <ele>253</ele>
        <time>2020-08-24T08:08:09Z</time>
      </trkpt>
      <trkpt lat="47.66133" lon="6.21909">
        <ele>253</ele>
        <time>2020-08-24T08:08:14Z</time>
      </trkpt>
      <trkpt lat="47.66129" lon="6.21906">
        <ele>253</ele>
        <time>2020-08-24T08:08:18Z</time>
      </trkpt>
      <trkpt lat="47.66124" lon="6.21903">
        <ele>253</ele>
        <time>2020-08-24T08:08:22Z</time>
      </trkpt>
      <trkpt lat="47.66123" lon="6.21896">
        <ele>254</ele>
        <time>2020-08-24T08:08:27Z</time>
      </trkpt>
      <trkpt lat="47.66119" lon="6.21891">
        <ele>254</ele>
        <time>2020-08-24T08:08:33Z</time>
      </trkpt>
      <trkpt lat="47.66115" lon="6.21889">
        <ele>254</ele>
        <time>2020-08-24T08:08:37Z</time>
      </trkpt>
      <trkpt lat="47.66113" lon="6.21882">
        <ele>254</ele>
        <time>2020-08-24T08:08:46Z</time>
      </trkpt>
      <trkpt lat="47.66111" lon="6.21875">
        <ele>255</ele>
        <time>2020-08-24T08:08:47Z</time>
      </trkpt>
      <trkpt lat="47.66106" lon="6.21872">
        <ele>255</ele>
        <time>2020-08-24T08:08:51Z</time>
      </trkpt>
      <trkpt lat="47.66102" lon="6.21867">
        <ele>255</ele>
        <time>2020-08-24T08:08:55Z</time>
      </trkpt>
      <trkpt lat="47.66101" lon="6.2186">
        <ele>256</ele>
        <time>2020-08-24T08:08:59Z</time>
      </trkpt>
      <trkpt lat="47.66096" lon="6.21855">
        <ele>256</ele>
        <time>2020-08-24T08:09:05Z</time>
      </trkpt>
      <trkpt lat="47.66092" lon="6.21853">
        <ele>257</ele>
        <time>2020-08-24T08:09:09Z</time>
      </trkpt>
      <trkpt lat="47.66088" lon="6.21849">
        <ele>257</ele>
        <time>2020-08-24T08:09:13Z</time>
      </trkpt>
      <trkpt lat="47.66085" lon="6.21842">
        <ele>258</ele>
        <time>2020-08-24T08:09:18Z</time>
      </trkpt>
      <trkpt lat="47.66083" lon="6.21836">
        <ele>260</ele>
        <time>2020-08-24T08:09:23Z</time>
      </trkpt>
      <trkpt lat="47.66078" lon="6.21834">
        <ele>260</ele>
        <time>2020-08-24T08:09:27Z</time>
      </trkpt>
      <trkpt lat="47.66075" lon="6.21829">
        <ele>262</ele>
        <time>2020-08-24T08:09:31Z</time>
      </trkpt>
      <trkpt lat="47.66072" lon="6.21823">
        <ele>263</ele>
        <time>2020-08-24T08:09:36Z</time>
      </trkpt>
      <trkpt lat="47.66069" lon="6.21818">
        <ele>264</ele>
        <time>2020-08-24T08:09:40Z</time>
      </trkpt>
      <trkpt lat="47.66065" lon="6.21813">
        <ele>264</ele>
        <time>2020-08-24T08:09:46Z</time>
      </trkpt>
      <trkpt lat="47.6606" lon="6.2181">
        <ele>265</ele>
        <time>2020-08-24T08:09:51Z</time>
      </trkpt>
      <trkpt lat="47.66057" lon="6.21805">
        <ele>265</ele>
        <time>2020-08-24T08:09:56Z</time>
      </trkpt>
      <trkpt lat="47.66056" lon="6.21797">
        <ele>266</ele>
        <time>2020-08-24T08:10:00Z</time>
      </trkpt>
      <trkpt lat="47.66052" lon="6.21793">
        <ele>266</ele>
        <time>2020-08-24T08:10:05Z</time>
      </trkpt>
      <trkpt lat="47.66047" lon="6.2179">
        <ele>266</ele>
        <time>2020-08-24T08:10:09Z</time>
      </trkpt>
      <trkpt lat="47.66042" lon="6.21786">
        <ele>267</ele>
        <time>2020-08-24T08:10:12Z</time>
      </trkpt>
      <trkpt lat="47.6604" lon="6.2178">
        <ele>267</ele>
        <time>2020-08-24T08:10:16Z</time>
      </trkpt>
      <trkpt lat="47.66039" lon="6.21773">
        <ele>267</ele>
        <time>2020-08-24T08:10:20Z</time>
      </trkpt>
      <trkpt lat="47.66035" lon="6.21771">
        <ele>268</ele>
        <time>2020-08-24T08:10:24Z</time>
      </trkpt>
      <trkpt lat="47.6603" lon="6.21766">
        <ele>268</ele>
        <time>2020-08-24T08:10:28Z</time>
      </trkpt>
      <trkpt lat="47.66028" lon="6.2176">
        <ele>268</ele>
        <time>2020-08-24T08:10:32Z</time>
      </trkpt>
      <trkpt lat="47.66024" lon="6.21755">
        <ele>269</ele>
        <time>2020-08-24T08:10:37Z</time>
      </trkpt>
      <trkpt lat="47.66019" lon="6.21753">
        <ele>269</ele>
        <time>2020-08-24T08:10:40Z</time>
      </trkpt>
      <trkpt lat="47.66014" lon="6.2175">
        <ele>270</ele>
        <time>2020-08-24T08:10:44Z</time>
      </trkpt>
      <trkpt lat="47.66009" lon="6.21748">
        <ele>272</ele>
        <time>2020-08-24T08:10:48Z</time>
      </trkpt>
      <trkpt lat="47.66005" lon="6.21746">
        <ele>272</ele>
        <time>2020-08-24T08:10:50Z</time>
      </trkpt>
      <trkpt lat="47.65999" lon="6.21743">
        <ele>272</ele>
        <time>2020-08-24T08:10:54Z</time>
      </trkpt>
      <trkpt lat="47.65994" lon="6.21743">
        <ele>273</ele>
        <time>2020-08-24T08:10:58Z</time>
      </trkpt>
      <trkpt lat="47.65989" lon="6.21743">
        <ele>273</ele>
        <time>2020-08-24T08:11:01Z</time>
      </trkpt>
      <trkpt lat="47.65984" lon="6.21743">
        <ele>273</ele>
        <time>2020-08-24T08:11:05Z</time>
      </trkpt>
      <trkpt lat="47.65979" lon="6.21743">
        <ele>273</ele>
        <time>2020-08-24T08:11:08Z</time>
      </trkpt>
      <trkpt lat="47.65974" lon="6.21744">
        <ele>273</ele>
        <time>2020-08-24T08:11:10Z</time>
      </trkpt>
      <trkpt lat="47.65967" lon="6.21744">
        <ele>274</ele>
        <time>2020-08-24T08:11:14Z</time>
      </trkpt>
      <trkpt lat="47.65961" lon="6.21745">
        <ele>274</ele>
        <time>2020-08-24T08:11:17Z</time>
      </trkpt>
      <trkpt lat="47.65954" lon="6.21747">
        <ele>274</ele>
        <time>2020-08-24T08:11:20Z</time>
      </trkpt>
      <trkpt lat="47.65949" lon="6.21752">
        <ele>274</ele>
        <time>2020-08-24T08:11:24Z</time>
      </trkpt>
      <trkpt lat="47.65946" lon="6.21758">
        <ele>274</ele>
        <time>2020-08-24T08:11:27Z</time>
      </trkpt>
      <trkpt lat="47.65942" lon="6.21765">
        <ele>274</ele>
        <time>2020-08-24T08:11:30Z</time>
      </trkpt>
      <trkpt lat="47.65937" lon="6.21771">
        <ele>274</ele>
        <time>2020-08-24T08:11:37Z</time>
      </trkpt>
      <trkpt lat="47.65932" lon="6.21772">
        <ele>274</ele>
        <time>2020-08-24T08:11:40Z</time>
      </trkpt>
      <trkpt lat="47.65927" lon="6.21774">
        <ele>274</ele>
        <time>2020-08-24T08:11:46Z</time>
      </trkpt>
      <trkpt lat="47.6592" lon="6.21778">
        <ele>274</ele>
        <time>2020-08-24T08:11:51Z</time>
      </trkpt>
      <trkpt lat="47.65917" lon="6.21783">
        <ele>274</ele>
        <time>2020-08-24T08:11:57Z</time>
      </trkpt>
      <trkpt lat="47.65914" lon="6.21788">
        <ele>280</ele>
        <time>2020-08-24T08:12:00Z</time>
      </trkpt>
      <trkpt lat="47.6591" lon="6.21792">
        <ele>280</ele>
        <time>2020-08-24T08:12:05Z</time>
      </trkpt>
      <trkpt lat="47.65906" lon="6.21795">
        <ele>280</ele>
        <time>2020-08-24T08:12:09Z</time>
      </trkpt>
      <trkpt lat="47.65902" lon="6.218">
        <ele>280</ele>
        <time>2020-08-24T08:12:14Z</time>
      </trkpt>
      <trkpt lat="47.65898" lon="6.21804">
        <ele>281</ele>
        <time>2020-08-24T08:12:19Z</time>
      </trkpt>
      <trkpt lat="47.65893" lon="6.21808">
        <ele>281</ele>
        <time>2020-08-24T08:12:25Z</time>
      </trkpt>
      <trkpt lat="47.65891" lon="6.21815">
        <ele>281</ele>
        <time>2020-08-24T08:13:01Z</time>
      </trkpt>
      <trkpt lat="47.65889" lon="6.21823">
        <ele>281</ele>
        <time>2020-08-24T08:13:04Z</time>
      </trkpt>
      <trkpt lat="47.65887" lon="6.2183">
        <ele>281</ele>
        <time>2020-08-24T08:13:07Z</time>
      </trkpt>
      <trkpt lat="47.65886" lon="6.21837">
        <ele>283</ele>
        <time>2020-08-24T08:13:10Z</time>
      </trkpt>
      <trkpt lat="47.65885" lon="6.21845">
        <ele>283</ele>
        <time>2020-08-24T08:13:13Z</time>
      </trkpt>
      <trkpt lat="47.65884" lon="6.21853">
        <ele>284</ele>
        <time>2020-08-24T08:13:17Z</time>
      </trkpt>
      <trkpt lat="47.65883" lon="6.2186">
        <ele>284</ele>
        <time>2020-08-24T08:13:20Z</time>
      </trkpt>
      <trkpt lat="47.65881" lon="6.21868">
        <ele>284</ele>
        <time>2020-08-24T08:13:23Z</time>
      </trkpt>
      <trkpt lat="47.65879" lon="6.21877">
        <ele>285</ele>
        <time>2020-08-24T08:13:26Z</time>
      </trkpt>
      <trkpt lat="47.65878" lon="6.21884">
        <ele>285</ele>
        <time>2020-08-24T08:13:28Z</time>
      </trkpt>
      <trkpt lat="47.65877" lon="6.21891">
        <ele>285</ele>
        <time>2020-08-24T08:13:30Z</time>
      </trkpt>
      <trkpt lat="47.65875" lon="6.21899">
        <ele>285</ele>
        <time>2020-08-24T08:13:32Z</time>
      </trkpt>
      <trkpt lat="47.65876" lon="6.21907">
        <ele>285</ele>
        <time>2020-08-24T08:13:35Z</time>
      </trkpt>
      <trkpt lat="47.65875" lon="6.21915">
        <ele>286</ele>
        <time>2020-08-24T08:13:38Z</time>
      </trkpt>
      <trkpt lat="47.65873" lon="6.21923">
        <ele>286</ele>
        <time>2020-08-24T08:13:41Z</time>
      </trkpt>
      <trkpt lat="47.65872" lon="6.2193">
        <ele>287</ele>
        <time>2020-08-24T08:13:43Z</time>
      </trkpt>
      <trkpt lat="47.65872" lon="6.21937">
        <ele>287</ele>
        <time>2020-08-24T08:13:45Z</time>
      </trkpt>
      <trkpt lat="47.6587" lon="6.21944">
        <ele>287</ele>
        <time>2020-08-24T08:13:47Z</time>
      </trkpt>
      <trkpt lat="47.65869" lon="6.21952">
        <ele>287</ele>
        <time>2020-08-24T08:13:49Z</time>
      </trkpt>
      <trkpt lat="47.65867" lon="6.21961">
        <ele>287</ele>
        <time>2020-08-24T08:13:51Z</time>
      </trkpt>
      <trkpt lat="47.65865" lon="6.21972">
        <ele>287</ele>
        <time>2020-08-24T08:13:53Z</time>
      </trkpt>
      <trkpt lat="47.65863" lon="6.21981">
        <ele>288</ele>
        <time>2020-08-24T08:13:56Z</time>
      </trkpt>
      <trkpt lat="47.65861" lon="6.21988">
        <ele>289</ele>
        <time>2020-08-24T08:13:58Z</time>
      </trkpt>
      <trkpt lat="47.6586" lon="6.21996">
        <ele>289</ele>
        <time>2020-08-24T08:14:00Z</time>
      </trkpt>
      <trkpt lat="47.65858" lon="6.22006">
        <ele>288</ele>
        <time>2020-08-24T08:14:02Z</time>
      </trkpt>
      <trkpt lat="47.65856" lon="6.22013">
        <ele>288</ele>
        <time>2020-08-24T08:14:04Z</time>
      </trkpt>
      <trkpt lat="47.65855" lon="6.22022">
        <ele>288</ele>
        <time>2020-08-24T08:14:07Z</time>
      </trkpt>
      <trkpt lat="47.65854" lon="6.22033">
        <ele>287</ele>
        <time>2020-08-24T08:14:09Z</time>
      </trkpt>
      <trkpt lat="47.65852" lon="6.22043">
        <ele>287</ele>
        <time>2020-08-24T08:14:11Z</time>
      </trkpt>
      <trkpt lat="47.65851" lon="6.22052">
        <ele>287</ele>
        <time>2020-08-24T08:14:13Z</time>
      </trkpt>
      <trkpt lat="47.6585" lon="6.2206">
        <ele>288</ele>
        <time>2020-08-24T08:14:17Z</time>
      </trkpt>
      <trkpt lat="47.65851" lon="6.22067">
        <ele>288</ele>
        <time>2020-08-24T08:14:20Z</time>
      </trkpt>
      <trkpt lat="47.65849" lon="6.22078">
        <ele>290</ele>
        <time>2020-08-24T08:14:23Z</time>
      </trkpt>
      <trkpt lat="47.65846" lon="6.22084">
        <ele>290</ele>
        <time>2020-08-24T08:14:25Z</time>
      </trkpt>
      <trkpt lat="47.65844" lon="6.2209">
        <ele>290</ele>
        <time>2020-08-24T08:14:27Z</time>
      </trkpt>
      <trkpt lat="47.65843" lon="6.22099">
        <ele>288</ele>
        <time>2020-08-24T08:14:30Z</time>
      </trkpt>
      <trkpt lat="47.65842" lon="6.22107">
        <ele>287</ele>
        <time>2020-08-24T08:14:33Z</time>
      </trkpt>
      <trkpt lat="47.6584" lon="6.22116">
        <ele>286</ele>
        <time>2020-08-24T08:14:38Z</time>
      </trkpt>
      <trkpt lat="47.65838" lon="6.22124">
        <ele>285</ele>
        <time>2020-08-24T08:14:42Z</time>
      </trkpt>
      <trkpt lat="47.65835" lon="6.22131">
        <ele>285</ele>
        <time>2020-08-24T08:14:45Z</time>
      </trkpt>
      <trkpt lat="47.65832" lon="6.22137">
        <ele>301</ele>
        <time>2020-08-24T08:14:47Z</time>
      </trkpt>
      <trkpt lat="47.6583" lon="6.22144">
        <ele>300</ele>
        <time>2020-08-24T08:14:49Z</time>
      </trkpt>
      <trkpt lat="47.65828" lon="6.2215">
        <ele>298</ele>
        <time>2020-08-24T08:14:51Z</time>
      </trkpt>
      <trkpt lat="47.65826" lon="6.22159">
        <ele>297</ele>
        <time>2020-08-24T08:14:53Z</time>
      </trkpt>
      <trkpt lat="47.65824" lon="6.22166">
        <ele>296</ele>
        <time>2020-08-24T08:14:56Z</time>
      </trkpt>
      <trkpt lat="47.65823" lon="6.22172">
        <ele>297</ele>
        <time>2020-08-24T08:14:58Z</time>
      </trkpt>
      <trkpt lat="47.65821" lon="6.22179">
        <ele>299</ele>
        <time>2020-08-24T08:15:01Z</time>
      </trkpt>
      <trkpt lat="47.6582" lon="6.22189">
        <ele>301</ele>
        <time>2020-08-24T08:15:04Z</time>
      </trkpt>
      <trkpt lat="47.65819" lon="6.22197">
        <ele>302</ele>
        <time>2020-08-24T08:15:07Z</time>
      </trkpt>
      <trkpt lat="47.65819" lon="6.22205">
        <ele>302</ele>
        <time>2020-08-24T08:15:09Z</time>
      </trkpt>
      <trkpt lat="47.65818" lon="6.22213">
        <ele>302</ele>
        <time>2020-08-24T08:15:11Z</time>
      </trkpt>
      <trkpt lat="47.65815" lon="6.22221">
        <ele>302</ele>
        <time>2020-08-24T08:15:13Z</time>
      </trkpt>
      <trkpt lat="47.65814" lon="6.22228">
        <ele>302</ele>
        <time>2020-08-24T08:15:14Z</time>
      </trkpt>
      <trkpt lat="47.65814" lon="6.22235">
        <ele>301</ele>
        <time>2020-08-24T08:15:22Z</time>
      </trkpt>
      <trkpt lat="47.65813" lon="6.22261">
        <ele>302</ele>
        <time>2020-08-24T08:15:23Z</time>
      </trkpt>
      <trkpt lat="47.65813" lon="6.2227">
        <ele>303</ele>
        <time>2020-08-24T08:15:25Z</time>
      </trkpt>
      <trkpt lat="47.65813" lon="6.22283">
        <ele>305</ele>
        <time>2020-08-24T08:15:28Z</time>
      </trkpt>
      <trkpt lat="47.65812" lon="6.22291">
        <ele>305</ele>
        <time>2020-08-24T08:15:30Z</time>
      </trkpt>
      <trkpt lat="47.65811" lon="6.22301">
        <ele>305</ele>
        <time>2020-08-24T08:15:32Z</time>
      </trkpt>
      <trkpt lat="47.6581" lon="6.22312">
        <ele>305</ele>
        <time>2020-08-24T08:15:34Z</time>
      </trkpt>
      <trkpt lat="47.65809" lon="6.2232">
        <ele>304</ele>
        <time>2020-08-24T08:15:36Z</time>
      </trkpt>
      <trkpt lat="47.65809" lon="6.22328">
        <ele>304</ele>
        <time>2020-08-24T08:15:38Z</time>
      </trkpt>
      <trkpt lat="47.6581" lon="6.22338">
        <ele>304</ele>
        <time>2020-08-24T08:15:40Z</time>
      </trkpt>
      <trkpt lat="47.65811" lon="6.22349">
        <ele>304</ele>
        <time>2020-08-24T08:15:42Z</time>
      </trkpt>
      <trkpt lat="47.65812" lon="6.22365">
        <ele>306</ele>
        <time>2020-08-24T08:15:44Z</time>
      </trkpt>
      <trkpt lat="47.65811" lon="6.22374">
        <ele>306</ele>
        <time>2020-08-24T08:15:46Z</time>
      </trkpt>
      <trkpt lat="47.65809" lon="6.22383">
        <ele>306</ele>
        <time>2020-08-24T08:15:48Z</time>
      </trkpt>
      <trkpt lat="47.65808" lon="6.2239">
        <ele>306</ele>
        <time>2020-08-24T08:15:50Z</time>
      </trkpt>
      <trkpt lat="47.65806" lon="6.22399">
        <ele>306</ele>
        <time>2020-08-24T08:15:52Z</time>
      </trkpt>
      <trkpt lat="47.65805" lon="6.22407">
        <ele>306</ele>
        <time>2020-08-24T08:15:54Z</time>
      </trkpt>
      <trkpt lat="47.65803" lon="6.22415">
        <ele>306</ele>
        <time>2020-08-24T08:15:56Z</time>
      </trkpt>
      <trkpt lat="47.65801" lon="6.22424">
        <ele>307</ele>
        <time>2020-08-24T08:15:59Z</time>
      </trkpt>
      <trkpt lat="47.65802" lon="6.22431">
        <ele>307</ele>
        <time>2020-08-24T08:16:02Z</time>
      </trkpt>
      <trkpt lat="47.658" lon="6.22438">
        <ele>308</ele>
        <time>2020-08-24T08:16:06Z</time>
      </trkpt>
      <trkpt lat="47.658" lon="6.22446">
        <ele>308</ele>
        <time>2020-08-24T08:16:10Z</time>
      </trkpt>
      <trkpt lat="47.65801" lon="6.22454">
        <ele>308</ele>
        <time>2020-08-24T08:16:13Z</time>
      </trkpt>
      <trkpt lat="47.65801" lon="6.22462">
        <ele>308</ele>
        <time>2020-08-24T08:16:15Z</time>
      </trkpt>
      <trkpt lat="47.658" lon="6.22472">
        <ele>308</ele>
        <time>2020-08-24T08:16:18Z</time>
      </trkpt>
      <trkpt lat="47.658" lon="6.22479">
        <ele>307</ele>
        <time>2020-08-24T08:16:21Z</time>
      </trkpt>
      <trkpt lat="47.658" lon="6.22486">
        <ele>307</ele>
        <time>2020-08-24T08:16:24Z</time>
      </trkpt>
      <trkpt lat="47.65798" lon="6.22493">
        <ele>307</ele>
        <time>2020-08-24T08:16:27Z</time>
      </trkpt>
      <trkpt lat="47.65798" lon="6.225">
        <ele>307</ele>
        <time>2020-08-24T08:16:30Z</time>
      </trkpt>
      <trkpt lat="47.65798" lon="6.22509">
        <ele>305</ele>
        <time>2020-08-24T08:16:33Z</time>
      </trkpt>
      <trkpt lat="47.65798" lon="6.22516">
        <ele>305</ele>
        <time>2020-08-24T08:16:35Z</time>
      </trkpt>
      <trkpt lat="47.65797" lon="6.22522">
        <ele>305</ele>
        <time>2020-08-24T08:16:43Z</time>
      </trkpt>
      <trkpt lat="47.65794" lon="6.22536">
        <ele>305</ele>
        <time>2020-08-24T08:16:43Z</time>
      </trkpt>
      <trkpt lat="47.65793" lon="6.22543">
        <ele>305</ele>
        <time>2020-08-24T08:16:45Z</time>
      </trkpt>
      <trkpt lat="47.6579" lon="6.2255">
        <ele>306</ele>
        <time>2020-08-24T08:16:49Z</time>
      </trkpt>
      <trkpt lat="47.65787" lon="6.22557">
        <ele>306</ele>
        <time>2020-08-24T08:16:52Z</time>
      </trkpt>
      <trkpt lat="47.65784" lon="6.22567">
        <ele>306</ele>
        <time>2020-08-24T08:16:55Z</time>
      </trkpt>
      <trkpt lat="47.65784" lon="6.22575">
        <ele>307</ele>
        <time>2020-08-24T08:16:59Z</time>
      </trkpt>
      <trkpt lat="47.65782" lon="6.22582">
        <ele>307</ele>
        <time>2020-08-24T08:17:03Z</time>
      </trkpt>
      <trkpt lat="47.6578" lon="6.22588">
        <ele>302</ele>
        <time>2020-08-24T08:17:05Z</time>
      </trkpt>
      <trkpt lat="47.65778" lon="6.22596">
        <ele>302</ele>
        <time>2020-08-24T08:17:09Z</time>
      </trkpt>
      <trkpt lat="47.65776" lon="6.22604">
        <ele>301</ele>
        <time>2020-08-24T08:17:12Z</time>
      </trkpt>
      <trkpt lat="47.65774" lon="6.22612">
        <ele>301</ele>
        <time>2020-08-24T08:17:15Z</time>
      </trkpt>
      <trkpt lat="47.65772" lon="6.22618">
        <ele>300</ele>
        <time>2020-08-24T08:17:18Z</time>
      </trkpt>
      <trkpt lat="47.6577" lon="6.22626">
        <ele>300</ele>
        <time>2020-08-24T08:17:22Z</time>
      </trkpt>
      <trkpt lat="47.65766" lon="6.22633">
        <ele>300</ele>
        <time>2020-08-24T08:17:25Z</time>
      </trkpt>
      <trkpt lat="47.65764" lon="6.2264">
        <ele>299</ele>
        <time>2020-08-24T08:17:28Z</time>
      </trkpt>
      <trkpt lat="47.65761" lon="6.22645">
        <ele>300</ele>
        <time>2020-08-24T08:17:31Z</time>
      </trkpt>
      <trkpt lat="47.65758" lon="6.22651">
        <ele>300</ele>
        <time>2020-08-24T08:17:34Z</time>
      </trkpt>
      <trkpt lat="47.65753" lon="6.22654">
        <ele>301</ele>
        <time>2020-08-24T08:17:37Z</time>
      </trkpt>
      <trkpt lat="47.65749" lon="6.22656">
        <ele>307</ele>
        <time>2020-08-24T08:17:40Z</time>
      </trkpt>
      <trkpt lat="47.65744" lon="6.22659">
        <ele>307</ele>
        <time>2020-08-24T08:17:43Z</time>
      </trkpt>
      <trkpt lat="47.6574" lon="6.22663">
        <ele>307</ele>
        <time>2020-08-24T08:17:46Z</time>
      </trkpt>
      <trkpt lat="47.65734" lon="6.22667">
        <ele>309</ele>
        <time>2020-08-24T08:17:50Z</time>
      </trkpt>
      <trkpt lat="47.65729" lon="6.22667">
        <ele>310</ele>
        <time>2020-08-24T08:17:53Z</time>
      </trkpt>
      <trkpt lat="47.65724" lon="6.22667">
        <ele>311</ele>
        <time>2020-08-24T08:17:56Z</time>
      </trkpt>
      <trkpt lat="47.65718" lon="6.2267">
        <ele>306</ele>
        <time>2020-08-24T08:18:00Z</time>
      </trkpt>
      <trkpt lat="47.65714" lon="6.22672">
        <ele>306</ele>
        <time>2020-08-24T08:18:03Z</time>
      </trkpt>
      <trkpt lat="47.65708" lon="6.22678">
        <ele>307</ele>
        <time>2020-08-24T08:18:06Z</time>
      </trkpt>
      <trkpt lat="47.65703" lon="6.22681">
        <ele>307</ele>
        <time>2020-08-24T08:18:10Z</time>
      </trkpt>
      <trkpt lat="47.65699" lon="6.22683">
        <ele>307</ele>
        <time>2020-08-24T08:18:13Z</time>
      </trkpt>
      <trkpt lat="47.65693" lon="6.22688">
        <ele>308</ele>
        <time>2020-08-24T08:18:16Z</time>
      </trkpt>
      <trkpt lat="47.65689" lon="6.22693">
        <ele>308</ele>
        <time>2020-08-24T08:18:20Z</time>
      </trkpt>
      <trkpt lat="47.65685" lon="6.22699">
        <ele>307</ele>
        <time>2020-08-24T08:18:24Z</time>
      </trkpt>
      <trkpt lat="47.65682" lon="6.22705">
        <ele>307</ele>
        <time>2020-08-24T08:18:28Z</time>
      </trkpt>
      <trkpt lat="47.65678" lon="6.22711">
        <ele>307</ele>
        <time>2020-08-24T08:18:32Z</time>
      </trkpt>
      <trkpt lat="47.65675" lon="6.22719">
        <ele>307</ele>
        <time>2020-08-24T08:18:36Z</time>
      </trkpt>
      <trkpt lat="47.65674" lon="6.22725">
        <ele>307</ele>
        <time>2020-08-24T08:18:41Z</time>
      </trkpt>
      <trkpt lat="47.65672" lon="6.22732">
        <ele>307</ele>
        <time>2020-08-24T08:18:44Z</time>
      </trkpt>
      <trkpt lat="47.65669" lon="6.22739">
        <ele>307</ele>
        <time>2020-08-24T08:18:47Z</time>
      </trkpt>
      <trkpt lat="47.65669" lon="6.22746">
        <ele>308</ele>
        <time>2020-08-24T08:18:51Z</time>
      </trkpt>
      <trkpt lat="47.65669" lon="6.22753">
        <ele>308</ele>
        <time>2020-08-24T08:18:54Z</time>
      </trkpt>
      <trkpt lat="47.65671" lon="6.22762">
        <ele>307</ele>
        <time>2020-08-24T08:18:57Z</time>
      </trkpt>
      <trkpt lat="47.65671" lon="6.22769">
        <ele>307</ele>
        <time>2020-08-24T08:19:01Z</time>
      </trkpt>
      <trkpt lat="47.65672" lon="6.22778">
        <ele>307</ele>
        <time>2020-08-24T08:19:04Z</time>
      </trkpt>
      <trkpt lat="47.65674" lon="6.22786">
        <ele>307</ele>
        <time>2020-08-24T08:19:06Z</time>
      </trkpt>
      <trkpt lat="47.65676" lon="6.22795">
        <ele>308</ele>
        <time>2020-08-24T08:19:08Z</time>
      </trkpt>
      <trkpt lat="47.65678" lon="6.22801">
        <ele>308</ele>
        <time>2020-08-24T08:19:10Z</time>
      </trkpt>
      <trkpt lat="47.65681" lon="6.22808">
        <ele>309</ele>
        <time>2020-08-24T08:19:13Z</time>
      </trkpt>
      <trkpt lat="47.65683" lon="6.22816">
        <ele>309</ele>
        <time>2020-08-24T08:19:16Z</time>
      </trkpt>
      <trkpt lat="47.65685" lon="6.22822">
        <ele>310</ele>
        <time>2020-08-24T08:19:18Z</time>
      </trkpt>
      <trkpt lat="47.65688" lon="6.22829">
        <ele>310</ele>
        <time>2020-08-24T08:19:21Z</time>
      </trkpt>
      <trkpt lat="47.65691" lon="6.22836">
        <ele>313</ele>
        <time>2020-08-24T08:19:24Z</time>
      </trkpt>
      <trkpt lat="47.65694" lon="6.22846">
        <ele>313</ele>
        <time>2020-08-24T08:19:27Z</time>
      </trkpt>
      <trkpt lat="47.65695" lon="6.22853">
        <ele>313</ele>
        <time>2020-08-24T08:19:31Z</time>
      </trkpt>
      <trkpt lat="47.65697" lon="6.2286">
        <ele>313</ele>
        <time>2020-08-24T08:19:34Z</time>
      </trkpt>
      <trkpt lat="47.657" lon="6.22869">
        <ele>313</ele>
        <time>2020-08-24T08:19:37Z</time>
      </trkpt>
      <trkpt lat="47.65702" lon="6.22875">
        <ele>313</ele>
        <time>2020-08-24T08:19:45Z</time>
      </trkpt>
      <trkpt lat="47.65708" lon="6.22901">
        <ele>314</ele>
        <time>2020-08-24T08:19:47Z</time>
      </trkpt>
      <trkpt lat="47.6571" lon="6.22911">
        <ele>314</ele>
        <time>2020-08-24T08:19:50Z</time>
      </trkpt>
      <trkpt lat="47.65711" lon="6.22917">
        <ele>317</ele>
        <time>2020-08-24T08:19:52Z</time>
      </trkpt>
      <trkpt lat="47.65712" lon="6.22924">
        <ele>317</ele>
        <time>2020-08-24T08:19:54Z</time>
      </trkpt>
      <trkpt lat="47.65713" lon="6.22931">
        <ele>317</ele>
        <time>2020-08-24T08:19:56Z</time>
      </trkpt>
      <trkpt lat="47.65713" lon="6.22939">
        <ele>317</ele>
        <time>2020-08-24T08:19:58Z</time>
      </trkpt>
      <trkpt lat="47.65713" lon="6.22948">
        <ele>317</ele>
        <time>2020-08-24T08:20:00Z</time>
      </trkpt>
      <trkpt lat="47.65713" lon="6.22957">
        <ele>317</ele>
        <time>2020-08-24T08:20:02Z</time>
      </trkpt>
      <trkpt lat="47.65713" lon="6.22964">
        <ele>317</ele>
        <time>2020-08-24T08:20:04Z</time>
      </trkpt>
      <trkpt lat="47.65713" lon="6.22972">
        <ele>317</ele>
        <time>2020-08-24T08:20:06Z</time>
      </trkpt>
      <trkpt lat="47.65713" lon="6.22982">
        <ele>317</ele>
        <time>2020-08-24T08:20:08Z</time>
      </trkpt>
      <trkpt lat="47.65713" lon="6.22989">
        <ele>317</ele>
        <time>2020-08-24T08:20:10Z</time>
      </trkpt>
      <trkpt lat="47.65712" lon="6.22996">
        <ele>317</ele>
        <time>2020-08-24T08:20:12Z</time>
      </trkpt>
      <trkpt lat="47.65711" lon="6.23004">
        <ele>317</ele>
        <time>2020-08-24T08:20:14Z</time>
      </trkpt>
      <trkpt lat="47.65711" lon="6.23012">
        <ele>317</ele>
        <time>2020-08-24T08:20:16Z</time>
      </trkpt>
      <trkpt lat="47.6571" lon="6.23022">
        <ele>317</ele>
        <time>2020-08-24T08:20:18Z</time>
      </trkpt>
      <trkpt lat="47.6571" lon="6.23032">
        <ele>317</ele>
        <time>2020-08-24T08:20:21Z</time>
      </trkpt>
      <trkpt lat="47.65709" lon="6.23041">
        <ele>317</ele>
        <time>2020-08-24T08:20:23Z</time>
      </trkpt>
      <trkpt lat="47.65709" lon="6.23049">
        <ele>317</ele>
        <time>2020-08-24T08:20:25Z</time>
      </trkpt>
      <trkpt lat="47.65708" lon="6.23056">
        <ele>317</ele>
        <time>2020-08-24T08:20:27Z</time>
      </trkpt>
      <trkpt lat="47.65706" lon="6.23065">
        <ele>317</ele>
        <time>2020-08-24T08:20:29Z</time>
      </trkpt>
      <trkpt lat="47.65705" lon="6.23073">
        <ele>317</ele>
        <time>2020-08-24T08:20:31Z</time>
      </trkpt>
      <trkpt lat="47.65704" lon="6.23081">
        <ele>317</ele>
        <time>2020-08-24T08:20:33Z</time>
      </trkpt>
      <trkpt lat="47.65703" lon="6.23088">
        <ele>316</ele>
        <time>2020-08-24T08:20:35Z</time>
      </trkpt>
      <trkpt lat="47.65702" lon="6.23096">
        <ele>316</ele>
        <time>2020-08-24T08:20:37Z</time>
      </trkpt>
      <trkpt lat="47.65702" lon="6.23103">
        <ele>316</ele>
        <time>2020-08-24T08:20:38Z</time>
      </trkpt>
      <trkpt lat="47.65701" lon="6.23112">
        <ele>316</ele>
        <time>2020-08-24T08:20:41Z</time>
      </trkpt>
      <trkpt lat="47.657" lon="6.23123">
        <ele>316</ele>
        <time>2020-08-24T08:20:44Z</time>
      </trkpt>
      <trkpt lat="47.65699" lon="6.2313">
        <ele>316</ele>
        <time>2020-08-24T08:20:46Z</time>
      </trkpt>
      <trkpt lat="47.65698" lon="6.23142">
        <ele>315</ele>
        <time>2020-08-24T08:20:48Z</time>
      </trkpt>
      <trkpt lat="47.65697" lon="6.23149">
        <ele>315</ele>
        <time>2020-08-24T08:20:51Z</time>
      </trkpt>
      <trkpt lat="47.65695" lon="6.23157">
        <ele>315</ele>
        <time>2020-08-24T08:20:53Z</time>
      </trkpt>
      <trkpt lat="47.65695" lon="6.23164">
        <ele>315</ele>
        <time>2020-08-24T08:20:55Z</time>
      </trkpt>
      <trkpt lat="47.65694" lon="6.23172">
        <ele>315</ele>
        <time>2020-08-24T08:20:57Z</time>
      </trkpt>
      <trkpt lat="47.65693" lon="6.23181">
        <ele>315</ele>
        <time>2020-08-24T08:20:59Z</time>
      </trkpt>
      <trkpt lat="47.65692" lon="6.23191">
        <ele>316</ele>
        <time>2020-08-24T08:21:02Z</time>
      </trkpt>
      <trkpt lat="47.65691" lon="6.23198">
        <ele>316</ele>
        <time>2020-08-24T08:21:04Z</time>
      </trkpt>
      <trkpt lat="47.65689" lon="6.23208">
        <ele>316</ele>
        <time>2020-08-24T08:21:07Z</time>
      </trkpt>
      <trkpt lat="47.65688" lon="6.23216">
        <ele>316</ele>
        <time>2020-08-24T08:21:09Z</time>
      </trkpt>
      <trkpt lat="47.65687" lon="6.23225">
        <ele>316</ele>
        <time>2020-08-24T08:21:12Z</time>
      </trkpt>
      <trkpt lat="47.65686" lon="6.23232">
        <ele>316</ele>
        <time>2020-08-24T08:21:14Z</time>
      </trkpt>
      <trkpt lat="47.65685" lon="6.23239">
        <ele>316</ele>
        <time>2020-08-24T08:21:16Z</time>
      </trkpt>
      <trkpt lat="47.65684" lon="6.2325">
        <ele>316</ele>
        <time>2020-08-24T08:21:18Z</time>
      </trkpt>
      <trkpt lat="47.65683" lon="6.2326">
        <ele>317</ele>
        <time>2020-08-24T08:21:22Z</time>
      </trkpt>
      <trkpt lat="47.65683" lon="6.23267">
        <ele>317</ele>
        <time>2020-08-24T08:21:24Z</time>
      </trkpt>
      <trkpt lat="47.65682" lon="6.23277">
        <ele>318</ele>
        <time>2020-08-24T08:21:27Z</time>
      </trkpt>
      <trkpt lat="47.65681" lon="6.23284">
        <ele>318</ele>
        <time>2020-08-24T08:21:29Z</time>
      </trkpt>
      <trkpt lat="47.6568" lon="6.23291">
        <ele>318</ele>
        <time>2020-08-24T08:21:32Z</time>
      </trkpt>
      <trkpt lat="47.65679" lon="6.23301">
        <ele>318</ele>
        <time>2020-08-24T08:21:35Z</time>
      </trkpt>
      <trkpt lat="47.65678" lon="6.23309">
        <ele>318</ele>
        <time>2020-08-24T08:21:37Z</time>
      </trkpt>
      <trkpt lat="47.65677" lon="6.23315">
        <ele>318</ele>
        <time>2020-08-24T08:21:39Z</time>
      </trkpt>
      <trkpt lat="47.65676" lon="6.23323">
        <ele>318</ele>
        <time>2020-08-24T08:21:41Z</time>
      </trkpt>
      <trkpt lat="47.65674" lon="6.23333">
        <ele>317</ele>
        <time>2020-08-24T08:21:44Z</time>
      </trkpt>
      <trkpt lat="47.65673" lon="6.23342">
        <ele>318</ele>
        <time>2020-08-24T08:21:46Z</time>
      </trkpt>
      <trkpt lat="47.65672" lon="6.2335">
        <ele>318</ele>
        <time>2020-08-24T08:21:48Z</time>
      </trkpt>
      <trkpt lat="47.6567" lon="6.23358">
        <ele>319</ele>
        <time>2020-08-24T08:21:50Z</time>
      </trkpt>
      <trkpt lat="47.65669" lon="6.23367">
        <ele>319</ele>
        <time>2020-08-24T08:21:52Z</time>
      </trkpt>
      <trkpt lat="47.65668" lon="6.23375">
        <ele>319</ele>
        <time>2020-08-24T08:21:53Z</time>
      </trkpt>
      <trkpt lat="47.65667" lon="6.23382">
        <ele>318</ele>
        <time>2020-08-24T08:22:01Z</time>
      </trkpt>
      <trkpt lat="47.65658" lon="6.23401">
        <ele>318</ele>
        <time>2020-08-24T08:22:02Z</time>
      </trkpt>
      <trkpt lat="47.65655" lon="6.23407">
        <ele>318</ele>
        <time>2020-08-24T08:22:04Z</time>
      </trkpt>
      <trkpt lat="47.65651" lon="6.23412">
        <ele>318</ele>
        <time>2020-08-24T08:22:06Z</time>
      </trkpt>
      <trkpt lat="47.65646" lon="6.23418">
        <ele>319</ele>
        <time>2020-08-24T08:22:09Z</time>
      </trkpt>
      <trkpt lat="47.65643" lon="6.23423">
        <ele>319</ele>
        <time>2020-08-24T08:22:11Z</time>
      </trkpt>
      <trkpt lat="47.65643" lon="6.23434">
        <ele>319</ele>
        <time>2020-08-24T08:22:14Z</time>
      </trkpt>
      <trkpt lat="47.65644" lon="6.23442">
        <ele>319</ele>
        <time>2020-08-24T08:22:16Z</time>
      </trkpt>
      <trkpt lat="47.65647" lon="6.23449">
        <ele>319</ele>
        <time>2020-08-24T08:22:18Z</time>
      </trkpt>
      <trkpt lat="47.65649" lon="6.23455">
        <ele>319</ele>
        <time>2020-08-24T08:22:20Z</time>
      </trkpt>
      <trkpt lat="47.65652" lon="6.23461">
        <ele>319</ele>
        <time>2020-08-24T08:22:22Z</time>
      </trkpt>
      <trkpt lat="47.65655" lon="6.23466">
        <ele>319</ele>
        <time>2020-08-24T08:22:24Z</time>
      </trkpt>
      <trkpt lat="47.65658" lon="6.23475">
        <ele>319</ele>
        <time>2020-08-24T08:22:27Z</time>
      </trkpt>
      <trkpt lat="47.65661" lon="6.23483">
        <ele>319</ele>
        <time>2020-08-24T08:22:29Z</time>
      </trkpt>
      <trkpt lat="47.65663" lon="6.23491">
        <ele>319</ele>
        <time>2020-08-24T08:22:31Z</time>
      </trkpt>
      <trkpt lat="47.65665" lon="6.23497">
        <ele>319</ele>
        <time>2020-08-24T08:22:33Z</time>
      </trkpt>
      <trkpt lat="47.65667" lon="6.23505">
        <ele>319</ele>
        <time>2020-08-24T08:22:36Z</time>
      </trkpt>
      <trkpt lat="47.65668" lon="6.23514">
        <ele>320</ele>
        <time>2020-08-24T08:22:40Z</time>
      </trkpt>
      <trkpt lat="47.6567" lon="6.23521">
        <ele>321</ele>
        <time>2020-08-24T08:22:43Z</time>
      </trkpt>
      <trkpt lat="47.65672" lon="6.23528">
        <ele>321</ele>
        <time>2020-08-24T08:22:46Z</time>
      </trkpt>
      <trkpt lat="47.65673" lon="6.23535">
        <ele>321</ele>
        <time>2020-08-24T08:22:48Z</time>
      </trkpt>
      <trkpt lat="47.65675" lon="6.23544">
        <ele>321</ele>
        <time>2020-08-24T08:22:51Z</time>
      </trkpt>
      <trkpt lat="47.65676" lon="6.23554">
        <ele>321</ele>
        <time>2020-08-24T08:22:53Z</time>
      </trkpt>
      <trkpt lat="47.65677" lon="6.23565">
        <ele>320</ele>
        <time>2020-08-24T08:22:55Z</time>
      </trkpt>
      <trkpt lat="47.65677" lon="6.23577">
        <ele>320</ele>
        <time>2020-08-24T08:22:57Z</time>
      </trkpt>
      <trkpt lat="47.65678" lon="6.23586">
        <ele>320</ele>
        <time>2020-08-24T08:22:59Z</time>
      </trkpt>
      <trkpt lat="47.65679" lon="6.23593">
        <ele>321</ele>
        <time>2020-08-24T08:23:01Z</time>
      </trkpt>
      <trkpt lat="47.6568" lon="6.236">
        <ele>322</ele>
        <time>2020-08-24T08:23:03Z</time>
      </trkpt>
      <trkpt lat="47.65681" lon="6.23609">
        <ele>322</ele>
        <time>2020-08-24T08:23:06Z</time>
      </trkpt>
      <trkpt lat="47.65682" lon="6.23617">
        <ele>323</ele>
        <time>2020-08-24T08:23:09Z</time>
      </trkpt>
      <trkpt lat="47.6568" lon="6.23626">
        <ele>323</ele>
        <time>2020-08-24T08:23:12Z</time>
      </trkpt>
      <trkpt lat="47.65679" lon="6.23633">
        <ele>323</ele>
        <time>2020-08-24T08:23:14Z</time>
      </trkpt>
      <trkpt lat="47.65677" lon="6.23641">
        <ele>323</ele>
        <time>2020-08-24T08:23:16Z</time>
      </trkpt>
      <trkpt lat="47.65675" lon="6.23651">
        <ele>322</ele>
        <time>2020-08-24T08:23:18Z</time>
      </trkpt>
      <trkpt lat="47.65673" lon="6.23663">
        <ele>321</ele>
        <time>2020-08-24T08:23:20Z</time>
      </trkpt>
      <trkpt lat="47.65671" lon="6.2367">
        <ele>321</ele>
        <time>2020-08-24T08:23:21Z</time>
      </trkpt>
      <trkpt lat="47.6567" lon="6.23683">
        <ele>323</ele>
        <time>2020-08-24T08:23:23Z</time>
      </trkpt>
      <trkpt lat="47.6567" lon="6.23691">
        <ele>323</ele>
        <time>2020-08-24T08:23:24Z</time>
      </trkpt>
      <trkpt lat="47.6567" lon="6.23699">
        <ele>323</ele>
        <time>2020-08-24T08:23:25Z</time>
      </trkpt>
      <trkpt lat="47.6567" lon="6.23706">
        <ele>323</ele>
        <time>2020-08-24T08:23:26Z</time>
      </trkpt>
      <trkpt lat="47.65672" lon="6.23716">
        <ele>323</ele>
        <time>2020-08-24T08:23:28Z</time>
      </trkpt>
      <trkpt lat="47.65673" lon="6.23725">
        <ele>323</ele>
        <time>2020-08-24T08:23:30Z</time>
      </trkpt>
      <trkpt lat="47.65676" lon="6.23734">
        <ele>322</ele>
        <time>2020-08-24T08:23:33Z</time>
      </trkpt>
      <trkpt lat="47.65678" lon="6.2374">
        <ele>322</ele>
        <time>2020-08-24T08:23:35Z</time>
      </trkpt>
      <trkpt lat="47.65681" lon="6.23749">
        <ele>322</ele>
        <time>2020-08-24T08:23:38Z</time>
      </trkpt>
      <trkpt lat="47.65683" lon="6.23758">
        <ele>322</ele>
        <time>2020-08-24T08:23:41Z</time>
      </trkpt>
      <trkpt lat="47.65686" lon="6.23766">
        <ele>323</ele>
        <time>2020-08-24T08:23:44Z</time>
      </trkpt>
      <trkpt lat="47.65689" lon="6.23773">
        <ele>324</ele>
        <time>2020-08-24T08:23:47Z</time>
      </trkpt>
      <trkpt lat="47.65691" lon="6.23782">
        <ele>324</ele>
        <time>2020-08-24T08:23:50Z</time>
      </trkpt>
      <trkpt lat="47.65693" lon="6.2379">
        <ele>324</ele>
        <time>2020-08-24T08:23:53Z</time>
      </trkpt>
      <trkpt lat="47.65696" lon="6.23797">
        <ele>324</ele>
        <time>2020-08-24T08:23:56Z</time>
      </trkpt>
      <trkpt lat="47.65698" lon="6.23805">
        <ele>325</ele>
        <time>2020-08-24T08:23:59Z</time>
      </trkpt>
      <trkpt lat="47.65701" lon="6.23813">
        <ele>325</ele>
        <time>2020-08-24T08:24:02Z</time>
      </trkpt>
      <trkpt lat="47.65704" lon="6.2382">
        <ele>325</ele>
        <time>2020-08-24T08:24:04Z</time>
      </trkpt>
      <trkpt lat="47.65707" lon="6.23826">
        <ele>325</ele>
        <time>2020-08-24T08:24:06Z</time>
      </trkpt>
      <trkpt lat="47.6571" lon="6.23834">
        <ele>326</ele>
        <time>2020-08-24T08:24:09Z</time>
      </trkpt>
      <trkpt lat="47.65712" lon="6.2384">
        <ele>326</ele>
        <time>2020-08-24T08:24:11Z</time>
      </trkpt>
      <trkpt lat="47.65716" lon="6.23848">
        <ele>326</ele>
        <time>2020-08-24T08:24:14Z</time>
      </trkpt>
      <trkpt lat="47.65718" lon="6.23854">
        <ele>326</ele>
        <time>2020-08-24T08:24:16Z</time>
      </trkpt>
      <trkpt lat="47.65721" lon="6.23861">
        <ele>326</ele>
        <time>2020-08-24T08:24:19Z</time>
      </trkpt>
      <trkpt lat="47.65724" lon="6.23868">
        <ele>326</ele>
        <time>2020-08-24T08:24:22Z</time>
      </trkpt>
      <trkpt lat="47.65727" lon="6.23877">
        <ele>326</ele>
        <time>2020-08-24T08:24:25Z</time>
      </trkpt>
      <trkpt lat="47.6573" lon="6.23887">
        <ele>326</ele>
        <time>2020-08-24T08:24:28Z</time>
      </trkpt>
      <trkpt lat="47.65732" lon="6.23896">
        <ele>326</ele>
        <time>2020-08-24T08:24:31Z</time>
      </trkpt>
      <trkpt lat="47.65734" lon="6.23905">
        <ele>326</ele>
        <time>2020-08-24T08:24:33Z</time>
      </trkpt>
      <trkpt lat="47.65735" lon="6.23911">
        <ele>327</ele>
        <time>2020-08-24T08:24:35Z</time>
      </trkpt>
      <trkpt lat="47.65737" lon="6.23918">
        <ele>328</ele>
        <time>2020-08-24T08:24:37Z</time>
      </trkpt>
      <trkpt lat="47.65738" lon="6.23926">
        <ele>328</ele>
        <time>2020-08-24T08:24:44Z</time>
      </trkpt>
      <trkpt lat="47.65739" lon="6.23942">
        <ele>329</ele>
        <time>2020-08-24T08:24:45Z</time>
      </trkpt>
      <trkpt lat="47.6574" lon="6.2395">
        <ele>329</ele>
        <time>2020-08-24T08:24:47Z</time>
      </trkpt>
      <trkpt lat="47.65741" lon="6.23958">
        <ele>329</ele>
        <time>2020-08-24T08:24:54Z</time>
      </trkpt>
      <trkpt lat="47.65742" lon="6.23973">
        <ele>330</ele>
        <time>2020-08-24T08:24:55Z</time>
      </trkpt>
      <trkpt lat="47.65741" lon="6.23982">
        <ele>330</ele>
        <time>2020-08-24T08:24:59Z</time>
      </trkpt>
      <trkpt lat="47.65742" lon="6.23989">
        <ele>330</ele>
        <time>2020-08-24T08:25:02Z</time>
      </trkpt>
      <trkpt lat="47.65744" lon="6.23996">
        <ele>330</ele>
        <time>2020-08-24T08:25:05Z</time>
      </trkpt>
      <trkpt lat="47.65745" lon="6.24003">
        <ele>331</ele>
        <time>2020-08-24T08:25:08Z</time>
      </trkpt>
      <trkpt lat="47.65746" lon="6.2401">
        <ele>332</ele>
        <time>2020-08-24T08:25:10Z</time>
      </trkpt>
      <trkpt lat="47.65748" lon="6.24018">
        <ele>333</ele>
        <time>2020-08-24T08:25:14Z</time>
      </trkpt>
      <trkpt lat="47.65748" lon="6.24027">
        <ele>334</ele>
        <time>2020-08-24T08:25:17Z</time>
      </trkpt>
      <trkpt lat="47.65749" lon="6.24036">
        <ele>334</ele>
        <time>2020-08-24T08:25:20Z</time>
      </trkpt>
      <trkpt lat="47.65751" lon="6.24043">
        <ele>335</ele>
        <time>2020-08-24T08:25:27Z</time>
      </trkpt>
      <trkpt lat="47.65753" lon="6.24059">
        <ele>335</ele>
        <time>2020-08-24T08:25:28Z</time>
      </trkpt>
      <trkpt lat="47.65754" lon="6.24066">
        <ele>335</ele>
        <time>2020-08-24T08:25:30Z</time>
      </trkpt>
      <trkpt lat="47.65754" lon="6.24073">
        <ele>335</ele>
        <time>2020-08-24T08:25:34Z</time>
      </trkpt>
      <trkpt lat="47.65756" lon="6.2408">
        <ele>335</ele>
        <time>2020-08-24T08:25:38Z</time>
      </trkpt>
      <trkpt lat="47.65758" lon="6.24087">
        <ele>336</ele>
        <time>2020-08-24T08:25:42Z</time>
      </trkpt>
      <trkpt lat="47.6576" lon="6.24095">
        <ele>337</ele>
        <time>2020-08-24T08:25:45Z</time>
      </trkpt>
      <trkpt lat="47.65762" lon="6.24102">
        <ele>338</ele>
        <time>2020-08-24T08:25:48Z</time>
      </trkpt>
      <trkpt lat="47.65764" lon="6.24108">
        <ele>338</ele>
        <time>2020-08-24T08:25:51Z</time>
      </trkpt>
      <trkpt lat="47.65762" lon="6.24117">
        <ele>338</ele>
        <time>2020-08-24T08:25:55Z</time>
      </trkpt>
      <trkpt lat="47.65761" lon="6.24126">
        <ele>339</ele>
        <time>2020-08-24T08:25:59Z</time>
      </trkpt>
      <trkpt lat="47.6576" lon="6.24135">
        <ele>339</ele>
        <time>2020-08-24T08:26:03Z</time>
      </trkpt>
      <trkpt lat="47.65759" lon="6.24143">
        <ele>339</ele>
        <time>2020-08-24T08:26:07Z</time>
      </trkpt>
      <trkpt lat="47.65758" lon="6.24152">
        <ele>339</ele>
        <time>2020-08-24T08:26:10Z</time>
      </trkpt>
      <trkpt lat="47.65756" lon="6.24158">
        <ele>340</ele>
        <time>2020-08-24T08:26:13Z</time>
      </trkpt>
      <trkpt lat="47.65755" lon="6.24165">
        <ele>340</ele>
        <time>2020-08-24T08:26:16Z</time>
      </trkpt>
      <trkpt lat="47.65754" lon="6.24172">
        <ele>340</ele>
        <time>2020-08-24T08:26:19Z</time>
      </trkpt>
      <trkpt lat="47.65753" lon="6.24179">
        <ele>341</ele>
        <time>2020-08-24T08:26:21Z</time>
      </trkpt>
      <trkpt lat="47.65751" lon="6.24185">
        <ele>341</ele>
        <time>2020-08-24T08:26:24Z</time>
      </trkpt>
      <trkpt lat="47.6575" lon="6.24194">
        <ele>341</ele>
        <time>2020-08-24T08:26:27Z</time>
      </trkpt>
      <trkpt lat="47.65749" lon="6.24202">
        <ele>342</ele>
        <time>2020-08-24T08:26:31Z</time>
      </trkpt>
      <trkpt lat="47.65749" lon="6.2421">
        <ele>342</ele>
        <time>2020-08-24T08:26:37Z</time>
      </trkpt>
      <trkpt lat="47.65748" lon="6.24217">
        <ele>343</ele>
        <time>2020-08-24T08:26:40Z</time>
      </trkpt>
      <trkpt lat="47.65747" lon="6.24225">
        <ele>343</ele>
        <time>2020-08-24T08:26:43Z</time>
      </trkpt>
      <trkpt lat="47.65746" lon="6.24231">
        <ele>343</ele>
        <time>2020-08-24T08:26:46Z</time>
      </trkpt>
      <trkpt lat="47.65744" lon="6.24239">
        <ele>342</ele>
        <time>2020-08-24T08:26:50Z</time>
      </trkpt>
      <trkpt lat="47.65744" lon="6.24246">
        <ele>342</ele>
        <time>2020-08-24T08:26:54Z</time>
      </trkpt>
      <trkpt lat="47.65743" lon="6.24255">
        <ele>343</ele>
        <time>2020-08-24T08:26:57Z</time>
      </trkpt>
      <trkpt lat="47.65743" lon="6.24262">
        <ele>343</ele>
        <time>2020-08-24T08:27:00Z</time>
      </trkpt>
      <trkpt lat="47.65743" lon="6.2427">
        <ele>343</ele>
        <time>2020-08-24T08:27:02Z</time>
      </trkpt>
      <trkpt lat="47.65744" lon="6.2428">
        <ele>344</ele>
        <time>2020-08-24T08:27:05Z</time>
      </trkpt>
      <trkpt lat="47.65744" lon="6.2429">
        <ele>344</ele>
        <time>2020-08-24T08:27:08Z</time>
      </trkpt>
      <trkpt lat="47.65743" lon="6.24299">
        <ele>344</ele>
        <time>2020-08-24T08:27:11Z</time>
      </trkpt>
      <trkpt lat="47.65742" lon="6.24306">
        <ele>344</ele>
        <time>2020-08-24T08:27:14Z</time>
      </trkpt>
      <trkpt lat="47.65742" lon="6.24315">
        <ele>343</ele>
        <time>2020-08-24T08:27:17Z</time>
      </trkpt>
      <trkpt lat="47.65742" lon="6.24323">
        <ele>343</ele>
        <time>2020-08-24T08:27:19Z</time>
      </trkpt>
      <trkpt lat="47.65743" lon="6.24333">
        <ele>343</ele>
        <time>2020-08-24T08:27:21Z</time>
      </trkpt>
      <trkpt lat="47.65745" lon="6.24343">
        <ele>343</ele>
        <time>2020-08-24T08:27:24Z</time>
      </trkpt>
      <trkpt lat="47.65746" lon="6.24349">
        <ele>344</ele>
        <time>2020-08-24T08:27:26Z</time>
      </trkpt>
      <trkpt lat="47.65747" lon="6.24356">
        <ele>344</ele>
        <time>2020-08-24T08:27:28Z</time>
      </trkpt>
      <trkpt lat="47.65749" lon="6.24363">
        <ele>344</ele>
        <time>2020-08-24T08:27:30Z</time>
      </trkpt>
      <trkpt lat="47.65751" lon="6.2437">
        <ele>343</ele>
        <time>2020-08-24T08:27:31Z</time>
      </trkpt>
      <trkpt lat="47.65754" lon="6.24377">
        <ele>343</ele>
        <time>2020-08-24T08:27:34Z</time>
      </trkpt>
      <trkpt lat="47.65755" lon="6.24384">
        <ele>343</ele>
        <time>2020-08-24T08:27:36Z</time>
      </trkpt>
      <trkpt lat="47.65757" lon="6.2439">
        <ele>343</ele>
        <time>2020-08-24T08:27:38Z</time>
      </trkpt>
      <trkpt lat="47.65761" lon="6.24404">
        <ele>343</ele>
        <time>2020-08-24T08:27:41Z</time>
      </trkpt>
      <trkpt lat="47.65764" lon="6.2441">
        <ele>343</ele>
        <time>2020-08-24T08:27:44Z</time>
      </trkpt>
      <trkpt lat="47.65767" lon="6.24418">
        <ele>343</ele>
        <time>2020-08-24T08:27:47Z</time>
      </trkpt>
      <trkpt lat="47.65769" lon="6.24427">
        <ele>344</ele>
        <time>2020-08-24T08:27:50Z</time>
      </trkpt>
      <trkpt lat="47.65772" lon="6.24436">
        <ele>344</ele>
        <time>2020-08-24T08:27:54Z</time>
      </trkpt>
      <trkpt lat="47.65774" lon="6.24444">
        <ele>344</ele>
        <time>2020-08-24T08:27:56Z</time>
      </trkpt>
      <trkpt lat="47.65776" lon="6.24451">
        <ele>344</ele>
        <time>2020-08-24T08:27:58Z</time>
      </trkpt>
      <trkpt lat="47.65778" lon="6.24459">
        <ele>344</ele>
        <time>2020-08-24T08:28:01Z</time>
      </trkpt>
      <trkpt lat="47.6578" lon="6.24467">
        <ele>344</ele>
        <time>2020-08-24T08:28:03Z</time>
      </trkpt>
      <trkpt lat="47.65782" lon="6.24474">
        <ele>344</ele>
        <time>2020-08-24T08:28:05Z</time>
      </trkpt>
      <trkpt lat="47.65784" lon="6.24484">
        <ele>344</ele>
        <time>2020-08-24T08:28:08Z</time>
      </trkpt>
      <trkpt lat="47.65785" lon="6.24491">
        <ele>344</ele>
        <time>2020-08-24T08:28:10Z</time>
      </trkpt>
      <trkpt lat="47.65786" lon="6.24499">
        <ele>344</ele>
        <time>2020-08-24T08:28:13Z</time>
      </trkpt>
      <trkpt lat="47.65787" lon="6.24507">
        <ele>345</ele>
        <time>2020-08-24T08:28:16Z</time>
      </trkpt>
      <trkpt lat="47.65788" lon="6.24514">
        <ele>345</ele>
        <time>2020-08-24T08:28:18Z</time>
      </trkpt>
      <trkpt lat="47.6579" lon="6.24521">
        <ele>345</ele>
        <time>2020-08-24T08:28:20Z</time>
      </trkpt>
      <trkpt lat="47.65791" lon="6.24529">
        <ele>346</ele>
        <time>2020-08-24T08:28:22Z</time>
      </trkpt>
      <trkpt lat="47.65793" lon="6.24539">
        <ele>346</ele>
        <time>2020-08-24T08:28:25Z</time>
      </trkpt>
      <trkpt lat="47.65795" lon="6.24546">
        <ele>346</ele>
        <time>2020-08-24T08:28:27Z</time>
      </trkpt>
      <trkpt lat="47.65796" lon="6.24556">
        <ele>346</ele>
        <time>2020-08-24T08:28:30Z</time>
      </trkpt>
      <trkpt lat="47.65797" lon="6.24564">
        <ele>346</ele>
        <time>2020-08-24T08:28:31Z</time>
      </trkpt>
      <trkpt lat="47.65797" lon="6.24574">
        <ele>346</ele>
        <time>2020-08-24T08:28:35Z</time>
      </trkpt>
      <trkpt lat="47.65798" lon="6.24582">
        <ele>346</ele>
        <time>2020-08-24T08:28:37Z</time>
      </trkpt>
      <trkpt lat="47.65798" lon="6.24591">
        <ele>348</ele>
        <time>2020-08-24T08:28:40Z</time>
      </trkpt>
      <trkpt lat="47.65798" lon="6.246">
        <ele>348</ele>
        <time>2020-08-24T08:28:42Z</time>
      </trkpt>
      <trkpt lat="47.658" lon="6.24609">
        <ele>348</ele>
        <time>2020-08-24T08:28:45Z</time>
      </trkpt>
      <trkpt lat="47.65801" lon="6.24616">
        <ele>348</ele>
        <time>2020-08-24T08:28:47Z</time>
      </trkpt>
      <trkpt lat="47.65801" lon="6.24624">
        <ele>348</ele>
        <time>2020-08-24T08:28:49Z</time>
      </trkpt>
      <trkpt lat="47.65802" lon="6.24633">
        <ele>348</ele>
        <time>2020-08-24T08:28:51Z</time>
      </trkpt>
      <trkpt lat="47.65801" lon="6.24642">
        <ele>349</ele>
        <time>2020-08-24T08:28:55Z</time>
      </trkpt>
      <trkpt lat="47.65802" lon="6.24651">
        <ele>349</ele>
        <time>2020-08-24T08:28:58Z</time>
      </trkpt>
      <trkpt lat="47.65802" lon="6.2466">
        <ele>349</ele>
        <time>2020-08-24T08:29:01Z</time>
      </trkpt>
      <trkpt lat="47.65801" lon="6.24669">
        <ele>350</ele>
        <time>2020-08-24T08:29:05Z</time>
      </trkpt>
      <trkpt lat="47.658" lon="6.24676">
        <ele>350</ele>
        <time>2020-08-24T08:29:08Z</time>
      </trkpt>
      <trkpt lat="47.658" lon="6.24685">
        <ele>351</ele>
        <time>2020-08-24T08:29:11Z</time>
      </trkpt>
      <trkpt lat="47.65799" lon="6.24695">
        <ele>351</ele>
        <time>2020-08-24T08:29:15Z</time>
      </trkpt>
      <trkpt lat="47.65799" lon="6.24705">
        <ele>351</ele>
        <time>2020-08-24T08:29:18Z</time>
      </trkpt>
      <trkpt lat="47.65799" lon="6.24712">
        <ele>351</ele>
        <time>2020-08-24T08:29:20Z</time>
      </trkpt>
      <trkpt lat="47.65798" lon="6.24719">
        <ele>351</ele>
        <time>2020-08-24T08:29:21Z</time>
      </trkpt>
      <trkpt lat="47.65799" lon="6.24729">
        <ele>351</ele>
        <time>2020-08-24T08:29:25Z</time>
      </trkpt>
      <trkpt lat="47.65799" lon="6.24737">
        <ele>351</ele>
        <time>2020-08-24T08:29:28Z</time>
      </trkpt>
      <trkpt lat="47.658" lon="6.24748">
        <ele>351</ele>
        <time>2020-08-24T08:29:31Z</time>
      </trkpt>
      <trkpt lat="47.658" lon="6.24756">
        <ele>352</ele>
        <time>2020-08-24T08:29:35Z</time>
      </trkpt>
      <trkpt lat="47.658" lon="6.24764">
        <ele>352</ele>
        <time>2020-08-24T08:29:38Z</time>
      </trkpt>
      <trkpt lat="47.658" lon="6.24777">
        <ele>352</ele>
        <time>2020-08-24T08:29:41Z</time>
      </trkpt>
      <trkpt lat="47.65799" lon="6.24785">
        <ele>352</ele>
        <time>2020-08-24T08:29:44Z</time>
      </trkpt>
      <trkpt lat="47.65799" lon="6.24793">
        <ele>352</ele>
        <time>2020-08-24T08:29:46Z</time>
      </trkpt>
      <trkpt lat="47.65798" lon="6.248">
        <ele>352</ele>
        <time>2020-08-24T08:29:48Z</time>
      </trkpt>
      <trkpt lat="47.65797" lon="6.24807">
        <ele>352</ele>
        <time>2020-08-24T08:29:50Z</time>
      </trkpt>
      <trkpt lat="47.65797" lon="6.24815">
        <ele>352</ele>
        <time>2020-08-24T08:29:52Z</time>
      </trkpt>
      <trkpt lat="47.65797" lon="6.24823">
        <ele>352</ele>
        <time>2020-08-24T08:29:56Z</time>
      </trkpt>
      <trkpt lat="47.65796" lon="6.24832">
        <ele>352</ele>
        <time>2020-08-24T08:29:59Z</time>
      </trkpt>
      <trkpt lat="47.65794" lon="6.2484">
        <ele>352</ele>
        <time>2020-08-24T08:30:01Z</time>
      </trkpt>
      <trkpt lat="47.65793" lon="6.24849">
        <ele>352</ele>
        <time>2020-08-24T08:30:03Z</time>
      </trkpt>
      <trkpt lat="47.65791" lon="6.24859">
        <ele>352</ele>
        <time>2020-08-24T08:30:05Z</time>
      </trkpt>
      <trkpt lat="47.65789" lon="6.2487">
        <ele>352</ele>
        <time>2020-08-24T08:30:07Z</time>
      </trkpt>
      <trkpt lat="47.65786" lon="6.24881">
        <ele>352</ele>
        <time>2020-08-24T08:30:09Z</time>
      </trkpt>
      <trkpt lat="47.65783" lon="6.2489">
        <ele>352</ele>
        <time>2020-08-24T08:30:11Z</time>
      </trkpt>
      <trkpt lat="47.65781" lon="6.24901">
        <ele>353</ele>
        <time>2020-08-24T08:30:13Z</time>
      </trkpt>
      <trkpt lat="47.65779" lon="6.24911">
        <ele>353</ele>
        <time>2020-08-24T08:30:15Z</time>
      </trkpt>
      <trkpt lat="47.65776" lon="6.24921">
        <ele>353</ele>
        <time>2020-08-24T08:30:17Z</time>
      </trkpt>
      <trkpt lat="47.65774" lon="6.24929">
        <ele>353</ele>
        <time>2020-08-24T08:30:19Z</time>
      </trkpt>
      <trkpt lat="47.65772" lon="6.2494">
        <ele>353</ele>
        <time>2020-08-24T08:30:21Z</time>
      </trkpt>
      <trkpt lat="47.6577" lon="6.2495">
        <ele>353</ele>
        <time>2020-08-24T08:30:22Z</time>
      </trkpt>
      <trkpt lat="47.65769" lon="6.24958">
        <ele>353</ele>
        <time>2020-08-24T08:30:24Z</time>
      </trkpt>
      <trkpt lat="47.65767" lon="6.24965">
        <ele>353</ele>
        <time>2020-08-24T08:30:26Z</time>
      </trkpt>
      <trkpt lat="47.65767" lon="6.24972">
        <ele>353</ele>
        <time>2020-08-24T08:30:50Z</time>
      </trkpt>
      <trkpt lat="47.65767" lon="6.24981">
        <ele>353</ele>
        <time>2020-08-24T08:30:53Z</time>
      </trkpt>
      <trkpt lat="47.65766" lon="6.24989">
        <ele>353</ele>
        <time>2020-08-24T08:30:55Z</time>
      </trkpt>
      <trkpt lat="47.65765" lon="6.24999">
        <ele>352</ele>
        <time>2020-08-24T08:30:57Z</time>
      </trkpt>
      <trkpt lat="47.65764" lon="6.25008">
        <ele>352</ele>
        <time>2020-08-24T08:30:59Z</time>
      </trkpt>
      <trkpt lat="47.6576" lon="6.2502">
        <ele>352</ele>
        <time>2020-08-24T08:31:01Z</time>
      </trkpt>
      <trkpt lat="47.65757" lon="6.25026">
        <ele>351</ele>
        <time>2020-08-24T08:31:02Z</time>
      </trkpt>
      <trkpt lat="47.65754" lon="6.25034">
        <ele>351</ele>
        <time>2020-08-24T08:31:03Z</time>
      </trkpt>
      <trkpt lat="47.65751" lon="6.25046">
        <ele>351</ele>
        <time>2020-08-24T08:31:05Z</time>
      </trkpt>
      <trkpt lat="47.6575" lon="6.2506">
        <ele>351</ele>
        <time>2020-08-24T08:31:07Z</time>
      </trkpt>
      <trkpt lat="47.65749" lon="6.25068">
        <ele>349</ele>
        <time>2020-08-24T08:31:08Z</time>
      </trkpt>
      <trkpt lat="47.65748" lon="6.25076">
        <ele>349</ele>
        <time>2020-08-24T08:31:09Z</time>
      </trkpt>
      <trkpt lat="47.65747" lon="6.25085">
        <ele>348</ele>
        <time>2020-08-24T08:31:10Z</time>
      </trkpt>
      <trkpt lat="47.65746" lon="6.25094">
        <ele>348</ele>
        <time>2020-08-24T08:31:11Z</time>
      </trkpt>
      <trkpt lat="47.65746" lon="6.25102">
        <ele>347</ele>
        <time>2020-08-24T08:31:12Z</time>
      </trkpt>
      <trkpt lat="47.65745" lon="6.25116">
        <ele>346</ele>
        <time>2020-08-24T08:31:13Z</time>
      </trkpt>
      <trkpt lat="47.65744" lon="6.25128">
        <ele>346</ele>
        <time>2020-08-24T08:31:15Z</time>
      </trkpt>
      <trkpt lat="47.6574" lon="6.25141">
        <ele>346</ele>
        <time>2020-08-24T08:31:17Z</time>
      </trkpt>
      <trkpt lat="47.65737" lon="6.25148">
        <ele>345</ele>
        <time>2020-08-24T08:31:18Z</time>
      </trkpt>
      <trkpt lat="47.65734" lon="6.25154">
        <ele>345</ele>
        <time>2020-08-24T08:31:19Z</time>
      </trkpt>
      <trkpt lat="47.65729" lon="6.25161">
        <ele>345</ele>
        <time>2020-08-24T08:31:20Z</time>
      </trkpt>
      <trkpt lat="47.65724" lon="6.25167">
        <ele>343</ele>
        <time>2020-08-24T08:31:21Z</time>
      </trkpt>
      <trkpt lat="47.65718" lon="6.25171">
        <ele>342</ele>
        <time>2020-08-24T08:31:22Z</time>
      </trkpt>
      <trkpt lat="47.65708" lon="6.25174">
        <ele>342</ele>
        <time>2020-08-24T08:31:23Z</time>
      </trkpt>
      <trkpt lat="47.657" lon="6.25175">
        <ele>341</ele>
        <time>2020-08-24T08:31:25Z</time>
      </trkpt>
      <trkpt lat="47.65695" lon="6.25175">
        <ele>341</ele>
        <time>2020-08-24T08:31:26Z</time>
      </trkpt>
      <trkpt lat="47.65689" lon="6.25174">
        <ele>341</ele>
        <time>2020-08-24T08:31:27Z</time>
      </trkpt>
      <trkpt lat="47.65684" lon="6.25174">
        <ele>341</ele>
        <time>2020-08-24T08:31:28Z</time>
      </trkpt>
      <trkpt lat="47.65679" lon="6.25174">
        <ele>341</ele>
        <time>2020-08-24T08:31:29Z</time>
      </trkpt>
      <trkpt lat="47.65675" lon="6.25173">
        <ele>341</ele>
        <time>2020-08-24T08:31:30Z</time>
      </trkpt>
      <trkpt lat="47.6567" lon="6.25173">
        <ele>341</ele>
        <time>2020-08-24T08:31:31Z</time>
      </trkpt>
      <trkpt lat="47.65665" lon="6.25172">
        <ele>340</ele>
        <time>2020-08-24T08:31:32Z</time>
      </trkpt>
      <trkpt lat="47.6566" lon="6.25172">
        <ele>339</ele>
        <time>2020-08-24T08:31:33Z</time>
      </trkpt>
      <trkpt lat="47.65654" lon="6.25172">
        <ele>339</ele>
        <time>2020-08-24T08:31:34Z</time>
      </trkpt>
      <trkpt lat="47.65648" lon="6.25171">
        <ele>338</ele>
        <time>2020-08-24T08:31:35Z</time>
      </trkpt>
      <trkpt lat="47.65642" lon="6.2517">
        <ele>338</ele>
        <time>2020-08-24T08:31:36Z</time>
      </trkpt>
      <trkpt lat="47.65636" lon="6.2517">
        <ele>337</ele>
        <time>2020-08-24T08:31:37Z</time>
      </trkpt>
      <trkpt lat="47.6563" lon="6.25168">
        <ele>337</ele>
        <time>2020-08-24T08:31:38Z</time>
      </trkpt>
      <trkpt lat="47.65624" lon="6.25165">
        <ele>339</ele>
        <time>2020-08-24T08:31:39Z</time>
      </trkpt>
      <trkpt lat="47.65618" lon="6.25162">
        <ele>338</ele>
        <time>2020-08-24T08:31:40Z</time>
      </trkpt>
      <trkpt lat="47.65612" lon="6.25157">
        <ele>338</ele>
        <time>2020-08-24T08:31:41Z</time>
      </trkpt>
      <trkpt lat="47.65607" lon="6.25152">
        <ele>338</ele>
        <time>2020-08-24T08:31:42Z</time>
      </trkpt>
      <trkpt lat="47.65603" lon="6.25146">
        <ele>338</ele>
        <time>2020-08-24T08:31:43Z</time>
      </trkpt>
      <trkpt lat="47.65599" lon="6.2514">
        <ele>338</ele>
        <time>2020-08-24T08:31:44Z</time>
      </trkpt>
      <trkpt lat="47.65595" lon="6.25135">
        <ele>338</ele>
        <time>2020-08-24T08:31:45Z</time>
      </trkpt>
      <trkpt lat="47.65591" lon="6.2513">
        <ele>338</ele>
        <time>2020-08-24T08:31:46Z</time>
      </trkpt>
      <trkpt lat="47.65587" lon="6.25125">
        <ele>338</ele>
        <time>2020-08-24T08:31:47Z</time>
      </trkpt>
      <trkpt lat="47.65583" lon="6.2512">
        <ele>334</ele>
        <time>2020-08-24T08:31:48Z</time>
      </trkpt>
      <trkpt lat="47.65579" lon="6.25115">
        <ele>334</ele>
        <time>2020-08-24T08:31:49Z</time>
      </trkpt>
      <trkpt lat="47.65575" lon="6.25111">
        <ele>334</ele>
        <time>2020-08-24T08:31:50Z</time>
      </trkpt>
      <trkpt lat="47.65571" lon="6.25107">
        <ele>334</ele>
        <time>2020-08-24T08:31:51Z</time>
      </trkpt>
      <trkpt lat="47.65566" lon="6.25105">
        <ele>334</ele>
        <time>2020-08-24T08:31:52Z</time>
      </trkpt>
      <trkpt lat="47.6556" lon="6.25106">
        <ele>334</ele>
        <time>2020-08-24T08:31:53Z</time>
      </trkpt>
      <trkpt lat="47.65555" lon="6.25111">
        <ele>334</ele>
        <time>2020-08-24T08:31:54Z</time>
      </trkpt>
      <trkpt lat="47.65551" lon="6.25118">
        <ele>334</ele>
        <time>2020-08-24T08:31:55Z</time>
      </trkpt>
      <trkpt lat="47.65547" lon="6.25127">
        <ele>333</ele>
        <time>2020-08-24T08:31:56Z</time>
      </trkpt>
      <trkpt lat="47.65543" lon="6.25137">
        <ele>333</ele>
        <time>2020-08-24T08:31:57Z</time>
      </trkpt>
      <trkpt lat="47.65539" lon="6.25147">
        <ele>333</ele>
        <time>2020-08-24T08:31:58Z</time>
      </trkpt>
      <trkpt lat="47.65535" lon="6.25159">
        <ele>333</ele>
        <time>2020-08-24T08:31:59Z</time>
      </trkpt>
      <trkpt lat="47.65531" lon="6.2517">
        <ele>331</ele>
        <time>2020-08-24T08:32:00Z</time>
      </trkpt>
      <trkpt lat="47.65527" lon="6.2518">
        <ele>330</ele>
        <time>2020-08-24T08:32:01Z</time>
      </trkpt>
      <trkpt lat="47.65524" lon="6.2519">
        <ele>330</ele>
        <time>2020-08-24T08:32:02Z</time>
      </trkpt>
      <trkpt lat="47.6552" lon="6.25199">
        <ele>330</ele>
        <time>2020-08-24T08:32:03Z</time>
      </trkpt>
      <trkpt lat="47.65517" lon="6.25207">
        <ele>329</ele>
        <time>2020-08-24T08:32:04Z</time>
      </trkpt>
      <trkpt lat="47.65514" lon="6.25214">
        <ele>329</ele>
        <time>2020-08-24T08:32:05Z</time>
      </trkpt>
      <trkpt lat="47.65511" lon="6.2522">
        <ele>329</ele>
        <time>2020-08-24T08:32:06Z</time>
      </trkpt>
      <trkpt lat="47.65508" lon="6.25226">
        <ele>328</ele>
        <time>2020-08-24T08:32:07Z</time>
      </trkpt>
      <trkpt lat="47.65506" lon="6.25232">
        <ele>327</ele>
        <time>2020-08-24T08:32:08Z</time>
      </trkpt>
      <trkpt lat="47.65501" lon="6.25242">
        <ele>326</ele>
        <time>2020-08-24T08:32:10Z</time>
      </trkpt>
      <trkpt lat="47.65494" lon="6.25245">
        <ele>324</ele>
        <time>2020-08-24T08:32:12Z</time>
      </trkpt>
      <trkpt lat="47.65486" lon="6.2524">
        <ele>324</ele>
        <time>2020-08-24T08:32:14Z</time>
      </trkpt>
      <trkpt lat="47.65482" lon="6.25234">
        <ele>324</ele>
        <time>2020-08-24T08:32:15Z</time>
      </trkpt>
      <trkpt lat="47.65479" lon="6.25229">
        <ele>324</ele>
        <time>2020-08-24T08:32:16Z</time>
      </trkpt>
      <trkpt lat="47.65475" lon="6.25223">
        <ele>325</ele>
        <time>2020-08-24T08:32:17Z</time>
      </trkpt>
      <trkpt lat="47.65472" lon="6.25217">
        <ele>325</ele>
        <time>2020-08-24T08:32:18Z</time>
      </trkpt>
      <trkpt lat="47.65468" lon="6.25212">
        <ele>325</ele>
        <time>2020-08-24T08:32:19Z</time>
      </trkpt>
      <trkpt lat="47.65464" lon="6.25207">
        <ele>325</ele>
        <time>2020-08-24T08:32:20Z</time>
      </trkpt>
      <trkpt lat="47.6546" lon="6.25202">
        <ele>325</ele>
        <time>2020-08-24T08:32:21Z</time>
      </trkpt>
      <trkpt lat="47.65457" lon="6.25198">
        <ele>325</ele>
        <time>2020-08-24T08:32:22Z</time>
      </trkpt>
      <trkpt lat="47.65453" lon="6.25193">
        <ele>325</ele>
        <time>2020-08-24T08:32:23Z</time>
      </trkpt>
      <trkpt lat="47.65448" lon="6.25188">
        <ele>325</ele>
        <time>2020-08-24T08:32:24Z</time>
      </trkpt>
      <trkpt lat="47.65444" lon="6.25183">
        <ele>324</ele>
        <time>2020-08-24T08:32:25Z</time>
      </trkpt>
      <trkpt lat="47.6544" lon="6.25178">
        <ele>324</ele>
        <time>2020-08-24T08:32:26Z</time>
      </trkpt>
      <trkpt lat="47.65435" lon="6.25174">
        <ele>324</ele>
        <time>2020-08-24T08:32:27Z</time>
      </trkpt>
      <trkpt lat="47.65431" lon="6.25169">
        <ele>324</ele>
        <time>2020-08-24T08:32:28Z</time>
      </trkpt>
      <trkpt lat="47.65427" lon="6.25164">
        <ele>325</ele>
        <time>2020-08-24T08:32:29Z</time>
      </trkpt>
      <trkpt lat="47.65423" lon="6.25159">
        <ele>325</ele>
        <time>2020-08-24T08:32:30Z</time>
      </trkpt>
      <trkpt lat="47.65419" lon="6.25154">
        <ele>325</ele>
        <time>2020-08-24T08:32:31Z</time>
      </trkpt>
      <trkpt lat="47.65415" lon="6.2515">
        <ele>323</ele>
        <time>2020-08-24T08:32:32Z</time>
      </trkpt>
      <trkpt lat="47.6541" lon="6.25145">
        <ele>323</ele>
        <time>2020-08-24T08:32:33Z</time>
      </trkpt>
      <trkpt lat="47.65406" lon="6.2514">
        <ele>323</ele>
        <time>2020-08-24T08:32:34Z</time>
      </trkpt>
      <trkpt lat="47.65401" lon="6.25134">
        <ele>323</ele>
        <time>2020-08-24T08:32:35Z</time>
      </trkpt>
      <trkpt lat="47.65397" lon="6.25129">
        <ele>323</ele>
        <time>2020-08-24T08:32:36Z</time>
      </trkpt>
      <trkpt lat="47.65393" lon="6.25124">
        <ele>323</ele>
        <time>2020-08-24T08:32:37Z</time>
      </trkpt>
      <trkpt lat="47.65389" lon="6.2512">
        <ele>323</ele>
        <time>2020-08-24T08:32:38Z</time>
      </trkpt>
      <trkpt lat="47.65384" lon="6.25115">
        <ele>323</ele>
        <time>2020-08-24T08:32:39Z</time>
      </trkpt>
      <trkpt lat="47.6538" lon="6.2511">
        <ele>323</ele>
        <time>2020-08-24T08:32:40Z</time>
      </trkpt>
      <trkpt lat="47.65377" lon="6.25106">
        <ele>323</ele>
        <time>2020-08-24T08:32:41Z</time>
      </trkpt>
      <trkpt lat="47.65373" lon="6.25102">
        <ele>323</ele>
        <time>2020-08-24T08:32:42Z</time>
      </trkpt>
      <trkpt lat="47.65367" lon="6.25095">
        <ele>323</ele>
        <time>2020-08-24T08:32:44Z</time>
      </trkpt>
      <trkpt lat="47.65361" lon="6.25088">
        <ele>323</ele>
        <time>2020-08-24T08:32:46Z</time>
      </trkpt>
      <trkpt lat="47.65354" lon="6.25081">
        <ele>325</ele>
        <time>2020-08-24T08:32:48Z</time>
      </trkpt>
      <trkpt lat="47.65349" lon="6.25075">
        <ele>325</ele>
        <time>2020-08-24T08:32:50Z</time>
      </trkpt>
      <trkpt lat="47.65344" lon="6.25071">
        <ele>325</ele>
        <time>2020-08-24T08:32:57Z</time>
      </trkpt>
      <trkpt lat="47.6534" lon="6.25066">
        <ele>325</ele>
        <time>2020-08-24T08:32:58Z</time>
      </trkpt>
      <trkpt lat="47.65335" lon="6.25058">
        <ele>326</ele>
        <time>2020-08-24T08:33:00Z</time>
      </trkpt>
      <trkpt lat="47.65327" lon="6.2505">
        <ele>324</ele>
        <time>2020-08-24T08:33:02Z</time>
      </trkpt>
      <trkpt lat="47.65322" lon="6.25043">
        <ele>324</ele>
        <time>2020-08-24T08:33:04Z</time>
      </trkpt>
      <trkpt lat="47.65313" lon="6.25034">
        <ele>324</ele>
        <time>2020-08-24T08:33:07Z</time>
      </trkpt>
      <trkpt lat="47.65309" lon="6.25029">
        <ele>325</ele>
        <time>2020-08-24T08:33:09Z</time>
      </trkpt>
      <trkpt lat="47.65296" lon="6.25014">
        <ele>325</ele>
        <time>2020-08-24T08:33:14Z</time>
      </trkpt>
      <trkpt lat="47.65291" lon="6.25009">
        <ele>325</ele>
        <time>2020-08-24T08:33:16Z</time>
      </trkpt>
      <trkpt lat="47.65286" lon="6.25003">
        <ele>325</ele>
        <time>2020-08-24T08:33:18Z</time>
      </trkpt>
      <trkpt lat="47.65283" lon="6.24998">
        <ele>327</ele>
        <time>2020-08-24T08:33:20Z</time>
      </trkpt>
      <trkpt lat="47.65273" lon="6.24988">
        <ele>327</ele>
        <time>2020-08-24T08:33:25Z</time>
      </trkpt>
      <trkpt lat="47.65261" lon="6.24972">
        <ele>327</ele>
        <time>2020-08-24T08:33:32Z</time>
      </trkpt>
      <trkpt lat="47.65251" lon="6.2496">
        <ele>327</ele>
        <time>2020-08-24T08:33:37Z</time>
      </trkpt>
      <trkpt lat="47.65241" lon="6.24949">
        <ele>325</ele>
        <time>2020-08-24T08:33:41Z</time>
      </trkpt>
      <trkpt lat="47.65237" lon="6.24945">
        <ele>325</ele>
        <time>2020-08-24T08:33:43Z</time>
      </trkpt>
      <trkpt lat="47.65222" lon="6.24927">
        <ele>325</ele>
        <time>2020-08-24T08:33:49Z</time>
      </trkpt>
      <trkpt lat="47.65218" lon="6.24923">
        <ele>325</ele>
        <time>2020-08-24T08:33:50Z</time>
      </trkpt>
      <trkpt lat="47.65213" lon="6.24918">
        <ele>324</ele>
        <time>2020-08-24T08:33:52Z</time>
      </trkpt>
      <trkpt lat="47.65206" lon="6.2491">
        <ele>325</ele>
        <time>2020-08-24T08:33:54Z</time>
      </trkpt>
      <trkpt lat="47.652" lon="6.24903">
        <ele>324</ele>
        <time>2020-08-24T08:33:56Z</time>
      </trkpt>
      <trkpt lat="47.65195" lon="6.24893">
        <ele>324</ele>
        <time>2020-08-24T08:33:58Z</time>
      </trkpt>
      <trkpt lat="47.65197" lon="6.24872">
        <ele>325</ele>
        <time>2020-08-24T08:34:02Z</time>
      </trkpt>
      <trkpt lat="47.65202" lon="6.24865">
        <ele>325</ele>
        <time>2020-08-24T08:34:04Z</time>
      </trkpt>
      <trkpt lat="47.65206" lon="6.24859">
        <ele>325</ele>
        <time>2020-08-24T08:34:06Z</time>
      </trkpt>
      <trkpt lat="47.65213" lon="6.24852">
        <ele>325</ele>
        <time>2020-08-24T08:34:09Z</time>
      </trkpt>
      <trkpt lat="47.65218" lon="6.24849">
        <ele>326</ele>
        <time>2020-08-24T08:34:12Z</time>
      </trkpt>
      <trkpt lat="47.65223" lon="6.24844">
        <ele>326</ele>
        <time>2020-08-24T08:34:14Z</time>
      </trkpt>
      <trkpt lat="47.65227" lon="6.2484">
        <ele>326</ele>
        <time>2020-08-24T08:34:17Z</time>
      </trkpt>
      <trkpt lat="47.65231" lon="6.24835">
        <ele>327</ele>
        <time>2020-08-24T08:34:20Z</time>
      </trkpt>
      <trkpt lat="47.65242" lon="6.24819">
        <ele>328</ele>
        <time>2020-08-24T08:34:22Z</time>
      </trkpt>
      <trkpt lat="47.65246" lon="6.24813">
        <ele>328</ele>
        <time>2020-08-24T08:34:28Z</time>
      </trkpt>
      <trkpt lat="47.65251" lon="6.24806">
        <ele>331</ele>
        <time>2020-08-24T08:34:30Z</time>
      </trkpt>
      <trkpt lat="47.65261" lon="6.2479">
        <ele>331</ele>
        <time>2020-08-24T08:34:35Z</time>
      </trkpt>
      <trkpt lat="47.65264" lon="6.24785">
        <ele>331</ele>
        <time>2020-08-24T08:34:37Z</time>
      </trkpt>
      <trkpt lat="47.65267" lon="6.2478">
        <ele>331</ele>
        <time>2020-08-24T08:34:39Z</time>
      </trkpt>
      <trkpt lat="47.65271" lon="6.24774">
        <ele>331</ele>
        <time>2020-08-24T08:34:41Z</time>
      </trkpt>
      <trkpt lat="47.65282" lon="6.24756">
        <ele>331</ele>
        <time>2020-08-24T08:34:44Z</time>
      </trkpt>
      <trkpt lat="47.65285" lon="6.24751">
        <ele>331</ele>
        <time>2020-08-24T08:34:47Z</time>
      </trkpt>
      <trkpt lat="47.65289" lon="6.24747">
        <ele>332</ele>
        <time>2020-08-24T08:35:34Z</time>
      </trkpt>
      <trkpt lat="47.65294" lon="6.2474">
        <ele>332</ele>
        <time>2020-08-24T08:35:36Z</time>
      </trkpt>
      <trkpt lat="47.65298" lon="6.24733">
        <ele>332</ele>
        <time>2020-08-24T08:35:48Z</time>
      </trkpt>
      <trkpt lat="47.65302" lon="6.24728">
        <ele>332</ele>
        <time>2020-08-24T08:35:50Z</time>
      </trkpt>
      <trkpt lat="47.65306" lon="6.24721">
        <ele>332</ele>
        <time>2020-08-24T08:35:52Z</time>
      </trkpt>
      <trkpt lat="47.65313" lon="6.2471">
        <ele>333</ele>
        <time>2020-08-24T08:35:55Z</time>
      </trkpt>
      <trkpt lat="47.65317" lon="6.24702">
        <ele>333</ele>
        <time>2020-08-24T08:35:57Z</time>
      </trkpt>
      <trkpt lat="47.65319" lon="6.24695">
        <ele>333</ele>
        <time>2020-08-24T08:35:59Z</time>
      </trkpt>
      <trkpt lat="47.65322" lon="6.24687">
        <ele>333</ele>
        <time>2020-08-24T08:36:01Z</time>
      </trkpt>
      <trkpt lat="47.65323" lon="6.24679">
        <ele>334</ele>
        <time>2020-08-24T08:36:03Z</time>
      </trkpt>
      <trkpt lat="47.65324" lon="6.24668">
        <ele>335</ele>
        <time>2020-08-24T08:36:05Z</time>
      </trkpt>
      <trkpt lat="47.65326" lon="6.24662">
        <ele>335</ele>
        <time>2020-08-24T08:36:07Z</time>
      </trkpt>
      <trkpt lat="47.65328" lon="6.24649">
        <ele>334</ele>
        <time>2020-08-24T08:36:09Z</time>
      </trkpt>
      <trkpt lat="47.65329" lon="6.2464">
        <ele>333</ele>
        <time>2020-08-24T08:36:11Z</time>
      </trkpt>
      <trkpt lat="47.65331" lon="6.2463">
        <ele>333</ele>
        <time>2020-08-24T08:36:13Z</time>
      </trkpt>
      <trkpt lat="47.65331" lon="6.24621">
        <ele>333</ele>
        <time>2020-08-24T08:36:15Z</time>
      </trkpt>
      <trkpt lat="47.65331" lon="6.24603">
        <ele>334</ele>
        <time>2020-08-24T08:36:20Z</time>
      </trkpt>
      <trkpt lat="47.6533" lon="6.24593">
        <ele>335</ele>
        <time>2020-08-24T08:36:22Z</time>
      </trkpt>
      <trkpt lat="47.6533" lon="6.24584">
        <ele>336</ele>
        <time>2020-08-24T08:36:24Z</time>
      </trkpt>
      <trkpt lat="47.65327" lon="6.24569">
        <ele>335</ele>
        <time>2020-08-24T08:36:27Z</time>
      </trkpt>
      <trkpt lat="47.65326" lon="6.24562">
        <ele>335</ele>
        <time>2020-08-24T08:36:28Z</time>
      </trkpt>
      <trkpt lat="47.65324" lon="6.24555">
        <ele>335</ele>
        <time>2020-08-24T08:36:29Z</time>
      </trkpt>
      <trkpt lat="47.6531" lon="6.24514">
        <ele>336</ele>
        <time>2020-08-24T08:36:29Z</time>
      </trkpt>
      <trkpt lat="47.65308" lon="6.24508">
        <ele>336</ele>
        <time>2020-08-24T08:36:30Z</time>
      </trkpt>
      <trkpt lat="47.65305" lon="6.24502">
        <ele>335</ele>
        <time>2020-08-24T08:36:31Z</time>
      </trkpt>
      <trkpt lat="47.65303" lon="6.24496">
        <ele>337</ele>
        <time>2020-08-24T08:36:32Z</time>
      </trkpt>
      <trkpt lat="47.653" lon="6.2449">
        <ele>337</ele>
        <time>2020-08-24T08:36:33Z</time>
      </trkpt>
      <trkpt lat="47.65296" lon="6.24482">
        <ele>337</ele>
        <time>2020-08-24T08:36:41Z</time>
      </trkpt>
      <trkpt lat="47.65292" lon="6.24474">
        <ele>336</ele>
        <time>2020-08-24T08:36:42Z</time>
      </trkpt>
      <trkpt lat="47.65284" lon="6.24462">
        <ele>336</ele>
        <time>2020-08-24T08:36:45Z</time>
      </trkpt>
      <trkpt lat="47.65281" lon="6.24456">
        <ele>336</ele>
        <time>2020-08-24T08:36:46Z</time>
      </trkpt>
      <trkpt lat="47.65276" lon="6.24449">
        <ele>336</ele>
        <time>2020-08-24T08:36:48Z</time>
      </trkpt>
      <trkpt lat="47.65267" lon="6.24433">
        <ele>335</ele>
        <time>2020-08-24T08:36:52Z</time>
      </trkpt>
      <trkpt lat="47.65263" lon="6.24426">
        <ele>334</ele>
        <time>2020-08-24T08:36:54Z</time>
      </trkpt>
      <trkpt lat="47.6526" lon="6.2442">
        <ele>334</ele>
        <time>2020-08-24T08:36:56Z</time>
      </trkpt>
      <trkpt lat="47.65257" lon="6.24414">
        <ele>334</ele>
        <time>2020-08-24T08:36:58Z</time>
      </trkpt>
      <trkpt lat="47.65254" lon="6.24407">
        <ele>335</ele>
        <time>2020-08-24T08:37:00Z</time>
      </trkpt>
      <trkpt lat="47.65251" lon="6.24401">
        <ele>336</ele>
        <time>2020-08-24T08:37:02Z</time>
      </trkpt>
      <trkpt lat="47.65249" lon="6.24395">
        <ele>333</ele>
        <time>2020-08-24T08:37:04Z</time>
      </trkpt>
      <trkpt lat="47.65244" lon="6.24382">
        <ele>333</ele>
        <time>2020-08-24T08:37:09Z</time>
      </trkpt>
      <trkpt lat="47.65241" lon="6.24375">
        <ele>334</ele>
        <time>2020-08-24T08:37:11Z</time>
      </trkpt>
      <trkpt lat="47.65237" lon="6.24358">
        <ele>334</ele>
        <time>2020-08-24T08:37:18Z</time>
      </trkpt>
      <trkpt lat="47.65231" lon="6.24343">
        <ele>335</ele>
        <time>2020-08-24T08:37:24Z</time>
      </trkpt>
      <trkpt lat="47.6523" lon="6.24333">
        <ele>335</ele>
        <time>2020-08-24T08:37:27Z</time>
      </trkpt>
      <trkpt lat="47.65228" lon="6.24324">
        <ele>337</ele>
        <time>2020-08-24T08:37:30Z</time>
      </trkpt>
      <trkpt lat="47.65227" lon="6.24317">
        <ele>337</ele>
        <time>2020-08-24T08:37:32Z</time>
      </trkpt>
      <trkpt lat="47.65226" lon="6.24308">
        <ele>337</ele>
        <time>2020-08-24T08:37:35Z</time>
      </trkpt>
      <trkpt lat="47.65225" lon="6.2429">
        <ele>337</ele>
        <time>2020-08-24T08:37:41Z</time>
      </trkpt>
      <trkpt lat="47.65225" lon="6.2427">
        <ele>337</ele>
        <time>2020-08-24T08:37:41Z</time>
      </trkpt>
      <trkpt lat="47.65225" lon="6.2426">
        <ele>337</ele>
        <time>2020-08-24T08:37:49Z</time>
      </trkpt>
      <trkpt lat="47.65228" lon="6.24232">
        <ele>336</ele>
        <time>2020-08-24T08:37:55Z</time>
      </trkpt>
      <trkpt lat="47.65229" lon="6.24221">
        <ele>336</ele>
        <time>2020-08-24T08:37:57Z</time>
      </trkpt>
      <trkpt lat="47.65229" lon="6.24212">
        <ele>336</ele>
        <time>2020-08-24T08:37:58Z</time>
      </trkpt>
      <trkpt lat="47.6523" lon="6.24205">
        <ele>335</ele>
        <time>2020-08-24T08:37:59Z</time>
      </trkpt>
      <trkpt lat="47.65226" lon="6.24178">
        <ele>335</ele>
        <time>2020-08-24T08:38:03Z</time>
      </trkpt>
      <trkpt lat="47.65224" lon="6.24169">
        <ele>335</ele>
        <time>2020-08-24T08:38:04Z</time>
      </trkpt>
      <trkpt lat="47.65221" lon="6.24159">
        <ele>332</ele>
        <time>2020-08-24T08:38:06Z</time>
      </trkpt>
      <trkpt lat="47.6522" lon="6.24151">
        <ele>332</ele>
        <time>2020-08-24T08:38:07Z</time>
      </trkpt>
      <trkpt lat="47.65217" lon="6.24145">
        <ele>332</ele>
        <time>2020-08-24T08:38:08Z</time>
      </trkpt>
      <trkpt lat="47.65213" lon="6.24136">
        <ele>332</ele>
        <time>2020-08-24T08:38:10Z</time>
      </trkpt>
      <trkpt lat="47.65206" lon="6.24129">
        <ele>331</ele>
        <time>2020-08-24T08:38:13Z</time>
      </trkpt>
      <trkpt lat="47.652" lon="6.2413">
        <ele>332</ele>
        <time>2020-08-24T08:38:15Z</time>
      </trkpt>
      <trkpt lat="47.65198" lon="6.24135">
        <ele>332</ele>
        <time>2020-08-24T08:38:17Z</time>
      </trkpt>
      <trkpt lat="47.65191" lon="6.24147">
        <ele>333</ele>
        <time>2020-08-24T08:38:23Z</time>
      </trkpt>
      <trkpt lat="47.65185" lon="6.24163">
        <ele>334</ele>
        <time>2020-08-24T08:38:24Z</time>
      </trkpt>
      <trkpt lat="47.65182" lon="6.24171">
        <ele>336</ele>
        <time>2020-08-24T08:38:27Z</time>
      </trkpt>
      <trkpt lat="47.65178" lon="6.24179">
        <ele>336</ele>
        <time>2020-08-24T08:38:30Z</time>
      </trkpt>
      <trkpt lat="47.65175" lon="6.24185">
        <ele>336</ele>
        <time>2020-08-24T08:38:38Z</time>
      </trkpt>
      <trkpt lat="47.65172" lon="6.2419">
        <ele>336</ele>
        <time>2020-08-24T08:38:40Z</time>
      </trkpt>
      <trkpt lat="47.65169" lon="6.24196">
        <ele>336</ele>
        <time>2020-08-24T08:38:43Z</time>
      </trkpt>
      <trkpt lat="47.65166" lon="6.24204">
        <ele>338</ele>
        <time>2020-08-24T08:38:47Z</time>
      </trkpt>
      <trkpt lat="47.65163" lon="6.2421">
        <ele>339</ele>
        <time>2020-08-24T08:38:50Z</time>
      </trkpt>
      <trkpt lat="47.6516" lon="6.24216">
        <ele>339</ele>
        <time>2020-08-24T08:38:53Z</time>
      </trkpt>
      <trkpt lat="47.65156" lon="6.24224">
        <ele>339</ele>
        <time>2020-08-24T08:38:57Z</time>
      </trkpt>
      <trkpt lat="47.6515" lon="6.24237">
        <ele>339</ele>
        <time>2020-08-24T08:39:03Z</time>
      </trkpt>
      <trkpt lat="47.65145" lon="6.24249">
        <ele>339</ele>
        <time>2020-08-24T08:39:09Z</time>
      </trkpt>
      <trkpt lat="47.65138" lon="6.24263">
        <ele>339</ele>
        <time>2020-08-24T08:39:10Z</time>
      </trkpt>
      <trkpt lat="47.65136" lon="6.2427">
        <ele>339</ele>
        <time>2020-08-24T08:39:18Z</time>
      </trkpt>
      <trkpt lat="47.65132" lon="6.24277">
        <ele>339</ele>
        <time>2020-08-24T08:39:21Z</time>
      </trkpt>
      <trkpt lat="47.6513" lon="6.24284">
        <ele>339</ele>
        <time>2020-08-24T08:39:24Z</time>
      </trkpt>
      <trkpt lat="47.65125" lon="6.243">
        <ele>339</ele>
        <time>2020-08-24T08:39:26Z</time>
      </trkpt>
      <trkpt lat="47.65121" lon="6.24305">
        <ele>339</ele>
        <time>2020-08-24T08:39:29Z</time>
      </trkpt>
      <trkpt lat="47.65118" lon="6.24311">
        <ele>339</ele>
        <time>2020-08-24T08:39:32Z</time>
      </trkpt>
      <trkpt lat="47.65116" lon="6.24318">
        <ele>339</ele>
        <time>2020-08-24T08:39:35Z</time>
      </trkpt>
      <trkpt lat="47.65116" lon="6.24326">
        <ele>338</ele>
        <time>2020-08-24T08:39:43Z</time>
      </trkpt>
      <trkpt lat="47.65113" lon="6.24332">
        <ele>338</ele>
        <time>2020-08-24T08:39:46Z</time>
      </trkpt>
      <trkpt lat="47.65107" lon="6.24331">
        <ele>338</ele>
        <time>2020-08-24T08:39:49Z</time>
      </trkpt>
      <trkpt lat="47.65102" lon="6.24327">
        <ele>338</ele>
        <time>2020-08-24T08:39:51Z</time>
      </trkpt>
      <trkpt lat="47.65096" lon="6.24316">
        <ele>339</ele>
        <time>2020-08-24T08:39:52Z</time>
      </trkpt>
      <trkpt lat="47.65095" lon="6.24307">
        <ele>339</ele>
        <time>2020-08-24T08:40:00Z</time>
      </trkpt>
      <trkpt lat="47.65095" lon="6.24301">
        <ele>339</ele>
        <time>2020-08-24T08:40:03Z</time>
      </trkpt>
      <trkpt lat="47.65095" lon="6.24294">
        <ele>339</ele>
        <time>2020-08-24T08:40:05Z</time>
      </trkpt>
      <trkpt lat="47.65095" lon="6.24285">
        <ele>340</ele>
        <time>2020-08-24T08:40:08Z</time>
      </trkpt>
      <trkpt lat="47.65093" lon="6.24277">
        <ele>340</ele>
        <time>2020-08-24T08:40:11Z</time>
      </trkpt>
      <trkpt lat="47.65094" lon="6.24269">
        <ele>340</ele>
        <time>2020-08-24T08:40:15Z</time>
      </trkpt>
      <trkpt lat="47.65095" lon="6.24262">
        <ele>341</ele>
        <time>2020-08-24T08:40:18Z</time>
      </trkpt>
      <trkpt lat="47.65094" lon="6.24254">
        <ele>341</ele>
        <time>2020-08-24T08:40:21Z</time>
      </trkpt>
      <trkpt lat="47.6509" lon="6.24249">
        <ele>341</ele>
        <time>2020-08-24T08:40:25Z</time>
      </trkpt>
      <trkpt lat="47.65094" lon="6.24245">
        <ele>341</ele>
        <time>2020-08-24T08:41:16Z</time>
      </trkpt>
      <trkpt lat="47.65095" lon="6.24238">
        <ele>340</ele>
        <time>2020-08-24T08:41:20Z</time>
      </trkpt>
      <trkpt lat="47.65099" lon="6.24231">
        <ele>340</ele>
        <time>2020-08-24T08:41:26Z</time>
      </trkpt>
      <trkpt lat="47.65102" lon="6.24226">
        <ele>340</ele>
        <time>2020-08-24T08:41:34Z</time>
      </trkpt>
      <trkpt lat="47.65106" lon="6.24221">
        <ele>339</ele>
        <time>2020-08-24T08:41:37Z</time>
      </trkpt>
      <trkpt lat="47.65111" lon="6.24214">
        <ele>339</ele>
        <time>2020-08-24T08:41:39Z</time>
      </trkpt>
      <trkpt lat="47.65127" lon="6.24197">
        <ele>338</ele>
        <time>2020-08-24T08:41:41Z</time>
      </trkpt>
      <trkpt lat="47.65134" lon="6.24192">
        <ele>338</ele>
        <time>2020-08-24T08:41:42Z</time>
      </trkpt>
      <trkpt lat="47.65141" lon="6.24188">
        <ele>338</ele>
        <time>2020-08-24T08:41:43Z</time>
      </trkpt>
      <trkpt lat="47.65153" lon="6.24176">
        <ele>337</ele>
        <time>2020-08-24T08:41:47Z</time>
      </trkpt>
      <trkpt lat="47.65157" lon="6.24172">
        <ele>337</ele>
        <time>2020-08-24T08:41:48Z</time>
      </trkpt>
      <trkpt lat="47.65162" lon="6.24163">
        <ele>335</ele>
        <time>2020-08-24T08:41:50Z</time>
      </trkpt>
      <trkpt lat="47.65171" lon="6.24151">
        <ele>334</ele>
        <time>2020-08-24T08:41:51Z</time>
      </trkpt>
      <trkpt lat="47.65177" lon="6.24143">
        <ele>333</ele>
        <time>2020-08-24T08:41:52Z</time>
      </trkpt>
      <trkpt lat="47.65183" lon="6.24136">
        <ele>332</ele>
        <time>2020-08-24T08:41:53Z</time>
      </trkpt>
      <trkpt lat="47.65189" lon="6.2413">
        <ele>332</ele>
        <time>2020-08-24T08:41:54Z</time>
      </trkpt>
      <trkpt lat="47.65194" lon="6.24124">
        <ele>331</ele>
        <time>2020-08-24T08:41:55Z</time>
      </trkpt>
      <trkpt lat="47.65205" lon="6.24113">
        <ele>331</ele>
        <time>2020-08-24T08:41:57Z</time>
      </trkpt>
      <trkpt lat="47.65211" lon="6.24106">
        <ele>331</ele>
        <time>2020-08-24T08:41:59Z</time>
      </trkpt>
      <trkpt lat="47.65218" lon="6.24099">
        <ele>330</ele>
        <time>2020-08-24T08:42:01Z</time>
      </trkpt>
      <trkpt lat="47.65224" lon="6.24094">
        <ele>330</ele>
        <time>2020-08-24T08:42:03Z</time>
      </trkpt>
      <trkpt lat="47.65258" lon="6.24069">
        <ele>325</ele>
        <time>2020-08-24T08:42:03Z</time>
      </trkpt>
      <trkpt lat="47.65263" lon="6.24067">
        <ele>325</ele>
        <time>2020-08-24T08:42:04Z</time>
      </trkpt>
      <trkpt lat="47.65268" lon="6.24064">
        <ele>325</ele>
        <time>2020-08-24T08:42:05Z</time>
      </trkpt>
      <trkpt lat="47.65273" lon="6.24062">
        <ele>324</ele>
        <time>2020-08-24T08:42:07Z</time>
      </trkpt>
      <trkpt lat="47.65278" lon="6.2406">
        <ele>324</ele>
        <time>2020-08-24T08:42:09Z</time>
      </trkpt>
      <trkpt lat="47.65281" lon="6.24055">
        <ele>324</ele>
        <time>2020-08-24T08:42:16Z</time>
      </trkpt>
      <trkpt lat="47.65286" lon="6.24052">
        <ele>324</ele>
        <time>2020-08-24T08:42:18Z</time>
      </trkpt>
      <trkpt lat="47.6529" lon="6.24049">
        <ele>324</ele>
        <time>2020-08-24T08:42:19Z</time>
      </trkpt>
      <trkpt lat="47.65313" lon="6.24025">
        <ele>322</ele>
        <time>2020-08-24T08:42:19Z</time>
      </trkpt>
      <trkpt lat="47.65318" lon="6.2402">
        <ele>322</ele>
        <time>2020-08-24T08:42:20Z</time>
      </trkpt>
      <trkpt lat="47.65323" lon="6.24014">
        <ele>321</ele>
        <time>2020-08-24T08:42:21Z</time>
      </trkpt>
      <trkpt lat="47.65328" lon="6.24008">
        <ele>320</ele>
        <time>2020-08-24T08:42:22Z</time>
      </trkpt>
      <trkpt lat="47.65334" lon="6.24002">
        <ele>319</ele>
        <time>2020-08-24T08:42:23Z</time>
      </trkpt>
      <trkpt lat="47.6534" lon="6.23996">
        <ele>317</ele>
        <time>2020-08-24T08:42:24Z</time>
      </trkpt>
      <trkpt lat="47.65347" lon="6.2399">
        <ele>317</ele>
        <time>2020-08-24T08:42:25Z</time>
      </trkpt>
      <trkpt lat="47.65353" lon="6.23983">
        <ele>317</ele>
        <time>2020-08-24T08:42:26Z</time>
      </trkpt>
      <trkpt lat="47.6536" lon="6.23977">
        <ele>317</ele>
        <time>2020-08-24T08:42:27Z</time>
      </trkpt>
      <trkpt lat="47.65367" lon="6.2397">
        <ele>316</ele>
        <time>2020-08-24T08:42:28Z</time>
      </trkpt>
      <trkpt lat="47.65374" lon="6.23963">
        <ele>316</ele>
        <time>2020-08-24T08:42:29Z</time>
      </trkpt>
      <trkpt lat="47.6538" lon="6.23956">
        <ele>316</ele>
        <time>2020-08-24T08:42:30Z</time>
      </trkpt>
      <trkpt lat="47.65386" lon="6.23949">
        <ele>316</ele>
        <time>2020-08-24T08:42:31Z</time>
      </trkpt>
      <trkpt lat="47.65392" lon="6.23942">
        <ele>316</ele>
        <time>2020-08-24T08:42:32Z</time>
      </trkpt>
      <trkpt lat="47.65398" lon="6.23934">
        <ele>315</ele>
        <time>2020-08-24T08:42:33Z</time>
      </trkpt>
      <trkpt lat="47.65404" lon="6.23927">
        <ele>315</ele>
        <time>2020-08-24T08:42:34Z</time>
      </trkpt>
      <trkpt lat="47.6541" lon="6.23919">
        <ele>314</ele>
        <time>2020-08-24T08:42:35Z</time>
      </trkpt>
      <trkpt lat="47.65415" lon="6.23912">
        <ele>313</ele>
        <time>2020-08-24T08:42:36Z</time>
      </trkpt>
      <trkpt lat="47.6542" lon="6.23905">
        <ele>315</ele>
        <time>2020-08-24T08:42:37Z</time>
      </trkpt>
      <trkpt lat="47.65426" lon="6.23897">
        <ele>315</ele>
        <time>2020-08-24T08:42:38Z</time>
      </trkpt>
      <trkpt lat="47.6543" lon="6.2389">
        <ele>315</ele>
        <time>2020-08-24T08:42:39Z</time>
      </trkpt>
      <trkpt lat="47.65434" lon="6.23883">
        <ele>315</ele>
        <time>2020-08-24T08:42:40Z</time>
      </trkpt>
      <trkpt lat="47.65439" lon="6.23877">
        <ele>315</ele>
        <time>2020-08-24T08:42:41Z</time>
      </trkpt>
      <trkpt lat="47.65443" lon="6.2387">
        <ele>315</ele>
        <time>2020-08-24T08:42:42Z</time>
      </trkpt>
      <trkpt lat="47.65447" lon="6.23863">
        <ele>315</ele>
        <time>2020-08-24T08:42:43Z</time>
      </trkpt>
      <trkpt lat="47.65452" lon="6.23857">
        <ele>315</ele>
        <time>2020-08-24T08:42:44Z</time>
      </trkpt>
      <trkpt lat="47.65456" lon="6.23851">
        <ele>315</ele>
        <time>2020-08-24T08:42:45Z</time>
      </trkpt>
      <trkpt lat="47.6546" lon="6.23846">
        <ele>315</ele>
        <time>2020-08-24T08:42:46Z</time>
      </trkpt>
      <trkpt lat="47.65464" lon="6.23841">
        <ele>315</ele>
        <time>2020-08-24T08:42:47Z</time>
      </trkpt>
      <trkpt lat="47.65469" lon="6.23834">
        <ele>316</ele>
        <time>2020-08-24T08:42:49Z</time>
      </trkpt>
      <trkpt lat="47.65473" lon="6.23827">
        <ele>312</ele>
        <time>2020-08-24T08:42:51Z</time>
      </trkpt>
      <trkpt lat="47.65477" lon="6.23822">
        <ele>313</ele>
        <time>2020-08-24T08:42:53Z</time>
      </trkpt>
      <trkpt lat="47.65481" lon="6.23817">
        <ele>313</ele>
        <time>2020-08-24T08:42:56Z</time>
      </trkpt>
      <trkpt lat="47.65485" lon="6.2381">
        <ele>313</ele>
        <time>2020-08-24T08:42:59Z</time>
      </trkpt>
      <trkpt lat="47.65489" lon="6.23805">
        <ele>312</ele>
        <time>2020-08-24T08:43:02Z</time>
      </trkpt>
      <trkpt lat="47.65492" lon="6.23799">
        <ele>312</ele>
        <time>2020-08-24T08:43:05Z</time>
      </trkpt>
      <trkpt lat="47.65495" lon="6.23794">
        <ele>312</ele>
        <time>2020-08-24T08:43:13Z</time>
      </trkpt>
      <trkpt lat="47.655" lon="6.23787">
        <ele>312</ele>
        <time>2020-08-24T08:43:16Z</time>
      </trkpt>
      <trkpt lat="47.65506" lon="6.23777">
        <ele>315</ele>
        <time>2020-08-24T08:43:20Z</time>
      </trkpt>
      <trkpt lat="47.65511" lon="6.23773">
        <ele>315</ele>
        <time>2020-08-24T08:43:22Z</time>
      </trkpt>
      <trkpt lat="47.65519" lon="6.23767">
        <ele>315</ele>
        <time>2020-08-24T08:43:25Z</time>
      </trkpt>
      <trkpt lat="47.65525" lon="6.23763">
        <ele>315</ele>
        <time>2020-08-24T08:43:26Z</time>
      </trkpt>
      <trkpt lat="47.65536" lon="6.23753">
        <ele>315</ele>
        <time>2020-08-24T08:43:29Z</time>
      </trkpt>
      <trkpt lat="47.6554" lon="6.23745">
        <ele>313</ele>
        <time>2020-08-24T08:43:31Z</time>
      </trkpt>
      <trkpt lat="47.65551" lon="6.23745">
        <ele>314</ele>
        <time>2020-08-24T08:43:31Z</time>
      </trkpt>
      <trkpt lat="47.65555" lon="6.23745">
        <ele>314</ele>
        <time>2020-08-24T08:44:01Z</time>
      </trkpt>
      <trkpt lat="47.65561" lon="6.23745">
        <ele>314</ele>
        <time>2020-08-24T08:44:05Z</time>
      </trkpt>
      <trkpt lat="47.65567" lon="6.23744">
        <ele>314</ele>
        <time>2020-08-24T08:44:13Z</time>
      </trkpt>
      <trkpt lat="47.65572" lon="6.23743">
        <ele>314</ele>
        <time>2020-08-24T08:44:15Z</time>
      </trkpt>
      <trkpt lat="47.65577" lon="6.23742">
        <ele>314</ele>
        <time>2020-08-24T08:44:16Z</time>
      </trkpt>
      <trkpt lat="47.65598" lon="6.23738">
        <ele>316</ele>
        <time>2020-08-24T08:44:20Z</time>
      </trkpt>
      <trkpt lat="47.65604" lon="6.23736">
        <ele>316</ele>
        <time>2020-08-24T08:44:22Z</time>
      </trkpt>
      <trkpt lat="47.65611" lon="6.23732">
        <ele>316</ele>
        <time>2020-08-24T08:44:24Z</time>
      </trkpt>
      <trkpt lat="47.65615" lon="6.23729">
        <ele>316</ele>
        <time>2020-08-24T08:44:26Z</time>
      </trkpt>
      <trkpt lat="47.65621" lon="6.23728">
        <ele>317</ele>
        <time>2020-08-24T08:44:28Z</time>
      </trkpt>
      <trkpt lat="47.65627" lon="6.23724">
        <ele>317</ele>
        <time>2020-08-24T08:44:30Z</time>
      </trkpt>
      <trkpt lat="47.65631" lon="6.2372">
        <ele>317</ele>
        <time>2020-08-24T08:44:33Z</time>
      </trkpt>
      <trkpt lat="47.65641" lon="6.23711">
        <ele>317</ele>
        <time>2020-08-24T08:44:41Z</time>
      </trkpt>
      <trkpt lat="47.65652" lon="6.23702">
        <ele>318</ele>
        <time>2020-08-24T08:44:44Z</time>
      </trkpt>
      <trkpt lat="47.65658" lon="6.23698">
        <ele>318</ele>
        <time>2020-08-24T08:44:46Z</time>
      </trkpt>
      <trkpt lat="47.65663" lon="6.23695">
        <ele>318</ele>
        <time>2020-08-24T08:44:48Z</time>
      </trkpt>
      <trkpt lat="47.65667" lon="6.23692">
        <ele>323</ele>
        <time>2020-08-24T08:44:56Z</time>
      </trkpt>
      <trkpt lat="47.65671" lon="6.23677">
        <ele>322</ele>
        <time>2020-08-24T08:44:58Z</time>
      </trkpt>
      <trkpt lat="47.65673" lon="6.23671">
        <ele>322</ele>
        <time>2020-08-24T08:45:00Z</time>
      </trkpt>
      <trkpt lat="47.65676" lon="6.23665">
        <ele>321</ele>
        <time>2020-08-24T08:45:02Z</time>
      </trkpt>
      <trkpt lat="47.65678" lon="6.23657">
        <ele>322</ele>
        <time>2020-08-24T08:45:04Z</time>
      </trkpt>
      <trkpt lat="47.6568" lon="6.2365">
        <ele>323</ele>
        <time>2020-08-24T08:45:12Z</time>
      </trkpt>
      <trkpt lat="47.65684" lon="6.23636">
        <ele>323</ele>
        <time>2020-08-24T08:45:18Z</time>
      </trkpt>
      <trkpt lat="47.65686" lon="6.23619">
        <ele>323</ele>
        <time>2020-08-24T08:45:24Z</time>
      </trkpt>
      <trkpt lat="47.65686" lon="6.23612">
        <ele>323</ele>
        <time>2020-08-24T08:45:26Z</time>
      </trkpt>
      <trkpt lat="47.65685" lon="6.23602">
        <ele>322</ele>
        <time>2020-08-24T08:45:28Z</time>
      </trkpt>
      <trkpt lat="47.65681" lon="6.2356">
        <ele>321</ele>
        <time>2020-08-24T08:45:28Z</time>
      </trkpt>
      <trkpt lat="47.65681" lon="6.23548">
        <ele>321</ele>
        <time>2020-08-24T08:45:35Z</time>
      </trkpt>
      <trkpt lat="47.6568" lon="6.23539">
        <ele>321</ele>
        <time>2020-08-24T08:45:37Z</time>
      </trkpt>
      <trkpt lat="47.65678" lon="6.23531">
        <ele>321</ele>
        <time>2020-08-24T08:45:39Z</time>
      </trkpt>
      <trkpt lat="47.65672" lon="6.23509">
        <ele>320</ele>
        <time>2020-08-24T08:45:45Z</time>
      </trkpt>
      <trkpt lat="47.6567" lon="6.23502">
        <ele>319</ele>
        <time>2020-08-24T08:45:47Z</time>
      </trkpt>
      <trkpt lat="47.65668" lon="6.23493">
        <ele>319</ele>
        <time>2020-08-24T08:45:49Z</time>
      </trkpt>
      <trkpt lat="47.65666" lon="6.23487">
        <ele>319</ele>
        <time>2020-08-24T08:45:50Z</time>
      </trkpt>
      <trkpt lat="47.65664" lon="6.2348">
        <ele>319</ele>
        <time>2020-08-24T08:45:51Z</time>
      </trkpt>
      <trkpt lat="47.6566" lon="6.23471">
        <ele>319</ele>
        <time>2020-08-24T08:45:53Z</time>
      </trkpt>
      <trkpt lat="47.65656" lon="6.23462">
        <ele>319</ele>
        <time>2020-08-24T08:45:55Z</time>
      </trkpt>
      <trkpt lat="47.6565" lon="6.23449">
        <ele>319</ele>
        <time>2020-08-24T08:45:58Z</time>
      </trkpt>
      <trkpt lat="47.65646" lon="6.2344">
        <ele>319</ele>
        <time>2020-08-24T08:46:00Z</time>
      </trkpt>
      <trkpt lat="47.65642" lon="6.23432">
        <ele>319</ele>
        <time>2020-08-24T08:46:02Z</time>
      </trkpt>
      <trkpt lat="47.65637" lon="6.2342">
        <ele>319</ele>
        <time>2020-08-24T08:46:05Z</time>
      </trkpt>
      <trkpt lat="47.65632" lon="6.23412">
        <ele>319</ele>
        <time>2020-08-24T08:46:07Z</time>
      </trkpt>
      <trkpt lat="47.65625" lon="6.234">
        <ele>319</ele>
        <time>2020-08-24T08:46:10Z</time>
      </trkpt>
      <trkpt lat="47.6562" lon="6.23391">
        <ele>319</ele>
        <time>2020-08-24T08:46:12Z</time>
      </trkpt>
      <trkpt lat="47.65616" lon="6.23384">
        <ele>319</ele>
        <time>2020-08-24T08:46:14Z</time>
      </trkpt>
      <trkpt lat="47.65613" lon="6.23378">
        <ele>319</ele>
        <time>2020-08-24T08:46:16Z</time>
      </trkpt>
      <trkpt lat="47.6561" lon="6.23372">
        <ele>319</ele>
        <time>2020-08-24T08:46:17Z</time>
      </trkpt>
      <trkpt lat="47.65607" lon="6.23367">
        <ele>319</ele>
        <time>2020-08-24T08:46:18Z</time>
      </trkpt>
      <trkpt lat="47.65604" lon="6.23361">
        <ele>319</ele>
        <time>2020-08-24T08:46:20Z</time>
      </trkpt>
      <trkpt lat="47.65596" lon="6.23346">
        <ele>319</ele>
        <time>2020-08-24T08:46:24Z</time>
      </trkpt>
      <trkpt lat="47.6559" lon="6.23338">
        <ele>319</ele>
        <time>2020-08-24T08:46:26Z</time>
      </trkpt>
      <trkpt lat="47.65585" lon="6.2333">
        <ele>319</ele>
        <time>2020-08-24T08:46:28Z</time>
      </trkpt>
      <trkpt lat="47.65576" lon="6.23319">
        <ele>320</ele>
        <time>2020-08-24T08:46:32Z</time>
      </trkpt>
      <trkpt lat="47.65564" lon="6.23303">
        <ele>320</ele>
        <time>2020-08-24T08:46:32Z</time>
      </trkpt>
      <trkpt lat="47.65559" lon="6.23297">
        <ele>320</ele>
        <time>2020-08-24T08:46:34Z</time>
      </trkpt>
      <trkpt lat="47.65555" lon="6.23291">
        <ele>320</ele>
        <time>2020-08-24T08:46:41Z</time>
      </trkpt>
      <trkpt lat="47.65551" lon="6.23285">
        <ele>320</ele>
        <time>2020-08-24T08:46:43Z</time>
      </trkpt>
      <trkpt lat="47.65548" lon="6.2328">
        <ele>320</ele>
        <time>2020-08-24T08:46:45Z</time>
      </trkpt>
      <trkpt lat="47.65544" lon="6.23274">
        <ele>320</ele>
        <time>2020-08-24T08:46:47Z</time>
      </trkpt>
      <trkpt lat="47.6554" lon="6.2327">
        <ele>320</ele>
        <time>2020-08-24T08:46:49Z</time>
      </trkpt>
      <trkpt lat="47.65535" lon="6.23263">
        <ele>321</ele>
        <time>2020-08-24T08:46:51Z</time>
      </trkpt>
      <trkpt lat="47.6553" lon="6.23258">
        <ele>321</ele>
        <time>2020-08-24T08:46:53Z</time>
      </trkpt>
      <trkpt lat="47.65527" lon="6.23253">
        <ele>321</ele>
        <time>2020-08-24T08:46:55Z</time>
      </trkpt>
      <trkpt lat="47.65521" lon="6.23251">
        <ele>321</ele>
        <time>2020-08-24T08:46:58Z</time>
      </trkpt>
      <trkpt lat="47.65516" lon="6.23254">
        <ele>322</ele>
        <time>2020-08-24T08:47:01Z</time>
      </trkpt>
      <trkpt lat="47.65511" lon="6.23256">
        <ele>322</ele>
        <time>2020-08-24T08:47:04Z</time>
      </trkpt>
      <trkpt lat="47.65505" lon="6.23259">
        <ele>322</ele>
        <time>2020-08-24T08:47:07Z</time>
      </trkpt>
      <trkpt lat="47.65499" lon="6.23261">
        <ele>324</ele>
        <time>2020-08-24T08:47:10Z</time>
      </trkpt>
      <trkpt lat="47.65489" lon="6.23264">
        <ele>324</ele>
        <time>2020-08-24T08:47:14Z</time>
      </trkpt>
      <trkpt lat="47.65482" lon="6.23266">
        <ele>324</ele>
        <time>2020-08-24T08:47:17Z</time>
      </trkpt>
      <trkpt lat="47.65478" lon="6.23268">
        <ele>324</ele>
        <time>2020-08-24T08:47:19Z</time>
      </trkpt>
      <trkpt lat="47.65474" lon="6.2327">
        <ele>324</ele>
        <time>2020-08-24T08:47:21Z</time>
      </trkpt>
      <trkpt lat="47.65461" lon="6.23274">
        <ele>325</ele>
        <time>2020-08-24T08:47:21Z</time>
      </trkpt>
      <trkpt lat="47.65457" lon="6.23276">
        <ele>325</ele>
        <time>2020-08-24T08:47:23Z</time>
      </trkpt>
      <trkpt lat="47.65452" lon="6.23278">
        <ele>325</ele>
        <time>2020-08-24T08:47:31Z</time>
      </trkpt>
      <trkpt lat="47.65441" lon="6.2328">
        <ele>325</ele>
        <time>2020-08-24T08:47:32Z</time>
      </trkpt>
      <trkpt lat="47.65436" lon="6.23281">
        <ele>325</ele>
        <time>2020-08-24T08:47:40Z</time>
      </trkpt>
      <trkpt lat="47.65431" lon="6.23282">
        <ele>325</ele>
        <time>2020-08-24T08:47:43Z</time>
      </trkpt>
      <trkpt lat="47.65425" lon="6.23281">
        <ele>325</ele>
        <time>2020-08-24T08:47:46Z</time>
      </trkpt>
      <trkpt lat="47.65414" lon="6.23278">
        <ele>324</ele>
        <time>2020-08-24T08:47:50Z</time>
      </trkpt>
      <trkpt lat="47.65408" lon="6.23274">
        <ele>323</ele>
        <time>2020-08-24T08:47:52Z</time>
      </trkpt>
      <trkpt lat="47.65398" lon="6.23266">
        <ele>323</ele>
        <time>2020-08-24T08:47:55Z</time>
      </trkpt>
      <trkpt lat="47.65393" lon="6.23262">
        <ele>323</ele>
        <time>2020-08-24T08:47:56Z</time>
      </trkpt>
      <trkpt lat="47.65387" lon="6.23259">
        <ele>323</ele>
        <time>2020-08-24T08:47:57Z</time>
      </trkpt>
      <trkpt lat="47.65374" lon="6.23252">
        <ele>323</ele>
        <time>2020-08-24T08:48:00Z</time>
      </trkpt>
      <trkpt lat="47.65369" lon="6.2325">
        <ele>322</ele>
        <time>2020-08-24T08:48:01Z</time>
      </trkpt>
      <trkpt lat="47.65361" lon="6.23247">
        <ele>322</ele>
        <time>2020-08-24T08:48:03Z</time>
      </trkpt>
      <trkpt lat="47.65349" lon="6.23239">
        <ele>322</ele>
        <time>2020-08-24T08:48:06Z</time>
      </trkpt>
      <trkpt lat="47.6534" lon="6.23232">
        <ele>322</ele>
        <time>2020-08-24T08:48:08Z</time>
      </trkpt>
      <trkpt lat="47.65335" lon="6.23225">
        <ele>322</ele>
        <time>2020-08-24T08:48:10Z</time>
      </trkpt>
      <trkpt lat="47.65331" lon="6.23219">
        <ele>319</ele>
        <time>2020-08-24T08:48:12Z</time>
      </trkpt>
      <trkpt lat="47.65327" lon="6.23213">
        <ele>319</ele>
        <time>2020-08-24T08:48:13Z</time>
      </trkpt>
      <trkpt lat="47.65323" lon="6.23207">
        <ele>319</ele>
        <time>2020-08-24T08:48:15Z</time>
      </trkpt>
      <trkpt lat="47.65312" lon="6.23194">
        <ele>319</ele>
        <time>2020-08-24T08:48:18Z</time>
      </trkpt>
      <trkpt lat="47.65307" lon="6.23187">
        <ele>319</ele>
        <time>2020-08-24T08:48:19Z</time>
      </trkpt>
      <trkpt lat="47.65303" lon="6.23182">
        <ele>319</ele>
        <time>2020-08-24T08:48:20Z</time>
      </trkpt>
      <trkpt lat="47.65298" lon="6.23177">
        <ele>319</ele>
        <time>2020-08-24T08:48:21Z</time>
      </trkpt>
      <trkpt lat="47.65287" lon="6.23167">
        <ele>322</ele>
        <time>2020-08-24T08:48:24Z</time>
      </trkpt>
      <trkpt lat="47.6528" lon="6.2316">
        <ele>322</ele>
        <time>2020-08-24T08:48:26Z</time>
      </trkpt>
      <trkpt lat="47.65276" lon="6.23156">
        <ele>321</ele>
        <time>2020-08-24T08:48:27Z</time>
      </trkpt>
      <trkpt lat="47.65271" lon="6.23153">
        <ele>321</ele>
        <time>2020-08-24T08:48:28Z</time>
      </trkpt>
      <trkpt lat="47.65265" lon="6.23149">
        <ele>321</ele>
        <time>2020-08-24T08:48:29Z</time>
      </trkpt>
      <trkpt lat="47.65256" lon="6.23145">
        <ele>321</ele>
        <time>2020-08-24T08:48:31Z</time>
      </trkpt>
      <trkpt lat="47.65249" lon="6.23142">
        <ele>318</ele>
        <time>2020-08-24T08:48:33Z</time>
      </trkpt>
      <trkpt lat="47.65237" lon="6.23139">
        <ele>318</ele>
        <time>2020-08-24T08:48:36Z</time>
      </trkpt>
      <trkpt lat="47.65223" lon="6.23137">
        <ele>318</ele>
        <time>2020-08-24T08:48:39Z</time>
      </trkpt>
      <trkpt lat="47.65217" lon="6.23135">
        <ele>318</ele>
        <time>2020-08-24T08:48:40Z</time>
      </trkpt>
      <trkpt lat="47.65211" lon="6.23134">
        <ele>318</ele>
        <time>2020-08-24T08:48:41Z</time>
      </trkpt>
      <trkpt lat="47.65203" lon="6.2313">
        <ele>318</ele>
        <time>2020-08-24T08:48:43Z</time>
      </trkpt>
      <trkpt lat="47.65198" lon="6.23127">
        <ele>317</ele>
        <time>2020-08-24T08:48:44Z</time>
      </trkpt>
      <trkpt lat="47.6519" lon="6.23123">
        <ele>317</ele>
        <time>2020-08-24T08:48:45Z</time>
      </trkpt>
      <trkpt lat="47.65184" lon="6.23118">
        <ele>317</ele>
        <time>2020-08-24T08:48:47Z</time>
      </trkpt>
      <trkpt lat="47.65177" lon="6.23112">
        <ele>317</ele>
        <time>2020-08-24T08:48:48Z</time>
      </trkpt>
      <trkpt lat="47.65161" lon="6.23099">
        <ele>315</ele>
        <time>2020-08-24T08:48:52Z</time>
      </trkpt>
      <trkpt lat="47.65136" lon="6.23074">
        <ele>316</ele>
        <time>2020-08-24T08:48:53Z</time>
      </trkpt>
      <trkpt lat="47.65132" lon="6.2307">
        <ele>316</ele>
        <time>2020-08-24T08:48:54Z</time>
      </trkpt>
      <trkpt lat="47.65128" lon="6.23067">
        <ele>316</ele>
        <time>2020-08-24T08:48:55Z</time>
      </trkpt>
      <trkpt lat="47.65124" lon="6.23062">
        <ele>316</ele>
        <time>2020-08-24T08:48:56Z</time>
      </trkpt>
      <trkpt lat="47.6512" lon="6.23058">
        <ele>316</ele>
        <time>2020-08-24T08:48:57Z</time>
      </trkpt>
      <trkpt lat="47.65115" lon="6.23056">
        <ele>316</ele>
        <time>2020-08-24T08:49:03Z</time>
      </trkpt>
      <trkpt lat="47.65111" lon="6.23051">
        <ele>316</ele>
        <time>2020-08-24T08:49:04Z</time>
      </trkpt>
      <trkpt lat="47.65105" lon="6.23043">
        <ele>316</ele>
        <time>2020-08-24T08:49:06Z</time>
      </trkpt>
      <trkpt lat="47.65093" lon="6.23025">
        <ele>317</ele>
        <time>2020-08-24T08:49:10Z</time>
      </trkpt>
      <trkpt lat="47.6509" lon="6.23021">
        <ele>317</ele>
        <time>2020-08-24T08:49:11Z</time>
      </trkpt>
      <trkpt lat="47.65086" lon="6.23016">
        <ele>317</ele>
        <time>2020-08-24T08:49:12Z</time>
      </trkpt>
      <trkpt lat="47.65083" lon="6.2301">
        <ele>317</ele>
        <time>2020-08-24T08:49:14Z</time>
      </trkpt>
      <trkpt lat="47.65079" lon="6.23004">
        <ele>318</ele>
        <time>2020-08-24T08:49:16Z</time>
      </trkpt>
      <trkpt lat="47.6507" lon="6.22989">
        <ele>320</ele>
        <time>2020-08-24T08:49:21Z</time>
      </trkpt>
      <trkpt lat="47.65068" lon="6.22983">
        <ele>320</ele>
        <time>2020-08-24T08:49:23Z</time>
      </trkpt>
      <trkpt lat="47.65064" lon="6.22976">
        <ele>320</ele>
        <time>2020-08-24T08:49:25Z</time>
      </trkpt>
      <trkpt lat="47.65057" lon="6.22962">
        <ele>321</ele>
        <time>2020-08-24T08:49:30Z</time>
      </trkpt>
      <trkpt lat="47.65055" lon="6.22955">
        <ele>321</ele>
        <time>2020-08-24T08:49:32Z</time>
      </trkpt>
      <trkpt lat="47.6505" lon="6.2294">
        <ele>321</ele>
        <time>2020-08-24T08:49:37Z</time>
      </trkpt>
      <trkpt lat="47.65048" lon="6.22932">
        <ele>322</ele>
        <time>2020-08-24T08:49:39Z</time>
      </trkpt>
      <trkpt lat="47.65045" lon="6.22923">
        <ele>322</ele>
        <time>2020-08-24T08:49:42Z</time>
      </trkpt>
      <trkpt lat="47.65043" lon="6.22916">
        <ele>323</ele>
        <time>2020-08-24T08:49:44Z</time>
      </trkpt>
      <trkpt lat="47.65041" lon="6.22909">
        <ele>323</ele>
        <time>2020-08-24T08:49:46Z</time>
      </trkpt>
      <trkpt lat="47.65036" lon="6.22894">
        <ele>324</ele>
        <time>2020-08-24T08:49:50Z</time>
      </trkpt>
      <trkpt lat="47.65033" lon="6.22887">
        <ele>324</ele>
        <time>2020-08-24T08:49:52Z</time>
      </trkpt>
      <trkpt lat="47.65031" lon="6.2288">
        <ele>324</ele>
        <time>2020-08-24T08:49:54Z</time>
      </trkpt>
      <trkpt lat="47.65026" lon="6.22867">
        <ele>324</ele>
        <time>2020-08-24T08:49:58Z</time>
      </trkpt>
      <trkpt lat="47.65022" lon="6.22852">
        <ele>324</ele>
        <time>2020-08-24T08:50:02Z</time>
      </trkpt>
      <trkpt lat="47.65017" lon="6.22837">
        <ele>323</ele>
        <time>2020-08-24T08:50:06Z</time>
      </trkpt>
      <trkpt lat="47.65012" lon="6.22818">
        <ele>324</ele>
        <time>2020-08-24T08:50:10Z</time>
      </trkpt>
      <trkpt lat="47.65008" lon="6.22804">
        <ele>324</ele>
        <time>2020-08-24T08:50:13Z</time>
      </trkpt>
      <trkpt lat="47.65005" lon="6.22797">
        <ele>324</ele>
        <time>2020-08-24T08:50:14Z</time>
      </trkpt>
      <trkpt lat="47.65003" lon="6.22788">
        <ele>324</ele>
        <time>2020-08-24T08:50:16Z</time>
      </trkpt>
      <trkpt lat="47.65001" lon="6.22781">
        <ele>324</ele>
        <time>2020-08-24T08:50:17Z</time>
      </trkpt>
      <trkpt lat="47.64997" lon="6.22766">
        <ele>321</ele>
        <time>2020-08-24T08:50:20Z</time>
      </trkpt>
      <trkpt lat="47.64993" lon="6.22753">
        <ele>321</ele>
        <time>2020-08-24T08:50:23Z</time>
      </trkpt>
      <trkpt lat="47.64991" lon="6.22744">
        <ele>322</ele>
        <time>2020-08-24T08:50:25Z</time>
      </trkpt>
      <trkpt lat="47.64986" lon="6.22731">
        <ele>321</ele>
        <time>2020-08-24T08:50:28Z</time>
      </trkpt>
      <trkpt lat="47.64983" lon="6.22717">
        <ele>321</ele>
        <time>2020-08-24T08:50:31Z</time>
      </trkpt>
      <trkpt lat="47.6498" lon="6.2271">
        <ele>321</ele>
        <time>2020-08-24T08:50:33Z</time>
      </trkpt>
      <trkpt lat="47.64976" lon="6.2269">
        <ele>322</ele>
        <time>2020-08-24T08:50:39Z</time>
      </trkpt>
      <trkpt lat="47.64972" lon="6.22677">
        <ele>322</ele>
        <time>2020-08-24T08:50:43Z</time>
      </trkpt>
      <trkpt lat="47.6497" lon="6.2267">
        <ele>322</ele>
        <time>2020-08-24T08:50:45Z</time>
      </trkpt>
      <trkpt lat="47.64967" lon="6.22661">
        <ele>323</ele>
        <time>2020-08-24T08:50:47Z</time>
      </trkpt>
      <trkpt lat="47.64965" lon="6.22653">
        <ele>323</ele>
        <time>2020-08-24T08:50:49Z</time>
      </trkpt>
      <trkpt lat="47.64962" lon="6.22645">
        <ele>323</ele>
        <time>2020-08-24T08:50:51Z</time>
      </trkpt>
      <trkpt lat="47.6496" lon="6.22636">
        <ele>323</ele>
        <time>2020-08-24T08:50:53Z</time>
      </trkpt>
      <trkpt lat="47.64959" lon="6.22628">
        <ele>323</ele>
        <time>2020-08-24T08:50:55Z</time>
      </trkpt>
      <trkpt lat="47.6496" lon="6.22621">
        <ele>324</ele>
        <time>2020-08-24T08:50:57Z</time>
      </trkpt>
      <trkpt lat="47.64964" lon="6.22601">
        <ele>324</ele>
        <time>2020-08-24T08:51:03Z</time>
      </trkpt>
      <trkpt lat="47.64971" lon="6.22589">
        <ele>325</ele>
        <time>2020-08-24T08:51:10Z</time>
      </trkpt>
      <trkpt lat="47.64976" lon="6.22584">
        <ele>325</ele>
        <time>2020-08-24T08:51:11Z</time>
      </trkpt>
      <trkpt lat="47.64981" lon="6.22581">
        <ele>326</ele>
        <time>2020-08-24T08:51:15Z</time>
      </trkpt>
      <trkpt lat="47.64985" lon="6.22576">
        <ele>327</ele>
        <time>2020-08-24T08:51:19Z</time>
      </trkpt>
      <trkpt lat="47.64988" lon="6.22571">
        <ele>327</ele>
        <time>2020-08-24T08:51:23Z</time>
      </trkpt>
      <trkpt lat="47.64992" lon="6.22565">
        <ele>326</ele>
        <time>2020-08-24T08:51:31Z</time>
      </trkpt>
      <trkpt lat="47.64995" lon="6.2256">
        <ele>326</ele>
        <time>2020-08-24T08:51:37Z</time>
      </trkpt>
      <trkpt lat="47.65" lon="6.22556">
        <ele>326</ele>
        <time>2020-08-24T08:51:41Z</time>
      </trkpt>
      <trkpt lat="47.65005" lon="6.22551">
        <ele>330</ele>
        <time>2020-08-24T08:51:47Z</time>
      </trkpt>
      <trkpt lat="47.65009" lon="6.22546">
        <ele>330</ele>
        <time>2020-08-24T08:51:51Z</time>
      </trkpt>
      <trkpt lat="47.65017" lon="6.22537">
        <ele>330</ele>
        <time>2020-08-24T08:51:56Z</time>
      </trkpt>
      <trkpt lat="47.65021" lon="6.22533">
        <ele>330</ele>
        <time>2020-08-24T08:52:03Z</time>
      </trkpt>
      <trkpt lat="47.65025" lon="6.22528">
        <ele>330</ele>
        <time>2020-08-24T08:52:08Z</time>
      </trkpt>
      <trkpt lat="47.65033" lon="6.22518">
        <ele>331</ele>
        <time>2020-08-24T08:52:14Z</time>
      </trkpt>
      <trkpt lat="47.65037" lon="6.22513">
        <ele>331</ele>
        <time>2020-08-24T08:52:18Z</time>
      </trkpt>
      <trkpt lat="47.6504" lon="6.22508">
        <ele>331</ele>
        <time>2020-08-24T08:52:21Z</time>
      </trkpt>
      <trkpt lat="47.65044" lon="6.22503">
        <ele>331</ele>
        <time>2020-08-24T08:52:24Z</time>
      </trkpt>
      <trkpt lat="47.65047" lon="6.22497">
        <ele>331</ele>
        <time>2020-08-24T08:52:28Z</time>
      </trkpt>
      <trkpt lat="47.65054" lon="6.22484">
        <ele>331</ele>
        <time>2020-08-24T08:52:38Z</time>
      </trkpt>
      <trkpt lat="47.65059" lon="6.22472">
        <ele>331</ele>
        <time>2020-08-24T08:52:45Z</time>
      </trkpt>
      <trkpt lat="47.65062" lon="6.22465">
        <ele>331</ele>
        <time>2020-08-24T08:52:49Z</time>
      </trkpt>
      <trkpt lat="47.65068" lon="6.22451">
        <ele>332</ele>
        <time>2020-08-24T08:52:56Z</time>
      </trkpt>
      <trkpt lat="47.65071" lon="6.22445">
        <ele>332</ele>
        <time>2020-08-24T08:52:58Z</time>
      </trkpt>
      <trkpt lat="47.65075" lon="6.22438">
        <ele>332</ele>
        <time>2020-08-24T08:53:02Z</time>
      </trkpt>
      <trkpt lat="47.65076" lon="6.2243">
        <ele>332</ele>
        <time>2020-08-24T08:53:06Z</time>
      </trkpt>
      <trkpt lat="47.65077" lon="6.22422">
        <ele>333</ele>
        <time>2020-08-24T08:53:09Z</time>
      </trkpt>
      <trkpt lat="47.65079" lon="6.22415">
        <ele>333</ele>
        <time>2020-08-24T08:53:13Z</time>
      </trkpt>
      <trkpt lat="47.65083" lon="6.22413">
        <ele>333</ele>
        <time>2020-08-24T08:53:19Z</time>
      </trkpt>
      <trkpt lat="47.65088" lon="6.22411">
        <ele>334</ele>
        <time>2020-08-24T08:53:23Z</time>
      </trkpt>
      <trkpt lat="47.65092" lon="6.22408">
        <ele>335</ele>
        <time>2020-08-24T08:53:27Z</time>
      </trkpt>
      <trkpt lat="47.65096" lon="6.22405">
        <ele>335</ele>
        <time>2020-08-24T08:53:31Z</time>
      </trkpt>
      <trkpt lat="47.65106" lon="6.224">
        <ele>335</ele>
        <time>2020-08-24T08:53:37Z</time>
      </trkpt>
      <trkpt lat="47.65111" lon="6.22399">
        <ele>335</ele>
        <time>2020-08-24T08:53:41Z</time>
      </trkpt>
      <trkpt lat="47.65116" lon="6.22397">
        <ele>335</ele>
        <time>2020-08-24T08:53:43Z</time>
      </trkpt>
      <trkpt lat="47.65121" lon="6.22395">
        <ele>336</ele>
        <time>2020-08-24T08:53:46Z</time>
      </trkpt>
      <trkpt lat="47.65129" lon="6.22388">
        <ele>336</ele>
        <time>2020-08-24T08:53:51Z</time>
      </trkpt>
      <trkpt lat="47.65133" lon="6.22384">
        <ele>336</ele>
        <time>2020-08-24T08:53:54Z</time>
      </trkpt>
      <trkpt lat="47.65137" lon="6.22379">
        <ele>336</ele>
        <time>2020-08-24T08:53:58Z</time>
      </trkpt>
      <trkpt lat="47.65144" lon="6.22367">
        <ele>336</ele>
        <time>2020-08-24T08:54:05Z</time>
      </trkpt>
      <trkpt lat="47.65147" lon="6.22363">
        <ele>336</ele>
        <time>2020-08-24T08:54:08Z</time>
      </trkpt>
      <trkpt lat="47.65152" lon="6.22356">
        <ele>336</ele>
        <time>2020-08-24T08:54:11Z</time>
      </trkpt>
      <trkpt lat="47.65156" lon="6.22351">
        <ele>336</ele>
        <time>2020-08-24T08:54:14Z</time>
      </trkpt>
      <trkpt lat="47.6516" lon="6.22346">
        <ele>336</ele>
        <time>2020-08-24T08:54:17Z</time>
      </trkpt>
      <trkpt lat="47.65167" lon="6.22335">
        <ele>336</ele>
        <time>2020-08-24T08:54:24Z</time>
      </trkpt>
      <trkpt lat="47.65173" lon="6.22331">
        <ele>335</ele>
        <time>2020-08-24T08:54:26Z</time>
      </trkpt>
      <trkpt lat="47.65177" lon="6.22328">
        <ele>335</ele>
        <time>2020-08-24T08:54:28Z</time>
      </trkpt>
      <trkpt lat="47.65187" lon="6.22325">
        <ele>334</ele>
        <time>2020-08-24T08:54:33Z</time>
      </trkpt>
      <trkpt lat="47.65197" lon="6.22319">
        <ele>333</ele>
        <time>2020-08-24T08:54:34Z</time>
      </trkpt>
      <trkpt lat="47.65202" lon="6.22314">
        <ele>333</ele>
        <time>2020-08-24T08:54:41Z</time>
      </trkpt>
      <trkpt lat="47.65207" lon="6.22311">
        <ele>333</ele>
        <time>2020-08-24T08:54:43Z</time>
      </trkpt>
      <trkpt lat="47.65211" lon="6.22305">
        <ele>333</ele>
        <time>2020-08-24T08:54:45Z</time>
      </trkpt>
      <trkpt lat="47.6521" lon="6.2229">
        <ele>332</ele>
        <time>2020-08-24T08:54:50Z</time>
      </trkpt>
      <trkpt lat="47.65207" lon="6.22284">
        <ele>332</ele>
        <time>2020-08-24T08:54:52Z</time>
      </trkpt>
      <trkpt lat="47.65204" lon="6.22277">
        <ele>332</ele>
        <time>2020-08-24T08:54:55Z</time>
      </trkpt>
      <trkpt lat="47.65202" lon="6.2227">
        <ele>332</ele>
        <time>2020-08-24T08:54:58Z</time>
      </trkpt>
      <trkpt lat="47.65195" lon="6.22256">
        <ele>332</ele>
        <time>2020-08-24T08:55:02Z</time>
      </trkpt>
      <trkpt lat="47.65192" lon="6.2225">
        <ele>332</ele>
        <time>2020-08-24T08:55:04Z</time>
      </trkpt>
      <trkpt lat="47.65185" lon="6.22237">
        <ele>330</ele>
        <time>2020-08-24T08:55:07Z</time>
      </trkpt>
      <trkpt lat="47.65182" lon="6.22232">
        <ele>330</ele>
        <time>2020-08-24T08:55:08Z</time>
      </trkpt>
      <trkpt lat="47.65178" lon="6.22223">
        <ele>330</ele>
        <time>2020-08-24T08:55:10Z</time>
      </trkpt>
      <trkpt lat="47.65174" lon="6.22215">
        <ele>330</ele>
        <time>2020-08-24T08:55:12Z</time>
      </trkpt>
      <trkpt lat="47.6517" lon="6.22209">
        <ele>330</ele>
        <time>2020-08-24T08:55:13Z</time>
      </trkpt>
      <trkpt lat="47.65166" lon="6.22202">
        <ele>327</ele>
        <time>2020-08-24T08:55:14Z</time>
      </trkpt>
      <trkpt lat="47.65163" lon="6.22197">
        <ele>327</ele>
        <time>2020-08-24T08:55:15Z</time>
      </trkpt>
      <trkpt lat="47.65155" lon="6.22182">
        <ele>327</ele>
        <time>2020-08-24T08:55:18Z</time>
      </trkpt>
      <trkpt lat="47.6515" lon="6.22175">
        <ele>327</ele>
        <time>2020-08-24T08:55:19Z</time>
      </trkpt>
      <trkpt lat="47.65121" lon="6.22132">
        <ele>325</ele>
        <time>2020-08-24T08:55:20Z</time>
      </trkpt>
      <trkpt lat="47.65116" lon="6.22124">
        <ele>325</ele>
        <time>2020-08-24T08:55:21Z</time>
      </trkpt>
      <trkpt lat="47.65112" lon="6.22117">
        <ele>325</ele>
        <time>2020-08-24T08:55:22Z</time>
      </trkpt>
      <trkpt lat="47.65108" lon="6.22109">
        <ele>325</ele>
        <time>2020-08-24T08:55:23Z</time>
      </trkpt>
      <trkpt lat="47.65103" lon="6.22101">
        <ele>324</ele>
        <time>2020-08-24T08:55:24Z</time>
      </trkpt>
      <trkpt lat="47.65099" lon="6.22093">
        <ele>324</ele>
        <time>2020-08-24T08:55:25Z</time>
      </trkpt>
      <trkpt lat="47.65095" lon="6.22086">
        <ele>323</ele>
        <time>2020-08-24T08:55:26Z</time>
      </trkpt>
      <trkpt lat="47.65091" lon="6.22079">
        <ele>324</ele>
        <time>2020-08-24T08:55:27Z</time>
      </trkpt>
      <trkpt lat="47.65087" lon="6.22072">
        <ele>325</ele>
        <time>2020-08-24T08:55:28Z</time>
      </trkpt>
      <trkpt lat="47.65084" lon="6.22065">
        <ele>326</ele>
        <time>2020-08-24T08:55:29Z</time>
      </trkpt>
      <trkpt lat="47.6508" lon="6.22058">
        <ele>321</ele>
        <time>2020-08-24T08:55:30Z</time>
      </trkpt>
      <trkpt lat="47.65078" lon="6.2205">
        <ele>321</ele>
        <time>2020-08-24T08:55:31Z</time>
      </trkpt>
      <trkpt lat="47.65075" lon="6.22043">
        <ele>321</ele>
        <time>2020-08-24T08:55:32Z</time>
      </trkpt>
      <trkpt lat="47.65073" lon="6.22036">
        <ele>322</ele>
        <time>2020-08-24T08:55:33Z</time>
      </trkpt>
      <trkpt lat="47.65071" lon="6.2203">
        <ele>322</ele>
        <time>2020-08-24T08:55:34Z</time>
      </trkpt>
      <trkpt lat="47.65068" lon="6.22019">
        <ele>323</ele>
        <time>2020-08-24T08:55:36Z</time>
      </trkpt>
      <trkpt lat="47.65065" lon="6.22012">
        <ele>323</ele>
        <time>2020-08-24T08:55:38Z</time>
      </trkpt>
      <trkpt lat="47.65063" lon="6.22005">
        <ele>323</ele>
        <time>2020-08-24T08:55:40Z</time>
      </trkpt>
      <trkpt lat="47.6506" lon="6.22">
        <ele>326</ele>
        <time>2020-08-24T08:55:42Z</time>
      </trkpt>
      <trkpt lat="47.65056" lon="6.21993">
        <ele>326</ele>
        <time>2020-08-24T08:55:44Z</time>
      </trkpt>
      <trkpt lat="47.65061" lon="6.21984">
        <ele>326</ele>
        <time>2020-08-24T08:55:45Z</time>
      </trkpt>
      <trkpt lat="47.65056" lon="6.21979">
        <ele>326</ele>
        <time>2020-08-24T08:55:51Z</time>
      </trkpt>
      <trkpt lat="47.65051" lon="6.21975">
        <ele>325</ele>
        <time>2020-08-24T08:55:52Z</time>
      </trkpt>
      <trkpt lat="47.65046" lon="6.21971">
        <ele>325</ele>
        <time>2020-08-24T08:55:53Z</time>
      </trkpt>
      <trkpt lat="47.65041" lon="6.21966">
        <ele>325</ele>
        <time>2020-08-24T08:55:55Z</time>
      </trkpt>
      <trkpt lat="47.65037" lon="6.21961">
        <ele>325</ele>
        <time>2020-08-24T08:55:57Z</time>
      </trkpt>
      <trkpt lat="47.65025" lon="6.21945">
        <ele>324</ele>
        <time>2020-08-24T08:56:04Z</time>
      </trkpt>
      <trkpt lat="47.6502" lon="6.21937">
        <ele>324</ele>
        <time>2020-08-24T08:56:07Z</time>
      </trkpt>
      <trkpt lat="47.65005" lon="6.21908">
        <ele>325</ele>
        <time>2020-08-24T08:56:09Z</time>
      </trkpt>
      <trkpt lat="47.65002" lon="6.21902">
        <ele>326</ele>
        <time>2020-08-24T08:56:11Z</time>
      </trkpt>
      <trkpt lat="47.64999" lon="6.21896">
        <ele>323</ele>
        <time>2020-08-24T08:56:15Z</time>
      </trkpt>
      <trkpt lat="47.64994" lon="6.21885">
        <ele>323</ele>
        <time>2020-08-24T08:56:16Z</time>
      </trkpt>
      <trkpt lat="47.6499" lon="6.21877">
        <ele>324</ele>
        <time>2020-08-24T08:56:24Z</time>
      </trkpt>
      <trkpt lat="47.64982" lon="6.21864">
        <ele>324</ele>
        <time>2020-08-24T08:56:27Z</time>
      </trkpt>
      <trkpt lat="47.64977" lon="6.21855">
        <ele>324</ele>
        <time>2020-08-24T08:56:29Z</time>
      </trkpt>
      <trkpt lat="47.64965" lon="6.21831">
        <ele>328</ele>
        <time>2020-08-24T08:56:35Z</time>
      </trkpt>
      <trkpt lat="47.64961" lon="6.21817">
        <ele>328</ele>
        <time>2020-08-24T08:56:39Z</time>
      </trkpt>
      <trkpt lat="47.6496" lon="6.2181">
        <ele>329</ele>
        <time>2020-08-24T08:56:41Z</time>
      </trkpt>
      <trkpt lat="47.64959" lon="6.21802">
        <ele>329</ele>
        <time>2020-08-24T08:56:44Z</time>
      </trkpt>
      <trkpt lat="47.64958" lon="6.21785">
        <ele>329</ele>
        <time>2020-08-24T08:56:49Z</time>
      </trkpt>
      <trkpt lat="47.64958" lon="6.21765">
        <ele>330</ele>
        <time>2020-08-24T08:56:55Z</time>
      </trkpt>
      <trkpt lat="47.64957" lon="6.21749">
        <ele>333</ele>
        <time>2020-08-24T08:56:56Z</time>
      </trkpt>
      <trkpt lat="47.64955" lon="6.21742">
        <ele>332</ele>
        <time>2020-08-24T08:57:03Z</time>
      </trkpt>
      <trkpt lat="47.64954" lon="6.21735">
        <ele>332</ele>
        <time>2020-08-24T08:57:05Z</time>
      </trkpt>
      <trkpt lat="47.6495" lon="6.21713">
        <ele>333</ele>
        <time>2020-08-24T08:57:11Z</time>
      </trkpt>
      <trkpt lat="47.64949" lon="6.21704">
        <ele>333</ele>
        <time>2020-08-24T08:57:14Z</time>
      </trkpt>
      <trkpt lat="47.64948" lon="6.21687">
        <ele>333</ele>
        <time>2020-08-24T08:57:19Z</time>
      </trkpt>
      <trkpt lat="47.64946" lon="6.21675">
        <ele>333</ele>
        <time>2020-08-24T08:57:22Z</time>
      </trkpt>
      <trkpt lat="47.64945" lon="6.21668">
        <ele>333</ele>
        <time>2020-08-24T08:57:24Z</time>
      </trkpt>
      <trkpt lat="47.64944" lon="6.2166">
        <ele>334</ele>
        <time>2020-08-24T08:57:26Z</time>
      </trkpt>
      <trkpt lat="47.64943" lon="6.21652">
        <ele>334</ele>
        <time>2020-08-24T08:57:28Z</time>
      </trkpt>
      <trkpt lat="47.64941" lon="6.2163">
        <ele>334</ele>
        <time>2020-08-24T08:57:33Z</time>
      </trkpt>
      <trkpt lat="47.64939" lon="6.21623">
        <ele>334</ele>
        <time>2020-08-24T08:57:35Z</time>
      </trkpt>
      <trkpt lat="47.64938" lon="6.21615">
        <ele>334</ele>
        <time>2020-08-24T08:57:37Z</time>
      </trkpt>
      <trkpt lat="47.64936" lon="6.21605">
        <ele>334</ele>
        <time>2020-08-24T08:57:39Z</time>
      </trkpt>
      <trkpt lat="47.64933" lon="6.21596">
        <ele>334</ele>
        <time>2020-08-24T08:57:41Z</time>
      </trkpt>
      <trkpt lat="47.64928" lon="6.21578">
        <ele>333</ele>
        <time>2020-08-24T08:57:45Z</time>
      </trkpt>
      <trkpt lat="47.64921" lon="6.21559">
        <ele>333</ele>
        <time>2020-08-24T08:57:49Z</time>
      </trkpt>
      <trkpt lat="47.64919" lon="6.21552">
        <ele>333</ele>
        <time>2020-08-24T08:57:50Z</time>
      </trkpt>
      <trkpt lat="47.64917" lon="6.21545">
        <ele>333</ele>
        <time>2020-08-24T08:57:51Z</time>
      </trkpt>
      <trkpt lat="47.64914" lon="6.21539">
        <ele>331</ele>
        <time>2020-08-24T08:57:53Z</time>
      </trkpt>
      <trkpt lat="47.64912" lon="6.2153">
        <ele>331</ele>
        <time>2020-08-24T08:57:54Z</time>
      </trkpt>
      <trkpt lat="47.64904" lon="6.21502">
        <ele>331</ele>
        <time>2020-08-24T08:57:56Z</time>
      </trkpt>
      <trkpt lat="47.64902" lon="6.21493">
        <ele>330</ele>
        <time>2020-08-24T08:57:58Z</time>
      </trkpt>
      <trkpt lat="47.64901" lon="6.21484">
        <ele>330</ele>
        <time>2020-08-24T08:58:05Z</time>
      </trkpt>
      <trkpt lat="47.64895" lon="6.21471">
        <ele>329</ele>
        <time>2020-08-24T08:58:09Z</time>
      </trkpt>
      <trkpt lat="47.6489" lon="6.2146">
        <ele>329</ele>
        <time>2020-08-24T08:58:11Z</time>
      </trkpt>
      <trkpt lat="47.64887" lon="6.21454">
        <ele>329</ele>
        <time>2020-08-24T08:58:12Z</time>
      </trkpt>
      <trkpt lat="47.64884" lon="6.21446">
        <ele>329</ele>
        <time>2020-08-24T08:58:14Z</time>
      </trkpt>
      <trkpt lat="47.6488" lon="6.21435">
        <ele>329</ele>
        <time>2020-08-24T08:58:15Z</time>
      </trkpt>
      <trkpt lat="47.64878" lon="6.21428">
        <ele>329</ele>
        <time>2020-08-24T08:58:16Z</time>
      </trkpt>
      <trkpt lat="47.64874" lon="6.21417">
        <ele>329</ele>
        <time>2020-08-24T08:58:17Z</time>
      </trkpt>
      <trkpt lat="47.64868" lon="6.214">
        <ele>329</ele>
        <time>2020-08-24T08:58:20Z</time>
      </trkpt>
      <trkpt lat="47.64866" lon="6.21392">
        <ele>328</ele>
        <time>2020-08-24T08:58:21Z</time>
      </trkpt>
      <trkpt lat="47.64865" lon="6.21386">
        <ele>328</ele>
        <time>2020-08-24T08:58:22Z</time>
      </trkpt>
      <trkpt lat="47.64862" lon="6.21377">
        <ele>328</ele>
        <time>2020-08-24T08:58:24Z</time>
      </trkpt>
      <trkpt lat="47.64859" lon="6.21364">
        <ele>328</ele>
        <time>2020-08-24T08:58:27Z</time>
      </trkpt>
      <trkpt lat="47.64857" lon="6.21357">
        <ele>328</ele>
        <time>2020-08-24T08:58:29Z</time>
      </trkpt>
      <trkpt lat="47.64855" lon="6.21348">
        <ele>328</ele>
        <time>2020-08-24T08:58:32Z</time>
      </trkpt>
      <trkpt lat="47.64853" lon="6.21339">
        <ele>328</ele>
        <time>2020-08-24T08:58:34Z</time>
      </trkpt>
      <trkpt lat="47.6485" lon="6.21323">
        <ele>327</ele>
        <time>2020-08-24T08:58:35Z</time>
      </trkpt>
      <trkpt lat="47.64848" lon="6.21313">
        <ele>327</ele>
        <time>2020-08-24T08:58:39Z</time>
      </trkpt>
      <trkpt lat="47.64846" lon="6.21306">
        <ele>327</ele>
        <time>2020-08-24T08:58:47Z</time>
      </trkpt>
      <trkpt lat="47.64845" lon="6.213">
        <ele>326</ele>
        <time>2020-08-24T08:58:50Z</time>
      </trkpt>
      <trkpt lat="47.64844" lon="6.21292">
        <ele>326</ele>
        <time>2020-08-24T08:58:53Z</time>
      </trkpt>
      <trkpt lat="47.64843" lon="6.21285">
        <ele>326</ele>
        <time>2020-08-24T08:58:55Z</time>
      </trkpt>
      <trkpt lat="47.64842" lon="6.21277">
        <ele>326</ele>
        <time>2020-08-24T08:58:58Z</time>
      </trkpt>
      <trkpt lat="47.64842" lon="6.21269">
        <ele>325</ele>
        <time>2020-08-24T08:59:01Z</time>
      </trkpt>
      <trkpt lat="47.64841" lon="6.21262">
        <ele>325</ele>
        <time>2020-08-24T08:59:03Z</time>
      </trkpt>
      <trkpt lat="47.6484" lon="6.21256">
        <ele>325</ele>
        <time>2020-08-24T08:59:05Z</time>
      </trkpt>
      <trkpt lat="47.64837" lon="6.21249">
        <ele>324</ele>
        <time>2020-08-24T08:59:08Z</time>
      </trkpt>
      <trkpt lat="47.64835" lon="6.2124">
        <ele>324</ele>
        <time>2020-08-24T08:59:11Z</time>
      </trkpt>
      <trkpt lat="47.64831" lon="6.21231">
        <ele>325</ele>
        <time>2020-08-24T08:59:13Z</time>
      </trkpt>
      <trkpt lat="47.64826" lon="6.21221">
        <ele>326</ele>
        <time>2020-08-24T08:59:15Z</time>
      </trkpt>
      <trkpt lat="47.64816" lon="6.21195">
        <ele>326</ele>
        <time>2020-08-24T08:59:20Z</time>
      </trkpt>
      <trkpt lat="47.6481" lon="6.21183">
        <ele>326</ele>
        <time>2020-08-24T08:59:23Z</time>
      </trkpt>
      <trkpt lat="47.64808" lon="6.21177">
        <ele>326</ele>
        <time>2020-08-24T08:59:24Z</time>
      </trkpt>
      <trkpt lat="47.64805" lon="6.21168">
        <ele>326</ele>
        <time>2020-08-24T08:59:26Z</time>
      </trkpt>
      <trkpt lat="47.64803" lon="6.2116">
        <ele>325</ele>
        <time>2020-08-24T08:59:27Z</time>
      </trkpt>
      <trkpt lat="47.64801" lon="6.21148">
        <ele>325</ele>
        <time>2020-08-24T08:59:29Z</time>
      </trkpt>
      <trkpt lat="47.648" lon="6.2114">
        <ele>325</ele>
        <time>2020-08-24T08:59:30Z</time>
      </trkpt>
      <trkpt lat="47.64797" lon="6.21131">
        <ele>325</ele>
        <time>2020-08-24T08:59:32Z</time>
      </trkpt>
      <trkpt lat="47.64791" lon="6.21113">
        <ele>325</ele>
        <time>2020-08-24T08:59:36Z</time>
      </trkpt>
      <trkpt lat="47.64787" lon="6.21104">
        <ele>325</ele>
        <time>2020-08-24T08:59:38Z</time>
      </trkpt>
      <trkpt lat="47.64785" lon="6.21097">
        <ele>325</ele>
        <time>2020-08-24T08:59:39Z</time>
      </trkpt>
      <trkpt lat="47.64782" lon="6.21089">
        <ele>325</ele>
        <time>2020-08-24T08:59:41Z</time>
      </trkpt>
      <trkpt lat="47.64779" lon="6.21082">
        <ele>324</ele>
        <time>2020-08-24T08:59:42Z</time>
      </trkpt>
      <trkpt lat="47.64776" lon="6.21072">
        <ele>324</ele>
        <time>2020-08-24T08:59:44Z</time>
      </trkpt>
      <trkpt lat="47.64771" lon="6.21056">
        <ele>324</ele>
        <time>2020-08-24T08:59:48Z</time>
      </trkpt>
      <trkpt lat="47.6477" lon="6.21047">
        <ele>324</ele>
        <time>2020-08-24T08:59:50Z</time>
      </trkpt>
      <trkpt lat="47.64768" lon="6.21041">
        <ele>324</ele>
        <time>2020-08-24T08:59:52Z</time>
      </trkpt>
      <trkpt lat="47.64764" lon="6.21036">
        <ele>324</ele>
        <time>2020-08-24T08:59:57Z</time>
      </trkpt>
      <trkpt lat="47.64759" lon="6.21036">
        <ele>324</ele>
        <time>2020-08-24T09:00:00Z</time>
      </trkpt>
      <trkpt lat="47.6475" lon="6.21043">
        <ele>324</ele>
        <time>2020-08-24T09:00:06Z</time>
      </trkpt>
      <trkpt lat="47.64747" lon="6.21048">
        <ele>327</ele>
        <time>2020-08-24T09:00:08Z</time>
      </trkpt>
      <trkpt lat="47.64744" lon="6.21056">
        <ele>327</ele>
        <time>2020-08-24T09:00:09Z</time>
      </trkpt>
      <trkpt lat="47.6474" lon="6.21072">
        <ele>327</ele>
        <time>2020-08-24T09:00:12Z</time>
      </trkpt>
      <trkpt lat="47.64737" lon="6.21077">
        <ele>327</ele>
        <time>2020-08-24T09:00:14Z</time>
      </trkpt>
      <trkpt lat="47.64734" lon="6.21083">
        <ele>327</ele>
        <time>2020-08-24T09:00:16Z</time>
      </trkpt>
      <trkpt lat="47.64731" lon="6.21089">
        <ele>328</ele>
        <time>2020-08-24T09:00:19Z</time>
      </trkpt>
      <trkpt lat="47.64728" lon="6.21096">
        <ele>328</ele>
        <time>2020-08-24T09:00:22Z</time>
      </trkpt>
      <trkpt lat="47.64724" lon="6.21101">
        <ele>329</ele>
        <time>2020-08-24T09:00:24Z</time>
      </trkpt>
      <trkpt lat="47.64721" lon="6.21108">
        <ele>329</ele>
        <time>2020-08-24T09:00:27Z</time>
      </trkpt>
      <trkpt lat="47.64715" lon="6.2112">
        <ele>329</ele>
        <time>2020-08-24T09:00:29Z</time>
      </trkpt>
      <trkpt lat="47.64712" lon="6.21126">
        <ele>329</ele>
        <time>2020-08-24T09:00:36Z</time>
      </trkpt>
      <trkpt lat="47.64707" lon="6.21139">
        <ele>330</ele>
        <time>2020-08-24T09:00:44Z</time>
      </trkpt>
      <trkpt lat="47.64702" lon="6.21151">
        <ele>330</ele>
        <time>2020-08-24T09:00:49Z</time>
      </trkpt>
      <trkpt lat="47.64701" lon="6.21161">
        <ele>330</ele>
        <time>2020-08-24T09:00:57Z</time>
      </trkpt>
      <trkpt lat="47.64697" lon="6.21175">
        <ele>332</ele>
        <time>2020-08-24T09:01:05Z</time>
      </trkpt>
      <trkpt lat="47.64689" lon="6.21189">
        <ele>332</ele>
        <time>2020-08-24T09:01:10Z</time>
      </trkpt>
      <trkpt lat="47.64681" lon="6.21199">
        <ele>332</ele>
        <time>2020-08-24T09:01:10Z</time>
      </trkpt>
      <trkpt lat="47.64678" lon="6.21204">
        <ele>332</ele>
        <time>2020-08-24T09:01:17Z</time>
      </trkpt>
      <trkpt lat="47.64674" lon="6.21209">
        <ele>333</ele>
        <time>2020-08-24T09:01:21Z</time>
      </trkpt>
      <trkpt lat="47.64667" lon="6.2122">
        <ele>335</ele>
        <time>2020-08-24T09:01:22Z</time>
      </trkpt>
      <trkpt lat="47.64663" lon="6.21226">
        <ele>335</ele>
        <time>2020-08-24T09:01:27Z</time>
      </trkpt>
      <trkpt lat="47.64661" lon="6.21231">
        <ele>335</ele>
        <time>2020-08-24T09:01:36Z</time>
      </trkpt>
      <trkpt lat="47.64655" lon="6.21243">
        <ele>335</ele>
        <time>2020-08-24T09:01:44Z</time>
      </trkpt>
      <trkpt lat="47.64652" lon="6.2125">
        <ele>335</ele>
        <time>2020-08-24T09:01:47Z</time>
      </trkpt>
      <trkpt lat="47.64649" lon="6.21256">
        <ele>336</ele>
        <time>2020-08-24T09:01:50Z</time>
      </trkpt>
      <trkpt lat="47.64647" lon="6.21263">
        <ele>336</ele>
        <time>2020-08-24T09:01:55Z</time>
      </trkpt>
      <trkpt lat="47.64642" lon="6.21277">
        <ele>336</ele>
        <time>2020-08-24T09:01:58Z</time>
      </trkpt>
      <trkpt lat="47.64639" lon="6.21283">
        <ele>336</ele>
        <time>2020-08-24T09:02:01Z</time>
      </trkpt>
      <trkpt lat="47.64637" lon="6.21289">
        <ele>337</ele>
        <time>2020-08-24T09:02:03Z</time>
      </trkpt>
      <trkpt lat="47.64633" lon="6.21296">
        <ele>337</ele>
        <time>2020-08-24T09:02:08Z</time>
      </trkpt>
      <trkpt lat="47.64631" lon="6.21303">
        <ele>337</ele>
        <time>2020-08-24T09:02:11Z</time>
      </trkpt>
      <trkpt lat="47.64629" lon="6.21309">
        <ele>337</ele>
        <time>2020-08-24T09:02:18Z</time>
      </trkpt>
      <trkpt lat="47.64623" lon="6.21321">
        <ele>337</ele>
        <time>2020-08-24T09:02:19Z</time>
      </trkpt>
      <trkpt lat="47.6462" lon="6.21328">
        <ele>337</ele>
        <time>2020-08-24T09:02:27Z</time>
      </trkpt>
      <trkpt lat="47.64616" lon="6.21334">
        <ele>338</ele>
        <time>2020-08-24T09:02:29Z</time>
      </trkpt>
      <trkpt lat="47.64606" lon="6.21355">
        <ele>338</ele>
        <time>2020-08-24T09:02:31Z</time>
      </trkpt>
      <trkpt lat="47.64603" lon="6.21359">
        <ele>338</ele>
        <time>2020-08-24T09:02:39Z</time>
      </trkpt>
      <trkpt lat="47.64597" lon="6.21365">
        <ele>338</ele>
        <time>2020-08-24T09:02:43Z</time>
      </trkpt>
      <trkpt lat="47.64592" lon="6.2137">
        <ele>338</ele>
        <time>2020-08-24T09:02:47Z</time>
      </trkpt>
      <trkpt lat="47.64584" lon="6.21381">
        <ele>338</ele>
        <time>2020-08-24T09:02:55Z</time>
      </trkpt>
      <trkpt lat="47.64575" lon="6.21389">
        <ele>343</ele>
        <time>2020-08-24T09:03:03Z</time>
      </trkpt>
      <trkpt lat="47.64571" lon="6.21392">
        <ele>343</ele>
        <time>2020-08-24T09:03:08Z</time>
      </trkpt>
      <trkpt lat="47.64567" lon="6.21395">
        <ele>343</ele>
        <time>2020-08-24T09:03:11Z</time>
      </trkpt>
      <trkpt lat="47.64564" lon="6.21401">
        <ele>343</ele>
        <time>2020-08-24T09:03:17Z</time>
      </trkpt>
      <trkpt lat="47.6456" lon="6.21406">
        <ele>343</ele>
        <time>2020-08-24T09:03:20Z</time>
      </trkpt>
      <trkpt lat="47.64556" lon="6.21411">
        <ele>344</ele>
        <time>2020-08-24T09:03:21Z</time>
      </trkpt>
      <trkpt lat="47.64552" lon="6.21416">
        <ele>344</ele>
        <time>2020-08-24T09:03:25Z</time>
      </trkpt>
      <trkpt lat="47.64548" lon="6.21421">
        <ele>346</ele>
        <time>2020-08-24T09:03:35Z</time>
      </trkpt>
      <trkpt lat="47.64538" lon="6.21425">
        <ele>347</ele>
        <time>2020-08-24T09:03:39Z</time>
      </trkpt>
      <trkpt lat="47.64533" lon="6.21426">
        <ele>348</ele>
        <time>2020-08-24T09:03:43Z</time>
      </trkpt>
      <trkpt lat="47.64529" lon="6.21426">
        <ele>348</ele>
        <time>2020-08-24T09:03:47Z</time>
      </trkpt>
      <trkpt lat="47.64524" lon="6.21428">
        <ele>349</ele>
        <time>2020-08-24T09:03:52Z</time>
      </trkpt>
      <trkpt lat="47.64519" lon="6.2143">
        <ele>349</ele>
        <time>2020-08-24T09:04:01Z</time>
      </trkpt>
      <trkpt lat="47.6451" lon="6.21435">
        <ele>350</ele>
        <time>2020-08-24T09:04:04Z</time>
      </trkpt>
      <trkpt lat="47.64505" lon="6.21438">
        <ele>350</ele>
        <time>2020-08-24T09:04:08Z</time>
      </trkpt>
      <trkpt lat="47.64501" lon="6.2144">
        <ele>350</ele>
        <time>2020-08-24T09:04:17Z</time>
      </trkpt>
      <trkpt lat="47.64491" lon="6.2144">
        <ele>356</ele>
        <time>2020-08-24T09:04:25Z</time>
      </trkpt>
      <trkpt lat="47.64487" lon="6.21442">
        <ele>356</ele>
        <time>2020-08-24T09:04:28Z</time>
      </trkpt>
      <trkpt lat="47.64478" lon="6.2145">
        <ele>357</ele>
        <time>2020-08-24T09:04:36Z</time>
      </trkpt>
      <trkpt lat="47.64472" lon="6.21463">
        <ele>358</ele>
        <time>2020-08-24T09:04:45Z</time>
      </trkpt>
      <trkpt lat="47.6447" lon="6.2147">
        <ele>358</ele>
        <time>2020-08-24T09:04:48Z</time>
      </trkpt>
      <trkpt lat="47.64468" lon="6.21478">
        <ele>358</ele>
        <time>2020-08-24T09:04:50Z</time>
      </trkpt>
      <trkpt lat="47.64466" lon="6.21484">
        <ele>358</ele>
        <time>2020-08-24T09:04:53Z</time>
      </trkpt>
      <trkpt lat="47.64464" lon="6.21491">
        <ele>358</ele>
        <time>2020-08-24T09:04:56Z</time>
      </trkpt>
      <trkpt lat="47.64462" lon="6.21505">
        <ele>359</ele>
        <time>2020-08-24T09:05:03Z</time>
      </trkpt>
      <trkpt lat="47.64459" lon="6.21519">
        <ele>359</ele>
        <time>2020-08-24T09:05:09Z</time>
      </trkpt>
      <trkpt lat="47.64457" lon="6.21526">
        <ele>359</ele>
        <time>2020-08-24T09:05:11Z</time>
      </trkpt>
      <trkpt lat="47.64453" lon="6.21541">
        <ele>359</ele>
        <time>2020-08-24T09:05:17Z</time>
      </trkpt>
      <trkpt lat="47.64444" lon="6.21565">
        <ele>359</ele>
        <time>2020-08-24T09:05:23Z</time>
      </trkpt>
      <trkpt lat="47.64438" lon="6.21578">
        <ele>360</ele>
        <time>2020-08-24T09:05:28Z</time>
      </trkpt>
      <trkpt lat="47.64432" lon="6.2159">
        <ele>360</ele>
        <time>2020-08-24T09:05:33Z</time>
      </trkpt>
      <trkpt lat="47.64431" lon="6.21597">
        <ele>360</ele>
        <time>2020-08-24T09:05:36Z</time>
      </trkpt>
      <trkpt lat="47.6443" lon="6.21607">
        <ele>360</ele>
        <time>2020-08-24T09:05:39Z</time>
      </trkpt>
      <trkpt lat="47.6443" lon="6.21614">
        <ele>360</ele>
        <time>2020-08-24T09:05:41Z</time>
      </trkpt>
      <trkpt lat="47.64431" lon="6.21621">
        <ele>359</ele>
        <time>2020-08-24T09:05:43Z</time>
      </trkpt>
      <trkpt lat="47.64432" lon="6.21628">
        <ele>359</ele>
        <time>2020-08-24T09:05:45Z</time>
      </trkpt>
      <trkpt lat="47.64433" lon="6.21635">
        <ele>359</ele>
        <time>2020-08-24T09:05:47Z</time>
      </trkpt>
      <trkpt lat="47.64434" lon="6.21645">
        <ele>359</ele>
        <time>2020-08-24T09:05:49Z</time>
      </trkpt>
      <trkpt lat="47.64433" lon="6.21652">
        <ele>360</ele>
        <time>2020-08-24T09:05:51Z</time>
      </trkpt>
      <trkpt lat="47.64433" lon="6.21659">
        <ele>360</ele>
        <time>2020-08-24T09:05:53Z</time>
      </trkpt>
      <trkpt lat="47.64432" lon="6.21667">
        <ele>360</ele>
        <time>2020-08-24T09:05:56Z</time>
      </trkpt>
      <trkpt lat="47.64432" lon="6.21674">
        <ele>359</ele>
        <time>2020-08-24T09:05:59Z</time>
      </trkpt>
      <trkpt lat="47.64433" lon="6.21682">
        <ele>359</ele>
        <time>2020-08-24T09:06:02Z</time>
      </trkpt>
      <trkpt lat="47.64435" lon="6.21691">
        <ele>359</ele>
        <time>2020-08-24T09:06:05Z</time>
      </trkpt>
      <trkpt lat="47.64436" lon="6.21698">
        <ele>359</ele>
        <time>2020-08-24T09:06:08Z</time>
      </trkpt>
      <trkpt lat="47.64437" lon="6.21713">
        <ele>359</ele>
        <time>2020-08-24T09:06:13Z</time>
      </trkpt>
      <trkpt lat="47.64438" lon="6.21723">
        <ele>359</ele>
        <time>2020-08-24T09:06:17Z</time>
      </trkpt>
      <trkpt lat="47.64438" lon="6.21732">
        <ele>359</ele>
        <time>2020-08-24T09:06:20Z</time>
      </trkpt>
      <trkpt lat="47.64437" lon="6.21741">
        <ele>359</ele>
        <time>2020-08-24T09:06:22Z</time>
      </trkpt>
      <trkpt lat="47.64436" lon="6.21751">
        <ele>358</ele>
        <time>2020-08-24T09:06:24Z</time>
      </trkpt>
      <trkpt lat="47.64436" lon="6.21759">
        <ele>358</ele>
        <time>2020-08-24T09:06:26Z</time>
      </trkpt>
      <trkpt lat="47.64435" lon="6.21767">
        <ele>358</ele>
        <time>2020-08-24T09:06:28Z</time>
      </trkpt>
      <trkpt lat="47.64433" lon="6.21788">
        <ele>357</ele>
        <time>2020-08-24T09:06:32Z</time>
      </trkpt>
      <trkpt lat="47.64431" lon="6.218">
        <ele>357</ele>
        <time>2020-08-24T09:06:34Z</time>
      </trkpt>
      <trkpt lat="47.64428" lon="6.21812">
        <ele>357</ele>
        <time>2020-08-24T09:06:36Z</time>
      </trkpt>
      <trkpt lat="47.64425" lon="6.21821">
        <ele>358</ele>
        <time>2020-08-24T09:06:37Z</time>
      </trkpt>
      <trkpt lat="47.64421" lon="6.21829">
        <ele>358</ele>
        <time>2020-08-24T09:06:39Z</time>
      </trkpt>
      <trkpt lat="47.64415" lon="6.21836">
        <ele>359</ele>
        <time>2020-08-24T09:06:41Z</time>
      </trkpt>
      <trkpt lat="47.64405" lon="6.21846">
        <ele>357</ele>
        <time>2020-08-24T09:06:45Z</time>
      </trkpt>
      <trkpt lat="47.644" lon="6.21852">
        <ele>357</ele>
        <time>2020-08-24T09:06:47Z</time>
      </trkpt>
      <trkpt lat="47.64396" lon="6.21856">
        <ele>357</ele>
        <time>2020-08-24T09:06:48Z</time>
      </trkpt>
      <trkpt lat="47.64391" lon="6.2186">
        <ele>356</ele>
        <time>2020-08-24T09:06:50Z</time>
      </trkpt>
      <trkpt lat="47.64387" lon="6.21864">
        <ele>356</ele>
        <time>2020-08-24T09:06:52Z</time>
      </trkpt>
      <trkpt lat="47.64379" lon="6.21873">
        <ele>356</ele>
        <time>2020-08-24T09:06:55Z</time>
      </trkpt>
      <trkpt lat="47.64368" lon="6.21881">
        <ele>355</ele>
        <time>2020-08-24T09:07:00Z</time>
      </trkpt>
      <trkpt lat="47.64363" lon="6.21883">
        <ele>355</ele>
        <time>2020-08-24T09:07:03Z</time>
      </trkpt>
      <trkpt lat="47.64353" lon="6.21886">
        <ele>355</ele>
        <time>2020-08-24T09:07:07Z</time>
      </trkpt>
      <trkpt lat="47.64346" lon="6.21886">
        <ele>355</ele>
        <time>2020-08-24T09:07:10Z</time>
      </trkpt>
      <trkpt lat="47.64341" lon="6.21887">
        <ele>355</ele>
        <time>2020-08-24T09:07:13Z</time>
      </trkpt>
      <trkpt lat="47.64326" lon="6.21889">
        <ele>354</ele>
        <time>2020-08-24T09:07:14Z</time>
      </trkpt>
      <trkpt lat="47.64321" lon="6.21888">
        <ele>355</ele>
        <time>2020-08-24T09:07:21Z</time>
      </trkpt>
      <trkpt lat="47.64315" lon="6.21886">
        <ele>355</ele>
        <time>2020-08-24T09:07:23Z</time>
      </trkpt>
      <trkpt lat="47.64309" lon="6.21884">
        <ele>355</ele>
        <time>2020-08-24T09:07:25Z</time>
      </trkpt>
      <trkpt lat="47.64302" lon="6.21885">
        <ele>355</ele>
        <time>2020-08-24T09:07:27Z</time>
      </trkpt>
      <trkpt lat="47.64294" lon="6.21894">
        <ele>354</ele>
        <time>2020-08-24T09:07:32Z</time>
      </trkpt>
      <trkpt lat="47.64288" lon="6.21894">
        <ele>354</ele>
        <time>2020-08-24T09:07:33Z</time>
      </trkpt>
      <trkpt lat="47.64281" lon="6.21892">
        <ele>354</ele>
        <time>2020-08-24T09:07:34Z</time>
      </trkpt>
      <trkpt lat="47.64276" lon="6.21891">
        <ele>354</ele>
        <time>2020-08-24T09:07:40Z</time>
      </trkpt>
      <trkpt lat="47.6427" lon="6.2189">
        <ele>353</ele>
        <time>2020-08-24T09:07:42Z</time>
      </trkpt>
      <trkpt lat="47.64254" lon="6.21886">
        <ele>353</ele>
        <time>2020-08-24T09:07:47Z</time>
      </trkpt>
      <trkpt lat="47.6425" lon="6.2188">
        <ele>352</ele>
        <time>2020-08-24T09:07:50Z</time>
      </trkpt>
      <trkpt lat="47.64246" lon="6.21876">
        <ele>352</ele>
        <time>2020-08-24T09:07:53Z</time>
      </trkpt>
      <trkpt lat="47.64238" lon="6.21867">
        <ele>353</ele>
        <time>2020-08-24T09:07:59Z</time>
      </trkpt>
      <trkpt lat="47.64234" lon="6.21861">
        <ele>354</ele>
        <time>2020-08-24T09:08:03Z</time>
      </trkpt>
      <trkpt lat="47.64231" lon="6.21855">
        <ele>354</ele>
        <time>2020-08-24T09:08:06Z</time>
      </trkpt>
      <trkpt lat="47.64228" lon="6.21848">
        <ele>354</ele>
        <time>2020-08-24T09:08:09Z</time>
      </trkpt>
      <trkpt lat="47.64227" lon="6.21841">
        <ele>355</ele>
        <time>2020-08-24T09:08:12Z</time>
      </trkpt>
      <trkpt lat="47.64226" lon="6.21834">
        <ele>355</ele>
        <time>2020-08-24T09:08:15Z</time>
      </trkpt>
      <trkpt lat="47.64225" lon="6.2182">
        <ele>360</ele>
        <time>2020-08-24T09:08:22Z</time>
      </trkpt>
      <trkpt lat="47.64225" lon="6.21805">
        <ele>360</ele>
        <time>2020-08-24T09:08:27Z</time>
      </trkpt>
      <trkpt lat="47.64229" lon="6.21793">
        <ele>361</ele>
        <time>2020-08-24T09:08:40Z</time>
      </trkpt>
      <trkpt lat="47.6423" lon="6.21786">
        <ele>361</ele>
        <time>2020-08-24T09:08:55Z</time>
      </trkpt>
      <trkpt lat="47.6423" lon="6.21777">
        <ele>362</ele>
        <time>2020-08-24T09:09:01Z</time>
      </trkpt>
      <trkpt lat="47.6423" lon="6.21769">
        <ele>362</ele>
        <time>2020-08-24T09:09:04Z</time>
      </trkpt>
      <trkpt lat="47.6423" lon="6.21761">
        <ele>363</ele>
        <time>2020-08-24T09:09:07Z</time>
      </trkpt>
      <trkpt lat="47.64229" lon="6.21745">
        <ele>365</ele>
        <time>2020-08-24T09:09:10Z</time>
      </trkpt>
      <trkpt lat="47.64227" lon="6.21738">
        <ele>365</ele>
        <time>2020-08-24T09:09:15Z</time>
      </trkpt>
      <trkpt lat="47.64227" lon="6.21731">
        <ele>365</ele>
        <time>2020-08-24T09:09:25Z</time>
      </trkpt>
      <trkpt lat="47.64226" lon="6.21717">
        <ele>365</ele>
        <time>2020-08-24T09:09:27Z</time>
      </trkpt>
      <trkpt lat="47.64225" lon="6.21709">
        <ele>365</ele>
        <time>2020-08-24T09:09:32Z</time>
      </trkpt>
      <trkpt lat="47.64225" lon="6.21702">
        <ele>365</ele>
        <time>2020-08-24T09:09:37Z</time>
      </trkpt>
      <trkpt lat="47.64224" lon="6.21695">
        <ele>365</ele>
        <time>2020-08-24T09:09:43Z</time>
      </trkpt>
      <trkpt lat="47.64225" lon="6.21689">
        <ele>365</ele>
        <time>2020-08-24T09:09:54Z</time>
      </trkpt>
      <trkpt lat="47.64225" lon="6.21682">
        <ele>365</ele>
        <time>2020-08-24T09:09:54Z</time>
      </trkpt>
      <trkpt lat="47.64226" lon="6.21675">
        <ele>366</ele>
        <time>2020-08-24T09:10:00Z</time>
      </trkpt>
      <trkpt lat="47.64225" lon="6.21668">
        <ele>366</ele>
        <time>2020-08-24T09:10:06Z</time>
      </trkpt>
      <trkpt lat="47.64225" lon="6.21661">
        <ele>367</ele>
        <time>2020-08-24T09:10:16Z</time>
      </trkpt>
      <trkpt lat="47.64224" lon="6.21645">
        <ele>367</ele>
        <time>2020-08-24T09:10:17Z</time>
      </trkpt>
      <trkpt lat="47.64223" lon="6.21638">
        <ele>367</ele>
        <time>2020-08-24T09:10:26Z</time>
      </trkpt>
      <trkpt lat="47.64222" lon="6.21621">
        <ele>367</ele>
        <time>2020-08-24T09:10:29Z</time>
      </trkpt>
      <trkpt lat="47.64222" lon="6.21614">
        <ele>367</ele>
        <time>2020-08-24T09:10:37Z</time>
      </trkpt>
      <trkpt lat="47.64222" lon="6.21599">
        <ele>367</ele>
        <time>2020-08-24T09:10:43Z</time>
      </trkpt>
      <trkpt lat="47.64223" lon="6.21584">
        <ele>367</ele>
        <time>2020-08-24T09:10:49Z</time>
      </trkpt>
      <trkpt lat="47.64223" lon="6.21578">
        <ele>368</ele>
        <time>2020-08-24T09:10:52Z</time>
      </trkpt>
      <trkpt lat="47.64222" lon="6.21561">
        <ele>368</ele>
        <time>2020-08-24T09:10:57Z</time>
      </trkpt>
      <trkpt lat="47.64221" lon="6.21554">
        <ele>368</ele>
        <time>2020-08-24T09:10:59Z</time>
      </trkpt>
      <trkpt lat="47.64221" lon="6.21547">
        <ele>368</ele>
        <time>2020-08-24T09:11:02Z</time>
      </trkpt>
      <trkpt lat="47.64221" lon="6.21539">
        <ele>368</ele>
        <time>2020-08-24T09:11:05Z</time>
      </trkpt>
      <trkpt lat="47.6422" lon="6.21532">
        <ele>368</ele>
        <time>2020-08-24T09:11:08Z</time>
      </trkpt>
      <trkpt lat="47.64219" lon="6.21526">
        <ele>368</ele>
        <time>2020-08-24T09:11:10Z</time>
      </trkpt>
      <trkpt lat="47.64218" lon="6.21518">
        <ele>368</ele>
        <time>2020-08-24T09:11:13Z</time>
      </trkpt>
      <trkpt lat="47.64214" lon="6.215">
        <ele>368</ele>
        <time>2020-08-24T09:11:18Z</time>
      </trkpt>
      <trkpt lat="47.64213" lon="6.21493">
        <ele>368</ele>
        <time>2020-08-24T09:11:22Z</time>
      </trkpt>
      <trkpt lat="47.64212" lon="6.21486">
        <ele>368</ele>
        <time>2020-08-24T09:11:25Z</time>
      </trkpt>
      <trkpt lat="47.64211" lon="6.21477">
        <ele>368</ele>
        <time>2020-08-24T09:11:29Z</time>
      </trkpt>
      <trkpt lat="47.64211" lon="6.2147">
        <ele>368</ele>
        <time>2020-08-24T09:11:34Z</time>
      </trkpt>
      <trkpt lat="47.64211" lon="6.21463">
        <ele>368</ele>
        <time>2020-08-24T09:12:01Z</time>
      </trkpt>
      <trkpt lat="47.64212" lon="6.21456">
        <ele>368</ele>
        <time>2020-08-24T09:12:13Z</time>
      </trkpt>
      <trkpt lat="47.64212" lon="6.21448">
        <ele>368</ele>
        <time>2020-08-24T09:12:16Z</time>
      </trkpt>
      <trkpt lat="47.64212" lon="6.2144">
        <ele>368</ele>
        <time>2020-08-24T09:12:21Z</time>
      </trkpt>
      <trkpt lat="47.64211" lon="6.21431">
        <ele>368</ele>
        <time>2020-08-24T09:12:24Z</time>
      </trkpt>
      <trkpt lat="47.6421" lon="6.21422">
        <ele>367</ele>
        <time>2020-08-24T09:12:27Z</time>
      </trkpt>
      <trkpt lat="47.6421" lon="6.21414">
        <ele>366</ele>
        <time>2020-08-24T09:12:29Z</time>
      </trkpt>
      <trkpt lat="47.64209" lon="6.21407">
        <ele>366</ele>
        <time>2020-08-24T09:12:31Z</time>
      </trkpt>
      <trkpt lat="47.64208" lon="6.21396">
        <ele>366</ele>
        <time>2020-08-24T09:12:39Z</time>
      </trkpt>
      <trkpt lat="47.64198" lon="6.2139">
        <ele>366</ele>
        <time>2020-08-24T09:12:48Z</time>
      </trkpt>
      <trkpt lat="47.64192" lon="6.21387">
        <ele>365</ele>
        <time>2020-08-24T09:12:52Z</time>
      </trkpt>
      <trkpt lat="47.64183" lon="6.21383">
        <ele>365</ele>
        <time>2020-08-24T09:12:58Z</time>
      </trkpt>
      <trkpt lat="47.64178" lon="6.21382">
        <ele>365</ele>
        <time>2020-08-24T09:13:00Z</time>
      </trkpt>
      <trkpt lat="47.64172" lon="6.21382">
        <ele>365</ele>
        <time>2020-08-24T09:13:04Z</time>
      </trkpt>
      <trkpt lat="47.64167" lon="6.21385">
        <ele>367</ele>
        <time>2020-08-24T09:13:06Z</time>
      </trkpt>
      <trkpt lat="47.64155" lon="6.21391">
        <ele>367</ele>
        <time>2020-08-24T09:13:15Z</time>
      </trkpt>
      <trkpt lat="47.64152" lon="6.21386">
        <ele>367</ele>
        <time>2020-08-24T09:13:35Z</time>
      </trkpt>
      <trkpt lat="47.64152" lon="6.21379">
        <ele>367</ele>
        <time>2020-08-24T09:13:39Z</time>
      </trkpt>
      <trkpt lat="47.64147" lon="6.21366">
        <ele>366</ele>
        <time>2020-08-24T09:13:46Z</time>
      </trkpt>
      <trkpt lat="47.64142" lon="6.21351">
        <ele>366</ele>
        <time>2020-08-24T09:13:52Z</time>
      </trkpt>
      <trkpt lat="47.6414" lon="6.21344">
        <ele>366</ele>
        <time>2020-08-24T09:13:55Z</time>
      </trkpt>
      <trkpt lat="47.64138" lon="6.21336">
        <ele>366</ele>
        <time>2020-08-24T09:13:58Z</time>
      </trkpt>
      <trkpt lat="47.64136" lon="6.21328">
        <ele>364</ele>
        <time>2020-08-24T09:14:00Z</time>
      </trkpt>
      <trkpt lat="47.64135" lon="6.21321">
        <ele>364</ele>
        <time>2020-08-24T09:14:04Z</time>
      </trkpt>
      <trkpt lat="47.64131" lon="6.21309">
        <ele>365</ele>
        <time>2020-08-24T09:14:11Z</time>
      </trkpt>
      <trkpt lat="47.64133" lon="6.21315">
        <ele>364</ele>
        <time>2020-08-24T09:14:41Z</time>
      </trkpt>
      <trkpt lat="47.64134" lon="6.21322">
        <ele>364</ele>
        <time>2020-08-24T09:14:46Z</time>
      </trkpt>
      <trkpt lat="47.64135" lon="6.21328">
        <ele>364</ele>
        <time>2020-08-24T09:14:50Z</time>
      </trkpt>
      <trkpt lat="47.64137" lon="6.21335">
        <ele>366</ele>
        <time>2020-08-24T09:14:55Z</time>
      </trkpt>
      <trkpt lat="47.6414" lon="6.2134">
        <ele>366</ele>
        <time>2020-08-24T09:15:09Z</time>
      </trkpt>
      <trkpt lat="47.64143" lon="6.21346">
        <ele>366</ele>
        <time>2020-08-24T09:15:12Z</time>
      </trkpt>
      <trkpt lat="47.64145" lon="6.21354">
        <ele>366</ele>
        <time>2020-08-24T09:15:16Z</time>
      </trkpt>
      <trkpt lat="47.64146" lon="6.21362">
        <ele>366</ele>
        <time>2020-08-24T09:15:19Z</time>
      </trkpt>
      <trkpt lat="47.64145" lon="6.21378">
        <ele>367</ele>
        <time>2020-08-24T09:15:21Z</time>
      </trkpt>
      <trkpt lat="47.64145" lon="6.21386">
        <ele>367</ele>
        <time>2020-08-24T09:15:29Z</time>
      </trkpt>
      <trkpt lat="47.64143" lon="6.21391">
        <ele>367</ele>
        <time>2020-08-24T09:15:34Z</time>
      </trkpt>
      <trkpt lat="47.64138" lon="6.21396">
        <ele>367</ele>
        <time>2020-08-24T09:15:39Z</time>
      </trkpt>
      <trkpt lat="47.64134" lon="6.21401">
        <ele>367</ele>
        <time>2020-08-24T09:15:42Z</time>
      </trkpt>
      <trkpt lat="47.64129" lon="6.21406">
        <ele>367</ele>
        <time>2020-08-24T09:15:46Z</time>
      </trkpt>
      <trkpt lat="47.64124" lon="6.21413">
        <ele>367</ele>
        <time>2020-08-24T09:15:50Z</time>
      </trkpt>
      <trkpt lat="47.6412" lon="6.21417">
        <ele>368</ele>
        <time>2020-08-24T09:15:55Z</time>
      </trkpt>
      <trkpt lat="47.6411" lon="6.21424">
        <ele>368</ele>
        <time>2020-08-24T09:15:58Z</time>
      </trkpt>
      <trkpt lat="47.64105" lon="6.21426">
        <ele>368</ele>
        <time>2020-08-24T09:16:02Z</time>
      </trkpt>
      <trkpt lat="47.64099" lon="6.2143">
        <ele>369</ele>
        <time>2020-08-24T09:16:10Z</time>
      </trkpt>
      <trkpt lat="47.64094" lon="6.21432">
        <ele>369</ele>
        <time>2020-08-24T09:16:15Z</time>
      </trkpt>
      <trkpt lat="47.6409" lon="6.21435">
        <ele>369</ele>
        <time>2020-08-24T09:16:18Z</time>
      </trkpt>
      <trkpt lat="47.64086" lon="6.21439">
        <ele>369</ele>
        <time>2020-08-24T09:16:21Z</time>
      </trkpt>
      <trkpt lat="47.64076" lon="6.21445">
        <ele>369</ele>
        <time>2020-08-24T09:16:29Z</time>
      </trkpt>
      <trkpt lat="47.64067" lon="6.21449">
        <ele>369</ele>
        <time>2020-08-24T09:16:36Z</time>
      </trkpt>
      <trkpt lat="47.64062" lon="6.21451">
        <ele>369</ele>
        <time>2020-08-24T09:16:39Z</time>
      </trkpt>
      <trkpt lat="47.64056" lon="6.21453">
        <ele>369</ele>
        <time>2020-08-24T09:16:42Z</time>
      </trkpt>
      <trkpt lat="47.64047" lon="6.21456">
        <ele>369</ele>
        <time>2020-08-24T09:16:48Z</time>
      </trkpt>
      <trkpt lat="47.64043" lon="6.21458">
        <ele>369</ele>
        <time>2020-08-24T09:16:50Z</time>
      </trkpt>
      <trkpt lat="47.64035" lon="6.21453">
        <ele>369</ele>
        <time>2020-08-24T09:16:52Z</time>
      </trkpt>
      <trkpt lat="47.64033" lon="6.21443">
        <ele>370</ele>
        <time>2020-08-24T09:17:03Z</time>
      </trkpt>
      <trkpt lat="47.64031" lon="6.21437">
        <ele>370</ele>
        <time>2020-08-24T09:17:12Z</time>
      </trkpt>
      <trkpt lat="47.64029" lon="6.21422">
        <ele>370</ele>
        <time>2020-08-24T09:17:16Z</time>
      </trkpt>
      <trkpt lat="47.64028" lon="6.21414">
        <ele>372</ele>
        <time>2020-08-24T09:17:19Z</time>
      </trkpt>
      <trkpt lat="47.64027" lon="6.21408">
        <ele>372</ele>
        <time>2020-08-24T09:17:27Z</time>
      </trkpt>
      <trkpt lat="47.64026" lon="6.214">
        <ele>372</ele>
        <time>2020-08-24T09:17:31Z</time>
      </trkpt>
      <trkpt lat="47.64025" lon="6.21393">
        <ele>372</ele>
        <time>2020-08-24T09:17:34Z</time>
      </trkpt>
      <trkpt lat="47.64025" lon="6.21386">
        <ele>372</ele>
        <time>2020-08-24T09:17:39Z</time>
      </trkpt>
      <trkpt lat="47.64024" lon="6.21368">
        <ele>372</ele>
        <time>2020-08-24T09:17:45Z</time>
      </trkpt>
      <trkpt lat="47.64025" lon="6.21359">
        <ele>373</ele>
        <time>2020-08-24T09:17:53Z</time>
      </trkpt>
      <trkpt lat="47.64024" lon="6.21344">
        <ele>373</ele>
        <time>2020-08-24T09:17:57Z</time>
      </trkpt>
      <trkpt lat="47.64023" lon="6.21337">
        <ele>373</ele>
        <time>2020-08-24T09:18:00Z</time>
      </trkpt>
      <trkpt lat="47.64023" lon="6.2133">
        <ele>374</ele>
        <time>2020-08-24T09:18:04Z</time>
      </trkpt>
      <trkpt lat="47.64022" lon="6.21323">
        <ele>374</ele>
        <time>2020-08-24T09:18:07Z</time>
      </trkpt>
      <trkpt lat="47.64021" lon="6.21313">
        <ele>374</ele>
        <time>2020-08-24T09:18:14Z</time>
      </trkpt>
      <trkpt lat="47.6402" lon="6.21303">
        <ele>374</ele>
        <time>2020-08-24T09:18:16Z</time>
      </trkpt>
      <trkpt lat="47.64018" lon="6.21284">
        <ele>374</ele>
        <time>2020-08-24T09:18:19Z</time>
      </trkpt>
      <trkpt lat="47.64017" lon="6.21277">
        <ele>374</ele>
        <time>2020-08-24T09:18:21Z</time>
      </trkpt>
      <trkpt lat="47.64017" lon="6.21258">
        <ele>375</ele>
        <time>2020-08-24T09:18:26Z</time>
      </trkpt>
      <trkpt lat="47.64016" lon="6.21248">
        <ele>375</ele>
        <time>2020-08-24T09:18:29Z</time>
      </trkpt>
      <trkpt lat="47.64015" lon="6.21233">
        <ele>375</ele>
        <time>2020-08-24T09:18:33Z</time>
      </trkpt>
      <trkpt lat="47.64015" lon="6.21225">
        <ele>375</ele>
        <time>2020-08-24T09:18:35Z</time>
      </trkpt>
      <trkpt lat="47.64015" lon="6.21216">
        <ele>375</ele>
        <time>2020-08-24T09:18:37Z</time>
      </trkpt>
      <trkpt lat="47.64014" lon="6.21194">
        <ele>376</ele>
        <time>2020-08-24T09:18:39Z</time>
      </trkpt>
      <trkpt lat="47.64015" lon="6.21185">
        <ele>376</ele>
        <time>2020-08-24T09:18:41Z</time>
      </trkpt>
      <trkpt lat="47.64015" lon="6.21178">
        <ele>376</ele>
        <time>2020-08-24T09:18:47Z</time>
      </trkpt>
      <trkpt lat="47.64015" lon="6.21169">
        <ele>377</ele>
        <time>2020-08-24T09:18:50Z</time>
      </trkpt>
      <trkpt lat="47.64016" lon="6.21144">
        <ele>377</ele>
        <time>2020-08-24T09:18:56Z</time>
      </trkpt>
      <trkpt lat="47.64016" lon="6.21137">
        <ele>377</ele>
        <time>2020-08-24T09:18:58Z</time>
      </trkpt>
      <trkpt lat="47.64016" lon="6.21126">
        <ele>377</ele>
        <time>2020-08-24T09:19:00Z</time>
      </trkpt>
      <trkpt lat="47.64017" lon="6.21118">
        <ele>377</ele>
        <time>2020-08-24T09:19:02Z</time>
      </trkpt>
      <trkpt lat="47.64017" lon="6.2111">
        <ele>377</ele>
        <time>2020-08-24T09:19:04Z</time>
      </trkpt>
      <trkpt lat="47.64017" lon="6.21091">
        <ele>378</ele>
        <time>2020-08-24T09:19:08Z</time>
      </trkpt>
      <trkpt lat="47.64017" lon="6.21082">
        <ele>379</ele>
        <time>2020-08-24T09:19:10Z</time>
      </trkpt>
      <trkpt lat="47.64019" lon="6.21066">
        <ele>379</ele>
        <time>2020-08-24T09:19:14Z</time>
      </trkpt>
      <trkpt lat="47.64019" lon="6.21048">
        <ele>378</ele>
        <time>2020-08-24T09:19:18Z</time>
      </trkpt>
      <trkpt lat="47.64019" lon="6.21039">
        <ele>378</ele>
        <time>2020-08-24T09:19:21Z</time>
      </trkpt>
      <trkpt lat="47.64019" lon="6.21031">
        <ele>378</ele>
        <time>2020-08-24T09:19:23Z</time>
      </trkpt>
      <trkpt lat="47.64019" lon="6.21021">
        <ele>378</ele>
        <time>2020-08-24T09:19:25Z</time>
      </trkpt>
      <trkpt lat="47.64019" lon="6.20994">
        <ele>379</ele>
        <time>2020-08-24T09:19:31Z</time>
      </trkpt>
      <trkpt lat="47.64019" lon="6.20978">
        <ele>379</ele>
        <time>2020-08-24T09:19:35Z</time>
      </trkpt>
      <trkpt lat="47.64018" lon="6.20962">
        <ele>380</ele>
        <time>2020-08-24T09:19:38Z</time>
      </trkpt>
      <trkpt lat="47.64017" lon="6.20953">
        <ele>380</ele>
        <time>2020-08-24T09:19:40Z</time>
      </trkpt>
      <trkpt lat="47.64016" lon="6.20943">
        <ele>380</ele>
        <time>2020-08-24T09:19:42Z</time>
      </trkpt>
      <trkpt lat="47.64015" lon="6.20934">
        <ele>380</ele>
        <time>2020-08-24T09:19:44Z</time>
      </trkpt>
      <trkpt lat="47.64015" lon="6.20923">
        <ele>380</ele>
        <time>2020-08-24T09:19:46Z</time>
      </trkpt>
      <trkpt lat="47.64015" lon="6.20916">
        <ele>381</ele>
        <time>2020-08-24T09:19:48Z</time>
      </trkpt>
      <trkpt lat="47.64014" lon="6.20906">
        <ele>381</ele>
        <time>2020-08-24T09:19:50Z</time>
      </trkpt>
      <trkpt lat="47.64012" lon="6.2089">
        <ele>381</ele>
        <time>2020-08-24T09:19:53Z</time>
      </trkpt>
      <trkpt lat="47.64009" lon="6.20873">
        <ele>381</ele>
        <time>2020-08-24T09:19:57Z</time>
      </trkpt>
      <trkpt lat="47.64007" lon="6.2086">
        <ele>381</ele>
        <time>2020-08-24T09:19:59Z</time>
      </trkpt>
      <trkpt lat="47.64005" lon="6.2085">
        <ele>381</ele>
        <time>2020-08-24T09:20:01Z</time>
      </trkpt>
      <trkpt lat="47.64002" lon="6.20832">
        <ele>381</ele>
        <time>2020-08-24T09:20:04Z</time>
      </trkpt>
      <trkpt lat="47.64" lon="6.20823">
        <ele>381</ele>
        <time>2020-08-24T09:20:06Z</time>
      </trkpt>
      <trkpt lat="47.63999" lon="6.20817">
        <ele>379</ele>
        <time>2020-08-24T09:20:07Z</time>
      </trkpt>
      <trkpt lat="47.63998" lon="6.20809">
        <ele>379</ele>
        <time>2020-08-24T09:20:08Z</time>
      </trkpt>
      <trkpt lat="47.63996" lon="6.20802">
        <ele>378</ele>
        <time>2020-08-24T09:20:09Z</time>
      </trkpt>
      <trkpt lat="47.63995" lon="6.20793">
        <ele>378</ele>
        <time>2020-08-24T09:20:11Z</time>
      </trkpt>
      <trkpt lat="47.63993" lon="6.20784">
        <ele>378</ele>
        <time>2020-08-24T09:20:12Z</time>
      </trkpt>
      <trkpt lat="47.63992" lon="6.20778">
        <ele>378</ele>
        <time>2020-08-24T09:20:13Z</time>
      </trkpt>
      <trkpt lat="47.63991" lon="6.2077">
        <ele>378</ele>
        <time>2020-08-24T09:20:14Z</time>
      </trkpt>
      <trkpt lat="47.6399" lon="6.20763">
        <ele>378</ele>
        <time>2020-08-24T09:20:15Z</time>
      </trkpt>
      <trkpt lat="47.63987" lon="6.20749">
        <ele>378</ele>
        <time>2020-08-24T09:20:17Z</time>
      </trkpt>
      <trkpt lat="47.63985" lon="6.20742">
        <ele>378</ele>
        <time>2020-08-24T09:20:18Z</time>
      </trkpt>
      <trkpt lat="47.63984" lon="6.20733">
        <ele>377</ele>
        <time>2020-08-24T09:20:19Z</time>
      </trkpt>
      <trkpt lat="47.63982" lon="6.20724">
        <ele>377</ele>
        <time>2020-08-24T09:20:20Z</time>
      </trkpt>
      <trkpt lat="47.63973" lon="6.2068">
        <ele>376</ele>
        <time>2020-08-24T09:20:21Z</time>
      </trkpt>
      <trkpt lat="47.63971" lon="6.20672">
        <ele>376</ele>
        <time>2020-08-24T09:20:22Z</time>
      </trkpt>
      <trkpt lat="47.6397" lon="6.20664">
        <ele>374</ele>
        <time>2020-08-24T09:20:23Z</time>
      </trkpt>
      <trkpt lat="47.63969" lon="6.20656">
        <ele>374</ele>
        <time>2020-08-24T09:20:24Z</time>
      </trkpt>
      <trkpt lat="47.63968" lon="6.20649">
        <ele>374</ele>
        <time>2020-08-24T09:20:25Z</time>
      </trkpt>
      <trkpt lat="47.63966" lon="6.20641">
        <ele>374</ele>
        <time>2020-08-24T09:20:26Z</time>
      </trkpt>
      <trkpt lat="47.63965" lon="6.20632">
        <ele>373</ele>
        <time>2020-08-24T09:20:27Z</time>
      </trkpt>
      <trkpt lat="47.63964" lon="6.20624">
        <ele>373</ele>
        <time>2020-08-24T09:20:28Z</time>
      </trkpt>
      <trkpt lat="47.63962" lon="6.20616">
        <ele>373</ele>
        <time>2020-08-24T09:20:29Z</time>
      </trkpt>
      <trkpt lat="47.63961" lon="6.20607">
        <ele>373</ele>
        <time>2020-08-24T09:20:30Z</time>
      </trkpt>
      <trkpt lat="47.63959" lon="6.20597">
        <ele>372</ele>
        <time>2020-08-24T09:20:31Z</time>
      </trkpt>
      <trkpt lat="47.63957" lon="6.20588">
        <ele>372</ele>
        <time>2020-08-24T09:20:32Z</time>
      </trkpt>
      <trkpt lat="47.63956" lon="6.20578">
        <ele>370</ele>
        <time>2020-08-24T09:20:33Z</time>
      </trkpt>
      <trkpt lat="47.63954" lon="6.20568">
        <ele>370</ele>
        <time>2020-08-24T09:20:34Z</time>
      </trkpt>
      <trkpt lat="47.63952" lon="6.20559">
        <ele>370</ele>
        <time>2020-08-24T09:20:35Z</time>
      </trkpt>
      <trkpt lat="47.63951" lon="6.20549">
        <ele>370</ele>
        <time>2020-08-24T09:20:36Z</time>
      </trkpt>
      <trkpt lat="47.63949" lon="6.20539">
        <ele>370</ele>
        <time>2020-08-24T09:20:37Z</time>
      </trkpt>
      <trkpt lat="47.63947" lon="6.20529">
        <ele>370</ele>
        <time>2020-08-24T09:20:38Z</time>
      </trkpt>
      <trkpt lat="47.63945" lon="6.20519">
        <ele>370</ele>
        <time>2020-08-24T09:20:39Z</time>
      </trkpt>
      <trkpt lat="47.63943" lon="6.20508">
        <ele>370</ele>
        <time>2020-08-24T09:20:40Z</time>
      </trkpt>
      <trkpt lat="47.63941" lon="6.20497">
        <ele>368</ele>
        <time>2020-08-24T09:20:41Z</time>
      </trkpt>
      <trkpt lat="47.6394" lon="6.20486">
        <ele>368</ele>
        <time>2020-08-24T09:20:42Z</time>
      </trkpt>
      <trkpt lat="47.63939" lon="6.20475">
        <ele>368</ele>
        <time>2020-08-24T09:20:43Z</time>
      </trkpt>
      <trkpt lat="47.63938" lon="6.20464">
        <ele>368</ele>
        <time>2020-08-24T09:20:44Z</time>
      </trkpt>
      <trkpt lat="47.63938" lon="6.20452">
        <ele>368</ele>
        <time>2020-08-24T09:20:45Z</time>
      </trkpt>
      <trkpt lat="47.63937" lon="6.20441">
        <ele>367</ele>
        <time>2020-08-24T09:20:46Z</time>
      </trkpt>
      <trkpt lat="47.63937" lon="6.2043">
        <ele>367</ele>
        <time>2020-08-24T09:20:47Z</time>
      </trkpt>
      <trkpt lat="47.63936" lon="6.20418">
        <ele>367</ele>
        <time>2020-08-24T09:20:48Z</time>
      </trkpt>
      <trkpt lat="47.63936" lon="6.20406">
        <ele>366</ele>
        <time>2020-08-24T09:20:49Z</time>
      </trkpt>
      <trkpt lat="47.63935" lon="6.20393">
        <ele>366</ele>
        <time>2020-08-24T09:20:50Z</time>
      </trkpt>
      <trkpt lat="47.63934" lon="6.2038">
        <ele>365</ele>
        <time>2020-08-24T09:20:51Z</time>
      </trkpt>
      <trkpt lat="47.63933" lon="6.20367">
        <ele>365</ele>
        <time>2020-08-24T09:20:52Z</time>
      </trkpt>
      <trkpt lat="47.63933" lon="6.20355">
        <ele>365</ele>
        <time>2020-08-24T09:20:53Z</time>
      </trkpt>
      <trkpt lat="47.63932" lon="6.20342">
        <ele>365</ele>
        <time>2020-08-24T09:20:54Z</time>
      </trkpt>
      <trkpt lat="47.63932" lon="6.20329">
        <ele>364</ele>
        <time>2020-08-24T09:20:55Z</time>
      </trkpt>
      <trkpt lat="47.63932" lon="6.20316">
        <ele>363</ele>
        <time>2020-08-24T09:20:56Z</time>
      </trkpt>
      <trkpt lat="47.63932" lon="6.20305">
        <ele>363</ele>
        <time>2020-08-24T09:20:57Z</time>
      </trkpt>
      <trkpt lat="47.63932" lon="6.20294">
        <ele>363</ele>
        <time>2020-08-24T09:20:58Z</time>
      </trkpt>
      <trkpt lat="47.63932" lon="6.20284">
        <ele>363</ele>
        <time>2020-08-24T09:20:59Z</time>
      </trkpt>
      <trkpt lat="47.63932" lon="6.20275">
        <ele>363</ele>
        <time>2020-08-24T09:21:00Z</time>
      </trkpt>
      <trkpt lat="47.63933" lon="6.20266">
        <ele>363</ele>
        <time>2020-08-24T09:21:01Z</time>
      </trkpt>
      <trkpt lat="47.63933" lon="6.20258">
        <ele>363</ele>
        <time>2020-08-24T09:21:02Z</time>
      </trkpt>
      <trkpt lat="47.63934" lon="6.20251">
        <ele>363</ele>
        <time>2020-08-24T09:21:03Z</time>
      </trkpt>
      <trkpt lat="47.63935" lon="6.20243">
        <ele>362</ele>
        <time>2020-08-24T09:21:04Z</time>
      </trkpt>
      <trkpt lat="47.63936" lon="6.20236">
        <ele>361</ele>
        <time>2020-08-24T09:21:05Z</time>
      </trkpt>
      <trkpt lat="47.63937" lon="6.20223">
        <ele>361</ele>
        <time>2020-08-24T09:21:07Z</time>
      </trkpt>
      <trkpt lat="47.63939" lon="6.20213">
        <ele>361</ele>
        <time>2020-08-24T09:21:09Z</time>
      </trkpt>
      <trkpt lat="47.63943" lon="6.20206">
        <ele>361</ele>
        <time>2020-08-24T09:21:11Z</time>
      </trkpt>
      <trkpt lat="47.63947" lon="6.20202">
        <ele>361</ele>
        <time>2020-08-24T09:21:13Z</time>
      </trkpt>
      <trkpt lat="47.63952" lon="6.20203">
        <ele>361</ele>
        <time>2020-08-24T09:21:20Z</time>
      </trkpt>
      <trkpt lat="47.63958" lon="6.202">
        <ele>360</ele>
        <time>2020-08-24T09:21:22Z</time>
      </trkpt>
      <trkpt lat="47.63962" lon="6.20198">
        <ele>360</ele>
        <time>2020-08-24T09:21:24Z</time>
      </trkpt>
      <trkpt lat="47.63969" lon="6.20195">
        <ele>360</ele>
        <time>2020-08-24T09:21:26Z</time>
      </trkpt>
      <trkpt lat="47.63974" lon="6.20194">
        <ele>360</ele>
        <time>2020-08-24T09:21:28Z</time>
      </trkpt>
      <trkpt lat="47.63979" lon="6.20192">
        <ele>360</ele>
        <time>2020-08-24T09:21:30Z</time>
      </trkpt>
      <trkpt lat="47.63992" lon="6.20188">
        <ele>360</ele>
        <time>2020-08-24T09:21:35Z</time>
      </trkpt>
      <trkpt lat="47.63998" lon="6.20186">
        <ele>360</ele>
        <time>2020-08-24T09:21:37Z</time>
      </trkpt>
      <trkpt lat="47.6401" lon="6.20182">
        <ele>358</ele>
        <time>2020-08-24T09:21:42Z</time>
      </trkpt>
      <trkpt lat="47.64017" lon="6.2018">
        <ele>357</ele>
        <time>2020-08-24T09:21:45Z</time>
      </trkpt>
      <trkpt lat="47.64023" lon="6.20178">
        <ele>357</ele>
        <time>2020-08-24T09:21:48Z</time>
      </trkpt>
      <trkpt lat="47.64029" lon="6.20176">
        <ele>357</ele>
        <time>2020-08-24T09:21:51Z</time>
      </trkpt>
      <trkpt lat="47.64033" lon="6.20174">
        <ele>357</ele>
        <time>2020-08-24T09:21:54Z</time>
      </trkpt>
      <trkpt lat="47.64038" lon="6.20172">
        <ele>356</ele>
        <time>2020-08-24T09:21:57Z</time>
      </trkpt>
      <trkpt lat="47.64043" lon="6.20168">
        <ele>356</ele>
        <time>2020-08-24T09:22:00Z</time>
      </trkpt>
      <trkpt lat="47.64048" lon="6.20166">
        <ele>356</ele>
        <time>2020-08-24T09:23:03Z</time>
      </trkpt>
      <trkpt lat="47.64052" lon="6.20162">
        <ele>355</ele>
        <time>2020-08-24T09:23:53Z</time>
      </trkpt>
      <trkpt lat="47.64057" lon="6.20157">
        <ele>355</ele>
        <time>2020-08-24T09:23:56Z</time>
      </trkpt>
      <trkpt lat="47.64058" lon="6.20147">
        <ele>355</ele>
        <time>2020-08-24T09:24:01Z</time>
      </trkpt>
      <trkpt lat="47.64063" lon="6.20144">
        <ele>355</ele>
        <time>2020-08-24T09:24:09Z</time>
      </trkpt>
      <trkpt lat="47.64068" lon="6.20138">
        <ele>355</ele>
        <time>2020-08-24T09:24:12Z</time>
      </trkpt>
      <trkpt lat="47.64072" lon="6.20133">
        <ele>355</ele>
        <time>2020-08-24T09:24:13Z</time>
      </trkpt>
      <trkpt lat="47.64078" lon="6.20117">
        <ele>355</ele>
        <time>2020-08-24T09:24:17Z</time>
      </trkpt>
      <trkpt lat="47.6408" lon="6.2011">
        <ele>355</ele>
        <time>2020-08-24T09:24:19Z</time>
      </trkpt>
      <trkpt lat="47.64082" lon="6.201">
        <ele>355</ele>
        <time>2020-08-24T09:24:22Z</time>
      </trkpt>
      <trkpt lat="47.64085" lon="6.20089">
        <ele>354</ele>
        <time>2020-08-24T09:24:25Z</time>
      </trkpt>
      <trkpt lat="47.64087" lon="6.2008">
        <ele>355</ele>
        <time>2020-08-24T09:24:26Z</time>
      </trkpt>
      <trkpt lat="47.64088" lon="6.20071">
        <ele>354</ele>
        <time>2020-08-24T09:24:33Z</time>
      </trkpt>
      <trkpt lat="47.64088" lon="6.2006">
        <ele>354</ele>
        <time>2020-08-24T09:24:35Z</time>
      </trkpt>
      <trkpt lat="47.64089" lon="6.20043">
        <ele>354</ele>
        <time>2020-08-24T09:24:37Z</time>
      </trkpt>
      <trkpt lat="47.64089" lon="6.20036">
        <ele>354</ele>
        <time>2020-08-24T09:24:43Z</time>
      </trkpt>
      <trkpt lat="47.64089" lon="6.20028">
        <ele>354</ele>
        <time>2020-08-24T09:24:45Z</time>
      </trkpt>
      <trkpt lat="47.64089" lon="6.20018">
        <ele>355</ele>
        <time>2020-08-24T09:24:48Z</time>
      </trkpt>
      <trkpt lat="47.64089" lon="6.20009">
        <ele>355</ele>
        <time>2020-08-24T09:24:51Z</time>
      </trkpt>
      <trkpt lat="47.64091" lon="6.20002">
        <ele>355</ele>
        <time>2020-08-24T09:24:53Z</time>
      </trkpt>
      <trkpt lat="47.641" lon="6.19977">
        <ele>354</ele>
        <time>2020-08-24T09:24:59Z</time>
      </trkpt>
      <trkpt lat="47.64103" lon="6.19968">
        <ele>354</ele>
        <time>2020-08-24T09:25:02Z</time>
      </trkpt>
      <trkpt lat="47.64107" lon="6.19962">
        <ele>354</ele>
        <time>2020-08-24T09:25:04Z</time>
      </trkpt>
      <trkpt lat="47.64111" lon="6.19956">
        <ele>354</ele>
        <time>2020-08-24T09:25:06Z</time>
      </trkpt>
      <trkpt lat="47.64117" lon="6.19949">
        <ele>354</ele>
        <time>2020-08-24T09:25:08Z</time>
      </trkpt>
      <trkpt lat="47.64122" lon="6.19943">
        <ele>354</ele>
        <time>2020-08-24T09:25:10Z</time>
      </trkpt>
      <trkpt lat="47.64127" lon="6.19938">
        <ele>353</ele>
        <time>2020-08-24T09:25:12Z</time>
      </trkpt>
      <trkpt lat="47.6413" lon="6.19934">
        <ele>353</ele>
        <time>2020-08-24T09:25:13Z</time>
      </trkpt>
      <trkpt lat="47.64135" lon="6.19927">
        <ele>353</ele>
        <time>2020-08-24T09:25:15Z</time>
      </trkpt>
      <trkpt lat="47.64138" lon="6.19922">
        <ele>353</ele>
        <time>2020-08-24T09:25:16Z</time>
      </trkpt>
      <trkpt lat="47.64142" lon="6.19915">
        <ele>353</ele>
        <time>2020-08-24T09:25:18Z</time>
      </trkpt>
      <trkpt lat="47.64147" lon="6.19906">
        <ele>353</ele>
        <time>2020-08-24T09:25:20Z</time>
      </trkpt>
      <trkpt lat="47.64154" lon="6.19891">
        <ele>353</ele>
        <time>2020-08-24T09:25:23Z</time>
      </trkpt>
      <trkpt lat="47.64159" lon="6.19881">
        <ele>353</ele>
        <time>2020-08-24T09:25:25Z</time>
      </trkpt>
      <trkpt lat="47.64169" lon="6.19869">
        <ele>350</ele>
        <time>2020-08-24T09:25:28Z</time>
      </trkpt>
      <trkpt lat="47.64173" lon="6.19865">
        <ele>350</ele>
        <time>2020-08-24T09:25:29Z</time>
      </trkpt>
      <trkpt lat="47.64179" lon="6.19862">
        <ele>350</ele>
        <time>2020-08-24T09:25:30Z</time>
      </trkpt>
      <trkpt lat="47.6419" lon="6.19855">
        <ele>350</ele>
        <time>2020-08-24T09:25:34Z</time>
      </trkpt>
      <trkpt lat="47.64195" lon="6.19849">
        <ele>350</ele>
        <time>2020-08-24T09:25:36Z</time>
      </trkpt>
      <trkpt lat="47.64198" lon="6.19844">
        <ele>350</ele>
        <time>2020-08-24T09:25:38Z</time>
      </trkpt>
      <trkpt lat="47.64203" lon="6.19826">
        <ele>349</ele>
        <time>2020-08-24T09:25:43Z</time>
      </trkpt>
      <trkpt lat="47.64207" lon="6.19808">
        <ele>349</ele>
        <time>2020-08-24T09:25:44Z</time>
      </trkpt>
      <trkpt lat="47.64208" lon="6.19801">
        <ele>349</ele>
        <time>2020-08-24T09:25:50Z</time>
      </trkpt>
      <trkpt lat="47.64209" lon="6.19792">
        <ele>348</ele>
        <time>2020-08-24T09:25:52Z</time>
      </trkpt>
      <trkpt lat="47.64211" lon="6.19774">
        <ele>348</ele>
        <time>2020-08-24T09:25:55Z</time>
      </trkpt>
      <trkpt lat="47.64212" lon="6.1976">
        <ele>348</ele>
        <time>2020-08-24T09:25:57Z</time>
      </trkpt>
      <trkpt lat="47.64211" lon="6.19747">
        <ele>347</ele>
        <time>2020-08-24T09:25:59Z</time>
      </trkpt>
      <trkpt lat="47.6421" lon="6.19737">
        <ele>347</ele>
        <time>2020-08-24T09:26:01Z</time>
      </trkpt>
      <trkpt lat="47.64208" lon="6.19728">
        <ele>347</ele>
        <time>2020-08-24T09:26:03Z</time>
      </trkpt>
      <trkpt lat="47.64208" lon="6.19718">
        <ele>347</ele>
        <time>2020-08-24T09:26:05Z</time>
      </trkpt>
      <trkpt lat="47.64209" lon="6.19706">
        <ele>347</ele>
        <time>2020-08-24T09:26:07Z</time>
      </trkpt>
      <trkpt lat="47.64212" lon="6.19689">
        <ele>346</ele>
        <time>2020-08-24T09:26:10Z</time>
      </trkpt>
      <trkpt lat="47.64213" lon="6.1968">
        <ele>346</ele>
        <time>2020-08-24T09:26:11Z</time>
      </trkpt>
      <trkpt lat="47.64213" lon="6.1967">
        <ele>346</ele>
        <time>2020-08-24T09:26:13Z</time>
      </trkpt>
      <trkpt lat="47.64214" lon="6.19652">
        <ele>345</ele>
        <time>2020-08-24T09:26:16Z</time>
      </trkpt>
      <trkpt lat="47.64214" lon="6.19643">
        <ele>345</ele>
        <time>2020-08-24T09:26:18Z</time>
      </trkpt>
      <trkpt lat="47.64214" lon="6.19636">
        <ele>345</ele>
        <time>2020-08-24T09:26:20Z</time>
      </trkpt>
      <trkpt lat="47.64213" lon="6.19629">
        <ele>345</ele>
        <time>2020-08-24T09:26:22Z</time>
      </trkpt>
      <trkpt lat="47.64205" lon="6.19614">
        <ele>345</ele>
        <time>2020-08-24T09:26:23Z</time>
      </trkpt>
      <trkpt lat="47.64204" lon="6.19607">
        <ele>345</ele>
        <time>2020-08-24T09:26:25Z</time>
      </trkpt>
      <trkpt lat="47.64203" lon="6.196">
        <ele>345</ele>
        <time>2020-08-24T09:26:32Z</time>
      </trkpt>
      <trkpt lat="47.64201" lon="6.1959">
        <ele>345</ele>
        <time>2020-08-24T09:26:34Z</time>
      </trkpt>
      <trkpt lat="47.64199" lon="6.19582">
        <ele>345</ele>
        <time>2020-08-24T09:26:36Z</time>
      </trkpt>
      <trkpt lat="47.64196" lon="6.19576">
        <ele>345</ele>
        <time>2020-08-24T09:26:38Z</time>
      </trkpt>
      <trkpt lat="47.64194" lon="6.19569">
        <ele>345</ele>
        <time>2020-08-24T09:26:40Z</time>
      </trkpt>
      <trkpt lat="47.64191" lon="6.19561">
        <ele>344</ele>
        <time>2020-08-24T09:26:42Z</time>
      </trkpt>
      <trkpt lat="47.64186" lon="6.19545">
        <ele>344</ele>
        <time>2020-08-24T09:26:47Z</time>
      </trkpt>
      <trkpt lat="47.64183" lon="6.19538">
        <ele>344</ele>
        <time>2020-08-24T09:26:49Z</time>
      </trkpt>
      <trkpt lat="47.64181" lon="6.19532">
        <ele>344</ele>
        <time>2020-08-24T09:26:51Z</time>
      </trkpt>
      <trkpt lat="47.64174" lon="6.19519">
        <ele>344</ele>
        <time>2020-08-24T09:26:51Z</time>
      </trkpt>
      <trkpt lat="47.64171" lon="6.19513">
        <ele>344</ele>
        <time>2020-08-24T09:26:59Z</time>
      </trkpt>
      <trkpt lat="47.64167" lon="6.19509">
        <ele>344</ele>
        <time>2020-08-24T09:27:01Z</time>
      </trkpt>
      <trkpt lat="47.64164" lon="6.19503">
        <ele>344</ele>
        <time>2020-08-24T09:27:03Z</time>
      </trkpt>
      <trkpt lat="47.64157" lon="6.19488">
        <ele>344</ele>
        <time>2020-08-24T09:27:07Z</time>
      </trkpt>
      <trkpt lat="47.64155" lon="6.19481">
        <ele>343</ele>
        <time>2020-08-24T09:27:09Z</time>
      </trkpt>
      <trkpt lat="47.64154" lon="6.19474">
        <ele>343</ele>
        <time>2020-08-24T09:27:11Z</time>
      </trkpt>
      <trkpt lat="47.64152" lon="6.19467">
        <ele>343</ele>
        <time>2020-08-24T09:27:13Z</time>
      </trkpt>
      <trkpt lat="47.6415" lon="6.1946">
        <ele>343</ele>
        <time>2020-08-24T09:27:15Z</time>
      </trkpt>
      <trkpt lat="47.64148" lon="6.19453">
        <ele>343</ele>
        <time>2020-08-24T09:27:16Z</time>
      </trkpt>
      <trkpt lat="47.64146" lon="6.19444">
        <ele>342</ele>
        <time>2020-08-24T09:27:18Z</time>
      </trkpt>
      <trkpt lat="47.64142" lon="6.19435">
        <ele>342</ele>
        <time>2020-08-24T09:27:20Z</time>
      </trkpt>
      <trkpt lat="47.64139" lon="6.19429">
        <ele>342</ele>
        <time>2020-08-24T09:27:21Z</time>
      </trkpt>
      <trkpt lat="47.64138" lon="6.19422">
        <ele>342</ele>
        <time>2020-08-24T09:27:22Z</time>
      </trkpt>
      <trkpt lat="47.64137" lon="6.19415">
        <ele>339</ele>
        <time>2020-08-24T09:27:24Z</time>
      </trkpt>
      <trkpt lat="47.64135" lon="6.19406">
        <ele>339</ele>
        <time>2020-08-24T09:27:25Z</time>
      </trkpt>
      <trkpt lat="47.64133" lon="6.19398">
        <ele>339</ele>
        <time>2020-08-24T09:27:26Z</time>
      </trkpt>
      <trkpt lat="47.64124" lon="6.19372">
        <ele>338</ele>
        <time>2020-08-24T09:27:26Z</time>
      </trkpt>
      <trkpt lat="47.6412" lon="6.19361">
        <ele>338</ele>
        <time>2020-08-24T09:27:28Z</time>
      </trkpt>
      <trkpt lat="47.64118" lon="6.19353">
        <ele>338</ele>
        <time>2020-08-24T09:27:35Z</time>
      </trkpt>
      <trkpt lat="47.64113" lon="6.19333">
        <ele>334</ele>
        <time>2020-08-24T09:27:39Z</time>
      </trkpt>
      <trkpt lat="47.64104" lon="6.19312">
        <ele>334</ele>
        <time>2020-08-24T09:27:44Z</time>
      </trkpt>
      <trkpt lat="47.641" lon="6.19302">
        <ele>333</ele>
        <time>2020-08-24T09:27:46Z</time>
      </trkpt>
      <trkpt lat="47.64097" lon="6.19295">
        <ele>333</ele>
        <time>2020-08-24T09:27:48Z</time>
      </trkpt>
      <trkpt lat="47.64094" lon="6.19289">
        <ele>333</ele>
        <time>2020-08-24T09:27:49Z</time>
      </trkpt>
      <trkpt lat="47.6409" lon="6.1928">
        <ele>332</ele>
        <time>2020-08-24T09:27:51Z</time>
      </trkpt>
      <trkpt lat="47.64082" lon="6.19267">
        <ele>333</ele>
        <time>2020-08-24T09:27:55Z</time>
      </trkpt>
      <trkpt lat="47.64074" lon="6.19253">
        <ele>333</ele>
        <time>2020-08-24T09:27:59Z</time>
      </trkpt>
      <trkpt lat="47.64066" lon="6.19242">
        <ele>330</ele>
        <time>2020-08-24T09:28:03Z</time>
      </trkpt>
      <trkpt lat="47.64058" lon="6.1923">
        <ele>329</ele>
        <time>2020-08-24T09:28:08Z</time>
      </trkpt>
      <trkpt lat="47.64053" lon="6.19223">
        <ele>329</ele>
        <time>2020-08-24T09:28:10Z</time>
      </trkpt>
      <trkpt lat="47.64045" lon="6.19208">
        <ele>328</ele>
        <time>2020-08-24T09:28:14Z</time>
      </trkpt>
      <trkpt lat="47.64037" lon="6.19194">
        <ele>328</ele>
        <time>2020-08-24T09:28:18Z</time>
      </trkpt>
      <trkpt lat="47.64033" lon="6.19188">
        <ele>328</ele>
        <time>2020-08-24T09:28:21Z</time>
      </trkpt>
      <trkpt lat="47.64024" lon="6.1918">
        <ele>327</ele>
        <time>2020-08-24T09:28:21Z</time>
      </trkpt>
      <trkpt lat="47.64021" lon="6.19175">
        <ele>327</ele>
        <time>2020-08-24T09:28:33Z</time>
      </trkpt>
      <trkpt lat="47.64018" lon="6.19169">
        <ele>327</ele>
        <time>2020-08-24T09:28:43Z</time>
      </trkpt>
      <trkpt lat="47.6402" lon="6.19159">
        <ele>323</ele>
        <time>2020-08-24T09:28:55Z</time>
      </trkpt>
      <trkpt lat="47.6402" lon="6.19152">
        <ele>322</ele>
        <time>2020-08-24T09:29:04Z</time>
      </trkpt>
      <trkpt lat="47.64024" lon="6.19133">
        <ele>321</ele>
        <time>2020-08-24T09:29:11Z</time>
      </trkpt>
      <trkpt lat="47.64026" lon="6.19126">
        <ele>321</ele>
        <time>2020-08-24T09:29:14Z</time>
      </trkpt>
      <trkpt lat="47.64028" lon="6.19118">
        <ele>321</ele>
        <time>2020-08-24T09:29:16Z</time>
      </trkpt>
      <trkpt lat="47.6403" lon="6.19112">
        <ele>320</ele>
        <time>2020-08-24T09:29:18Z</time>
      </trkpt>
      <trkpt lat="47.64033" lon="6.19106">
        <ele>320</ele>
        <time>2020-08-24T09:29:20Z</time>
      </trkpt>
      <trkpt lat="47.64037" lon="6.19091">
        <ele>320</ele>
        <time>2020-08-24T09:29:21Z</time>
      </trkpt>
      <trkpt lat="47.64039" lon="6.19084">
        <ele>319</ele>
        <time>2020-08-24T09:29:30Z</time>
      </trkpt>
      <trkpt lat="47.64038" lon="6.19066">
        <ele>314</ele>
        <time>2020-08-24T09:29:37Z</time>
      </trkpt>
      <trkpt lat="47.64039" lon="6.19057">
        <ele>314</ele>
        <time>2020-08-24T09:29:41Z</time>
      </trkpt>
      <trkpt lat="47.64041" lon="6.1905">
        <ele>314</ele>
        <time>2020-08-24T09:29:43Z</time>
      </trkpt>
      <trkpt lat="47.64043" lon="6.19035">
        <ele>313</ele>
        <time>2020-08-24T09:29:47Z</time>
      </trkpt>
      <trkpt lat="47.64045" lon="6.19022">
        <ele>312</ele>
        <time>2020-08-24T09:29:52Z</time>
      </trkpt>
      <trkpt lat="47.64047" lon="6.19013">
        <ele>312</ele>
        <time>2020-08-24T09:29:56Z</time>
      </trkpt>
      <trkpt lat="47.64049" lon="6.19">
        <ele>306</ele>
        <time>2020-08-24T09:30:04Z</time>
      </trkpt>
      <trkpt lat="47.64049" lon="6.18993">
        <ele>306</ele>
        <time>2020-08-24T09:30:08Z</time>
      </trkpt>
      <trkpt lat="47.64049" lon="6.18985">
        <ele>306</ele>
        <time>2020-08-24T09:30:13Z</time>
      </trkpt>
      <trkpt lat="47.64048" lon="6.18976">
        <ele>305</ele>
        <time>2020-08-24T09:30:17Z</time>
      </trkpt>
      <trkpt lat="47.64041" lon="6.18966">
        <ele>305</ele>
        <time>2020-08-24T09:30:26Z</time>
      </trkpt>
      <trkpt lat="47.64037" lon="6.18952">
        <ele>304</ele>
        <time>2020-08-24T09:30:32Z</time>
      </trkpt>
      <trkpt lat="47.64036" lon="6.18944">
        <ele>303</ele>
        <time>2020-08-24T09:30:35Z</time>
      </trkpt>
      <trkpt lat="47.64037" lon="6.18937">
        <ele>303</ele>
        <time>2020-08-24T09:30:37Z</time>
      </trkpt>
      <trkpt lat="47.64044" lon="6.18926">
        <ele>303</ele>
        <time>2020-08-24T09:30:40Z</time>
      </trkpt>
      <trkpt lat="47.64048" lon="6.18924">
        <ele>302</ele>
        <time>2020-08-24T09:30:46Z</time>
      </trkpt>
      <trkpt lat="47.64051" lon="6.18919">
        <ele>302</ele>
        <time>2020-08-24T09:30:52Z</time>
      </trkpt>
      <trkpt lat="47.64055" lon="6.18913">
        <ele>295</ele>
        <time>2020-08-24T09:31:02Z</time>
      </trkpt>
      <trkpt lat="47.64057" lon="6.189">
        <ele>294</ele>
        <time>2020-08-24T09:31:09Z</time>
      </trkpt>
      <trkpt lat="47.64058" lon="6.18892">
        <ele>294</ele>
        <time>2020-08-24T09:31:13Z</time>
      </trkpt>
      <trkpt lat="47.64059" lon="6.18885">
        <ele>293</ele>
        <time>2020-08-24T09:31:16Z</time>
      </trkpt>
      <trkpt lat="47.64061" lon="6.18877">
        <ele>293</ele>
        <time>2020-08-24T09:31:20Z</time>
      </trkpt>
      <trkpt lat="47.64063" lon="6.1887">
        <ele>292</ele>
        <time>2020-08-24T09:31:23Z</time>
      </trkpt>
      <trkpt lat="47.64068" lon="6.18855">
        <ele>290</ele>
        <time>2020-08-24T09:31:24Z</time>
      </trkpt>
      <trkpt lat="47.6407" lon="6.18848">
        <ele>289</ele>
        <time>2020-08-24T09:31:33Z</time>
      </trkpt>
      <trkpt lat="47.64073" lon="6.18835">
        <ele>287</ele>
        <time>2020-08-24T09:31:37Z</time>
      </trkpt>
      <trkpt lat="47.64075" lon="6.18828">
        <ele>283</ele>
        <time>2020-08-24T09:31:38Z</time>
      </trkpt>
      <trkpt lat="47.64078" lon="6.18822">
        <ele>283</ele>
        <time>2020-08-24T09:31:41Z</time>
      </trkpt>
      <trkpt lat="47.6408" lon="6.18813">
        <ele>282</ele>
        <time>2020-08-24T09:31:44Z</time>
      </trkpt>
      <trkpt lat="47.64084" lon="6.188">
        <ele>280</ele>
        <time>2020-08-24T09:31:48Z</time>
      </trkpt>
      <trkpt lat="47.64087" lon="6.18794">
        <ele>279</ele>
        <time>2020-08-24T09:31:51Z</time>
      </trkpt>
      <trkpt lat="47.64091" lon="6.18786">
        <ele>279</ele>
        <time>2020-08-24T09:31:54Z</time>
      </trkpt>
      <trkpt lat="47.64096" lon="6.18772">
        <ele>278</ele>
        <time>2020-08-24T09:31:58Z</time>
      </trkpt>
      <trkpt lat="47.64099" lon="6.18765">
        <ele>277</ele>
        <time>2020-08-24T09:32:01Z</time>
      </trkpt>
      <trkpt lat="47.64102" lon="6.18759">
        <ele>277</ele>
        <time>2020-08-24T09:32:04Z</time>
      </trkpt>
      <trkpt lat="47.64107" lon="6.18747">
        <ele>272</ele>
        <time>2020-08-24T09:32:08Z</time>
      </trkpt>
      <trkpt lat="47.64109" lon="6.18741">
        <ele>272</ele>
        <time>2020-08-24T09:32:13Z</time>
      </trkpt>
      <trkpt lat="47.64114" lon="6.18726">
        <ele>271</ele>
        <time>2020-08-24T09:32:16Z</time>
      </trkpt>
      <trkpt lat="47.64116" lon="6.1872">
        <ele>270</ele>
        <time>2020-08-24T09:32:19Z</time>
      </trkpt>
      <trkpt lat="47.64118" lon="6.18712">
        <ele>270</ele>
        <time>2020-08-24T09:32:22Z</time>
      </trkpt>
      <trkpt lat="47.64118" lon="6.18706">
        <ele>269</ele>
        <time>2020-08-24T09:32:28Z</time>
      </trkpt>
      <trkpt lat="47.64118" lon="6.18699">
        <ele>269</ele>
        <time>2020-08-24T09:32:41Z</time>
      </trkpt>
      <trkpt lat="47.64119" lon="6.18691">
        <ele>269</ele>
        <time>2020-08-24T09:32:45Z</time>
      </trkpt>
      <trkpt lat="47.6412" lon="6.18684">
        <ele>268</ele>
        <time>2020-08-24T09:32:55Z</time>
      </trkpt>
      <trkpt lat="47.64121" lon="6.18677">
        <ele>268</ele>
        <time>2020-08-24T09:32:58Z</time>
      </trkpt>
      <trkpt lat="47.64122" lon="6.18671">
        <ele>268</ele>
        <time>2020-08-24T09:33:00Z</time>
      </trkpt>
      <trkpt lat="47.64124" lon="6.1866">
        <ele>260</ele>
        <time>2020-08-24T09:33:04Z</time>
      </trkpt>
      <trkpt lat="47.64126" lon="6.18652">
        <ele>260</ele>
        <time>2020-08-24T09:33:06Z</time>
      </trkpt>
      <trkpt lat="47.64127" lon="6.18645">
        <ele>260</ele>
        <time>2020-08-24T09:33:08Z</time>
      </trkpt>
      <trkpt lat="47.64129" lon="6.18638">
        <ele>259</ele>
        <time>2020-08-24T09:33:11Z</time>
      </trkpt>
      <trkpt lat="47.64132" lon="6.18631">
        <ele>259</ele>
        <time>2020-08-24T09:33:14Z</time>
      </trkpt>
      <trkpt lat="47.64134" lon="6.18624">
        <ele>258</ele>
        <time>2020-08-24T09:33:17Z</time>
      </trkpt>
      <trkpt lat="47.64135" lon="6.18616">
        <ele>257</ele>
        <time>2020-08-24T09:33:19Z</time>
      </trkpt>
      <trkpt lat="47.64136" lon="6.18608">
        <ele>257</ele>
        <time>2020-08-24T09:33:21Z</time>
      </trkpt>
      <trkpt lat="47.64138" lon="6.186">
        <ele>256</ele>
        <time>2020-08-24T09:33:24Z</time>
      </trkpt>
      <trkpt lat="47.6414" lon="6.18593">
        <ele>255</ele>
        <time>2020-08-24T09:33:27Z</time>
      </trkpt>
      <trkpt lat="47.64144" lon="6.18588">
        <ele>254</ele>
        <time>2020-08-24T09:33:30Z</time>
      </trkpt>
      <trkpt lat="47.64154" lon="6.18587">
        <ele>253</ele>
        <time>2020-08-24T09:34:23Z</time>
      </trkpt>
      <trkpt lat="47.64152" lon="6.18578">
        <ele>248</ele>
        <time>2020-08-24T09:35:06Z</time>
      </trkpt>
      <trkpt lat="47.64149" lon="6.18573">
        <ele>248</ele>
        <time>2020-08-24T09:35:08Z</time>
      </trkpt>
      <trkpt lat="47.64119" lon="6.1853">
        <ele>247</ele>
        <time>2020-08-24T09:35:08Z</time>
      </trkpt>
      <trkpt lat="47.64114" lon="6.18525">
        <ele>247</ele>
        <time>2020-08-24T09:35:09Z</time>
      </trkpt>
      <trkpt lat="47.6411" lon="6.1852">
        <ele>247</ele>
        <time>2020-08-24T09:35:10Z</time>
      </trkpt>
      <trkpt lat="47.64106" lon="6.18516">
        <ele>247</ele>
        <time>2020-08-24T09:35:11Z</time>
      </trkpt>
      <trkpt lat="47.64099" lon="6.18509">
        <ele>247</ele>
        <time>2020-08-24T09:35:13Z</time>
      </trkpt>
      <trkpt lat="47.64095" lon="6.18504">
        <ele>247</ele>
        <time>2020-08-24T09:35:14Z</time>
      </trkpt>
      <trkpt lat="47.64091" lon="6.18499">
        <ele>245</ele>
        <time>2020-08-24T09:35:15Z</time>
      </trkpt>
      <trkpt lat="47.64086" lon="6.18494">
        <ele>245</ele>
        <time>2020-08-24T09:35:16Z</time>
      </trkpt>
      <trkpt lat="47.64081" lon="6.18489">
        <ele>246</ele>
        <time>2020-08-24T09:35:17Z</time>
      </trkpt>
      <trkpt lat="47.64076" lon="6.18483">
        <ele>245</ele>
        <time>2020-08-24T09:35:18Z</time>
      </trkpt>
      <trkpt lat="47.64071" lon="6.18478">
        <ele>245</ele>
        <time>2020-08-24T09:35:19Z</time>
      </trkpt>
      <trkpt lat="47.64066" lon="6.18473">
        <ele>245</ele>
        <time>2020-08-24T09:35:20Z</time>
      </trkpt>
      <trkpt lat="47.64061" lon="6.18469">
        <ele>244</ele>
        <time>2020-08-24T09:35:21Z</time>
      </trkpt>
      <trkpt lat="47.64056" lon="6.18464">
        <ele>244</ele>
        <time>2020-08-24T09:35:22Z</time>
      </trkpt>
      <trkpt lat="47.64052" lon="6.1846">
        <ele>244</ele>
        <time>2020-08-24T09:35:23Z</time>
      </trkpt>
      <trkpt lat="47.64048" lon="6.18456">
        <ele>244</ele>
        <time>2020-08-24T09:35:24Z</time>
      </trkpt>
      <trkpt lat="47.64043" lon="6.18446">
        <ele>243</ele>
        <time>2020-08-24T09:35:26Z</time>
      </trkpt>
      <trkpt lat="47.64038" lon="6.18439">
        <ele>243</ele>
        <time>2020-08-24T09:35:28Z</time>
      </trkpt>
      <trkpt lat="47.64032" lon="6.18434">
        <ele>243</ele>
        <time>2020-08-24T09:35:30Z</time>
      </trkpt>
      <trkpt lat="47.64025" lon="6.18429">
        <ele>243</ele>
        <time>2020-08-24T09:35:32Z</time>
      </trkpt>
      <trkpt lat="47.64021" lon="6.18423">
        <ele>243</ele>
        <time>2020-08-24T09:35:39Z</time>
      </trkpt>
      <trkpt lat="47.6401" lon="6.18419">
        <ele>243</ele>
        <time>2020-08-24T09:35:40Z</time>
      </trkpt>
      <trkpt lat="47.64006" lon="6.18416">
        <ele>241</ele>
        <time>2020-08-24T09:35:42Z</time>
      </trkpt>
      <trkpt lat="47.64001" lon="6.18413">
        <ele>241</ele>
        <time>2020-08-24T09:35:49Z</time>
      </trkpt>
      <trkpt lat="47.6399" lon="6.18401">
        <ele>241</ele>
        <time>2020-08-24T09:35:49Z</time>
      </trkpt>
      <trkpt lat="47.63992" lon="6.18393">
        <ele>240</ele>
        <time>2020-08-24T09:36:14Z</time>
      </trkpt>
      <trkpt lat="47.63996" lon="6.18388">
        <ele>240</ele>
        <time>2020-08-24T09:36:22Z</time>
      </trkpt>
      <trkpt lat="47.64035" lon="6.18388">
        <ele>236</ele>
        <time>2020-08-24T09:36:22Z</time>
      </trkpt>
      <trkpt lat="47.64043" lon="6.18389">
        <ele>236</ele>
        <time>2020-08-24T09:36:23Z</time>
      </trkpt>
      <trkpt lat="47.64052" lon="6.18391">
        <ele>236</ele>
        <time>2020-08-24T09:36:24Z</time>
      </trkpt>
      <trkpt lat="47.6406" lon="6.18391">
        <ele>235</ele>
        <time>2020-08-24T09:36:25Z</time>
      </trkpt>
      <trkpt lat="47.64068" lon="6.1839">
        <ele>235</ele>
        <time>2020-08-24T09:36:26Z</time>
      </trkpt>
      <trkpt lat="47.64074" lon="6.18385">
        <ele>235</ele>
        <time>2020-08-24T09:36:27Z</time>
      </trkpt>
      <trkpt lat="47.6408" lon="6.18377">
        <ele>234</ele>
        <time>2020-08-24T09:36:28Z</time>
      </trkpt>
      <trkpt lat="47.64085" lon="6.18369">
        <ele>233</ele>
        <time>2020-08-24T09:36:29Z</time>
      </trkpt>
      <trkpt lat="47.6409" lon="6.18364">
        <ele>232</ele>
        <time>2020-08-24T09:36:30Z</time>
      </trkpt>
      <trkpt lat="47.64096" lon="6.1836">
        <ele>232</ele>
        <time>2020-08-24T09:36:31Z</time>
      </trkpt>
      <trkpt lat="47.64101" lon="6.18356">
        <ele>232</ele>
        <time>2020-08-24T09:36:32Z</time>
      </trkpt>
      <trkpt lat="47.64106" lon="6.18355">
        <ele>232</ele>
        <time>2020-08-24T09:36:33Z</time>
      </trkpt>
      <trkpt lat="47.64111" lon="6.18354">
        <ele>232</ele>
        <time>2020-08-24T09:36:34Z</time>
      </trkpt>
      <trkpt lat="47.6412" lon="6.18353">
        <ele>232</ele>
        <time>2020-08-24T09:36:36Z</time>
      </trkpt>
      <trkpt lat="47.64126" lon="6.18351">
        <ele>232</ele>
        <time>2020-08-24T09:36:38Z</time>
      </trkpt>
      <trkpt lat="47.64133" lon="6.18349">
        <ele>232</ele>
        <time>2020-08-24T09:36:40Z</time>
      </trkpt>
      <trkpt lat="47.64138" lon="6.18347">
        <ele>232</ele>
        <time>2020-08-24T09:36:42Z</time>
      </trkpt>
      <trkpt lat="47.64143" lon="6.18353">
        <ele>232</ele>
        <time>2020-08-24T09:36:50Z</time>
      </trkpt>
      <trkpt lat="47.64167" lon="6.18319">
        <ele>228</ele>
        <time>2020-08-24T09:36:50Z</time>
      </trkpt>
      <trkpt lat="47.64172" lon="6.18312">
        <ele>227</ele>
        <time>2020-08-24T09:36:51Z</time>
      </trkpt>
      <trkpt lat="47.64177" lon="6.18306">
        <ele>226</ele>
        <time>2020-08-24T09:36:52Z</time>
      </trkpt>
      <trkpt lat="47.64183" lon="6.183">
        <ele>226</ele>
        <time>2020-08-24T09:36:53Z</time>
      </trkpt>
      <trkpt lat="47.64189" lon="6.18294">
        <ele>225</ele>
        <time>2020-08-24T09:36:54Z</time>
      </trkpt>
      <trkpt lat="47.64194" lon="6.18289">
        <ele>225</ele>
        <time>2020-08-24T09:36:55Z</time>
      </trkpt>
      <trkpt lat="47.64199" lon="6.18284">
        <ele>225</ele>
        <time>2020-08-24T09:36:56Z</time>
      </trkpt>
      <trkpt lat="47.64205" lon="6.18278">
        <ele>224</ele>
        <time>2020-08-24T09:36:57Z</time>
      </trkpt>
      <trkpt lat="47.6421" lon="6.18272">
        <ele>224</ele>
        <time>2020-08-24T09:36:58Z</time>
      </trkpt>
      <trkpt lat="47.64214" lon="6.18267">
        <ele>224</ele>
        <time>2020-08-24T09:36:59Z</time>
      </trkpt>
      <trkpt lat="47.64218" lon="6.18263">
        <ele>224</ele>
        <time>2020-08-24T09:37:01Z</time>
      </trkpt>
      <trkpt lat="47.64223" lon="6.18264">
        <ele>224</ele>
        <time>2020-08-24T09:37:04Z</time>
      </trkpt>
      <trkpt lat="47.64227" lon="6.18261">
        <ele>223</ele>
        <time>2020-08-24T09:37:16Z</time>
      </trkpt>
      <trkpt lat="47.64233" lon="6.18265">
        <ele>223</ele>
        <time>2020-08-24T09:37:19Z</time>
      </trkpt>
      <trkpt lat="47.64237" lon="6.18272">
        <ele>223</ele>
        <time>2020-08-24T09:37:21Z</time>
      </trkpt>
      <trkpt lat="47.64242" lon="6.18274">
        <ele>223</ele>
        <time>2020-08-24T09:37:23Z</time>
      </trkpt>
      <trkpt lat="47.6425" lon="6.1828">
        <ele>223</ele>
        <time>2020-08-24T09:37:25Z</time>
      </trkpt>
      <trkpt lat="47.64271" lon="6.18295">
        <ele>222</ele>
        <time>2020-08-24T09:37:30Z</time>
      </trkpt>
      <trkpt lat="47.64276" lon="6.18299">
        <ele>222</ele>
        <time>2020-08-24T09:37:32Z</time>
      </trkpt>
      <trkpt lat="47.64287" lon="6.18311">
        <ele>222</ele>
        <time>2020-08-24T09:37:35Z</time>
      </trkpt>
      <trkpt lat="47.6429" lon="6.18315">
        <ele>222</ele>
        <time>2020-08-24T09:37:36Z</time>
      </trkpt>
      <trkpt lat="47.64294" lon="6.1832">
        <ele>221</ele>
        <time>2020-08-24T09:37:38Z</time>
      </trkpt>
      <trkpt lat="47.6431" lon="6.18341">
        <ele>222</ele>
        <time>2020-08-24T09:37:39Z</time>
      </trkpt>
      <trkpt lat="47.64314" lon="6.18345">
        <ele>222</ele>
        <time>2020-08-24T09:37:46Z</time>
      </trkpt>
      <trkpt lat="47.64318" lon="6.18351">
        <ele>222</ele>
        <time>2020-08-24T09:37:48Z</time>
      </trkpt>
      <trkpt lat="47.64331" lon="6.18363">
        <ele>222</ele>
        <time>2020-08-24T09:37:54Z</time>
      </trkpt>
      <trkpt lat="47.64334" lon="6.18367">
        <ele>225</ele>
        <time>2020-08-24T09:37:56Z</time>
      </trkpt>
      <trkpt lat="47.64338" lon="6.18371">
        <ele>225</ele>
        <time>2020-08-24T09:37:58Z</time>
      </trkpt>
      <trkpt lat="47.64343" lon="6.18377">
        <ele>225</ele>
        <time>2020-08-24T09:38:01Z</time>
      </trkpt>
      <trkpt lat="47.64346" lon="6.18382">
        <ele>226</ele>
        <time>2020-08-24T09:38:03Z</time>
      </trkpt>
      <trkpt lat="47.64356" lon="6.18387">
        <ele>226</ele>
        <time>2020-08-24T09:38:08Z</time>
      </trkpt>
      <trkpt lat="47.64365" lon="6.18377">
        <ele>227</ele>
        <time>2020-08-24T09:38:14Z</time>
      </trkpt>
      <trkpt lat="47.64376" lon="6.18367">
        <ele>227</ele>
        <time>2020-08-24T09:38:19Z</time>
      </trkpt>
      <trkpt lat="47.6438" lon="6.18363">
        <ele>227</ele>
        <time>2020-08-24T09:38:21Z</time>
      </trkpt>
      <trkpt lat="47.64386" lon="6.18357">
        <ele>227</ele>
        <time>2020-08-24T09:38:23Z</time>
      </trkpt>
      <trkpt lat="47.6439" lon="6.18354">
        <ele>227</ele>
        <time>2020-08-24T09:38:25Z</time>
      </trkpt>
      <trkpt lat="47.64403" lon="6.18341">
        <ele>228</ele>
        <time>2020-08-24T09:38:26Z</time>
      </trkpt>
      <trkpt lat="47.64407" lon="6.18336">
        <ele>228</ele>
        <time>2020-08-24T09:38:29Z</time>
      </trkpt>
      <trkpt lat="47.64413" lon="6.18331">
        <ele>227</ele>
        <time>2020-08-24T09:38:32Z</time>
      </trkpt>
      <trkpt lat="47.64416" lon="6.18327">
        <ele>227</ele>
        <time>2020-08-24T09:38:34Z</time>
      </trkpt>
      <trkpt lat="47.64421" lon="6.18321">
        <ele>229</ele>
        <time>2020-08-24T09:38:42Z</time>
      </trkpt>
      <trkpt lat="47.6443" lon="6.18307">
        <ele>230</ele>
        <time>2020-08-24T09:38:43Z</time>
      </trkpt>
      <trkpt lat="47.64431" lon="6.183">
        <ele>230</ele>
        <time>2020-08-24T09:38:50Z</time>
      </trkpt>
      <trkpt lat="47.64429" lon="6.18292">
        <ele>229</ele>
        <time>2020-08-24T09:38:50Z</time>
      </trkpt>
      <trkpt lat="47.64435" lon="6.18296">
        <ele>230</ele>
        <time>2020-08-24T09:38:55Z</time>
      </trkpt>
      <trkpt lat="47.64441" lon="6.18295">
        <ele>230</ele>
        <time>2020-08-24T09:39:00Z</time>
      </trkpt>
      <trkpt lat="47.64445" lon="6.18292">
        <ele>230</ele>
        <time>2020-08-24T09:39:03Z</time>
      </trkpt>
      <trkpt lat="47.64449" lon="6.18287">
        <ele>230</ele>
        <time>2020-08-24T09:39:06Z</time>
      </trkpt>
      <trkpt lat="47.64453" lon="6.18282">
        <ele>230</ele>
        <time>2020-08-24T09:39:09Z</time>
      </trkpt>
      <trkpt lat="47.64458" lon="6.18275">
        <ele>230</ele>
        <time>2020-08-24T09:39:12Z</time>
      </trkpt>
      <trkpt lat="47.64461" lon="6.18268">
        <ele>230</ele>
        <time>2020-08-24T09:39:15Z</time>
      </trkpt>
      <trkpt lat="47.64465" lon="6.18263">
        <ele>230</ele>
        <time>2020-08-24T09:39:17Z</time>
      </trkpt>
      <trkpt lat="47.64469" lon="6.18259">
        <ele>230</ele>
        <time>2020-08-24T09:39:19Z</time>
      </trkpt>
      <trkpt lat="47.64472" lon="6.18254">
        <ele>230</ele>
        <time>2020-08-24T09:39:21Z</time>
      </trkpt>
      <trkpt lat="47.64476" lon="6.18249">
        <ele>227</ele>
        <time>2020-08-24T09:39:24Z</time>
      </trkpt>
      <trkpt lat="47.64472" lon="6.18253">
        <ele>230</ele>
        <time>2020-08-24T09:39:34Z</time>
      </trkpt>
      <trkpt lat="47.64465" lon="6.18265">
        <ele>230</ele>
        <time>2020-08-24T09:39:36Z</time>
      </trkpt>
      <trkpt lat="47.64462" lon="6.18269">
        <ele>230</ele>
        <time>2020-08-24T09:39:38Z</time>
      </trkpt>
      <trkpt lat="47.64457" lon="6.18275">
        <ele>230</ele>
        <time>2020-08-24T09:39:41Z</time>
      </trkpt>
      <trkpt lat="47.64453" lon="6.1828">
        <ele>230</ele>
        <time>2020-08-24T09:39:43Z</time>
      </trkpt>
      <trkpt lat="47.6445" lon="6.18286">
        <ele>230</ele>
        <time>2020-08-24T09:39:45Z</time>
      </trkpt>
      <trkpt lat="47.64446" lon="6.1829">
        <ele>230</ele>
        <time>2020-08-24T09:39:51Z</time>
      </trkpt>
      <trkpt lat="47.64439" lon="6.18302">
        <ele>230</ele>
        <time>2020-08-24T09:39:55Z</time>
      </trkpt>
      <trkpt lat="47.6444" lon="6.18309">
        <ele>231</ele>
        <time>2020-08-24T09:39:58Z</time>
      </trkpt>
      <trkpt lat="47.64439" lon="6.18316">
        <ele>231</ele>
        <time>2020-08-24T09:40:01Z</time>
      </trkpt>
      <trkpt lat="47.64434" lon="6.18318">
        <ele>230</ele>
        <time>2020-08-24T09:40:30Z</time>
      </trkpt>
      <trkpt lat="47.64429" lon="6.18315">
        <ele>230</ele>
        <time>2020-08-24T09:41:01Z</time>
      </trkpt>
      <trkpt lat="47.64433" lon="6.18318">
        <ele>230</ele>
        <time>2020-08-24T09:42:16Z</time>
      </trkpt>
      <trkpt lat="47.64429" lon="6.18318">
        <ele>230</ele>
        <time>2020-08-24T09:42:57Z</time>
      </trkpt>
      <trkpt lat="47.64435" lon="6.18317">
        <ele>230</ele>
        <time>2020-08-24T09:44:48Z</time>
      </trkpt>
      <trkpt lat="47.6443" lon="6.18317">
        <ele>230</ele>
        <time>2020-08-24T09:46:40Z</time>
      </trkpt>
      <trkpt lat="47.64435" lon="6.18318">
        <ele>230</ele>
        <time>2020-08-24T09:47:49Z</time>
      </trkpt>
      <trkpt lat="47.64431" lon="6.18313">
        <ele>230</ele>
        <time>2020-08-24T09:48:22Z</time>
      </trkpt>
      <trkpt lat="47.64435" lon="6.183">
        <ele>230</ele>
        <time>2020-08-24T09:49:11Z</time>
      </trkpt>
      <trkpt lat="47.6443" lon="6.18304">
        <ele>230</ele>
        <time>2020-08-24T09:49:21Z</time>
      </trkpt>
      <trkpt lat="47.64419" lon="6.18323">
        <ele>229</ele>
        <time>2020-08-24T09:49:31Z</time>
      </trkpt>
      <trkpt lat="47.64415" lon="6.18332">
        <ele>228</ele>
        <time>2020-08-24T09:49:41Z</time>
      </trkpt>
      <trkpt lat="47.64419" lon="6.18327">
        <ele>229</ele>
        <time>2020-08-24T09:50:42Z</time>
      </trkpt>
      <trkpt lat="47.64425" lon="6.18322">
        <ele>229</ele>
        <time>2020-08-24T10:07:17Z</time>
      </trkpt>
      <trkpt lat="47.64429" lon="6.18318">
        <ele>230</ele>
        <time>2020-08-24T10:07:44Z</time>
      </trkpt>
      <trkpt lat="47.64428" lon="6.18325">
        <ele>230</ele>
        <time>2020-08-24T10:08:58Z</time>
      </trkpt>
      <trkpt lat="47.64427" lon="6.18318">
        <ele>230</ele>
        <time>2020-08-24T10:10:51Z</time>
      </trkpt>
      <trkpt lat="47.64432" lon="6.18319">
        <ele>230</ele>
        <time>2020-08-24T10:12:36Z</time>
      </trkpt>
      <trkpt lat="47.64436" lon="6.1832">
        <ele>230</ele>
        <time>2020-08-24T10:12:48Z</time>
      </trkpt>
      <trkpt lat="47.64436" lon="6.18313">
        <ele>230</ele>
        <time>2020-08-24T10:13:15Z</time>
      </trkpt>
      <trkpt lat="47.64434" lon="6.18306">
        <ele>230</ele>
        <time>2020-08-24T10:14:45Z</time>
      </trkpt>
      <trkpt lat="47.64432" lon="6.18313">
        <ele>230</ele>
        <time>2020-08-24T10:14:58Z</time>
      </trkpt>
      <trkpt lat="47.6443" lon="6.18321">
        <ele>230</ele>
        <time>2020-08-24T10:15:07Z</time>
      </trkpt>
      <trkpt lat="47.64434" lon="6.18321">
        <ele>230</ele>
        <time>2020-08-24T10:15:15Z</time>
      </trkpt>
      <trkpt lat="47.64437" lon="6.18315">
        <ele>230</ele>
        <time>2020-08-24T10:15:21Z</time>
      </trkpt>
      <trkpt lat="47.6444" lon="6.18309">
        <ele>231</ele>
        <time>2020-08-24T10:15:30Z</time>
      </trkpt>
      <trkpt lat="47.64435" lon="6.18313">
        <ele>230</ele>
        <time>2020-08-24T10:15:43Z</time>
      </trkpt>
      <trkpt lat="47.64432" lon="6.18318">
        <ele>230</ele>
        <time>2020-08-24T10:15:51Z</time>
      </trkpt>
      <trkpt lat="47.64429" lon="6.18324">
        <ele>230</ele>
        <time>2020-08-24T10:16:07Z</time>
      </trkpt>
      <trkpt lat="47.64425" lon="6.18328">
        <ele>229</ele>
        <time>2020-08-24T10:16:12Z</time>
      </trkpt>
      <trkpt lat="47.64429" lon="6.18328">
        <ele>230</ele>
        <time>2020-08-24T10:16:25Z</time>
      </trkpt>
      <trkpt lat="47.64433" lon="6.18323">
        <ele>230</ele>
        <time>2020-08-24T10:18:43Z</time>
      </trkpt>
      <trkpt lat="47.64429" lon="6.18329">
        <ele>230</ele>
        <time>2020-08-24T10:21:37Z</time>
      </trkpt>
      <trkpt lat="47.64434" lon="6.18326">
        <ele>230</ele>
        <time>2020-08-24T10:23:57Z</time>
      </trkpt>
      <trkpt lat="47.64438" lon="6.18323">
        <ele>231</ele>
        <time>2020-08-24T10:28:57Z</time>
      </trkpt>
      <trkpt lat="47.64433" lon="6.18326">
        <ele>230</ele>
        <time>2020-08-24T10:29:55Z</time>
      </trkpt>
      <trkpt lat="47.64429" lon="6.18324">
        <ele>230</ele>
        <time>2020-08-24T10:30:52Z</time>
      </trkpt>
      <trkpt lat="47.64433" lon="6.18321">
        <ele>230</ele>
        <time>2020-08-24T10:31:16Z</time>
      </trkpt>
      <trkpt lat="47.64429" lon="6.1832">
        <ele>230</ele>
        <time>2020-08-24T10:31:53Z</time>
      </trkpt>
      <trkpt lat="47.64426" lon="6.18326">
        <ele>229</ele>
        <time>2020-08-24T10:32:07Z</time>
      </trkpt>
      <trkpt lat="47.6443" lon="6.18324">
        <ele>230</ele>
        <time>2020-08-24T10:32:37Z</time>
      </trkpt>
      <trkpt lat="47.64435" lon="6.18328">
        <ele>230</ele>
        <time>2020-08-24T10:33:06Z</time>
      </trkpt>
      <trkpt lat="47.6443" lon="6.18326">
        <ele>230</ele>
        <time>2020-08-24T10:33:39Z</time>
      </trkpt>
      <trkpt lat="47.64434" lon="6.18325">
        <ele>230</ele>
        <time>2020-08-24T10:34:17Z</time>
      </trkpt>
      <trkpt lat="47.64438" lon="6.18321">
        <ele>231</ele>
        <time>2020-08-24T10:35:12Z</time>
      </trkpt>
      <trkpt lat="47.64434" lon="6.18321">
        <ele>230</ele>
        <time>2020-08-24T10:38:51Z</time>
      </trkpt>
      <trkpt lat="47.64429" lon="6.18323">
        <ele>230</ele>
        <time>2020-08-24T10:39:03Z</time>
      </trkpt>
      <trkpt lat="47.64434" lon="6.18324">
        <ele>230</ele>
        <time>2020-08-24T10:40:02Z</time>
      </trkpt>
      <trkpt lat="47.64439" lon="6.18322">
        <ele>231</ele>
        <time>2020-08-24T10:40:43Z</time>
      </trkpt>
      <trkpt lat="47.64435" lon="6.18325">
        <ele>230</ele>
        <time>2020-08-24T10:41:34Z</time>
      </trkpt>
      <trkpt lat="47.64432" lon="6.1832">
        <ele>230</ele>
        <time>2020-08-24T10:42:04Z</time>
      </trkpt>
      <trkpt lat="47.64436" lon="6.18319">
        <ele>230</ele>
        <time>2020-08-24T10:42:09Z</time>
      </trkpt>
      <trkpt lat="47.64433" lon="6.18323">
        <ele>230</ele>
        <time>2020-08-24T10:42:45Z</time>
      </trkpt>
      <trkpt lat="47.64429" lon="6.1832">
        <ele>230</ele>
        <time>2020-08-24T10:43:49Z</time>
      </trkpt>
      <trkpt lat="47.64425" lon="6.18324">
        <ele>229</ele>
        <time>2020-08-24T10:45:15Z</time>
      </trkpt>
      <trkpt lat="47.64429" lon="6.18323">
        <ele>230</ele>
        <time>2020-08-24T10:48:44Z</time>
      </trkpt>
      <trkpt lat="47.64431" lon="6.18317">
        <ele>230</ele>
        <time>2020-08-24T10:49:49Z</time>
      </trkpt>
      <trkpt lat="47.64435" lon="6.18318">
        <ele>230</ele>
        <time>2020-08-24T10:50:28Z</time>
      </trkpt>
      <trkpt lat="47.6444" lon="6.18315">
        <ele>231</ele>
        <time>2020-08-24T10:51:26Z</time>
      </trkpt>
      <trkpt lat="47.64435" lon="6.18318">
        <ele>230</ele>
        <time>2020-08-24T10:53:27Z</time>
      </trkpt>
      <trkpt lat="47.64431" lon="6.18315">
        <ele>230</ele>
        <time>2020-08-24T10:53:51Z</time>
      </trkpt>
      <trkpt lat="47.64431" lon="6.18322">
        <ele>230</ele>
        <time>2020-08-24T10:55:10Z</time>
      </trkpt>
      <trkpt lat="47.64435" lon="6.18317">
        <ele>230</ele>
        <time>2020-08-24T10:55:48Z</time>
      </trkpt>
      <trkpt lat="47.64438" lon="6.18322">
        <ele>231</ele>
        <time>2020-08-24T10:56:02Z</time>
      </trkpt>
      <trkpt lat="47.64434" lon="6.18321">
        <ele>230</ele>
        <time>2020-08-24T10:56:13Z</time>
      </trkpt>
      <trkpt lat="47.64433" lon="6.18315">
        <ele>230</ele>
        <time>2020-08-24T10:56:22Z</time>
      </trkpt>
      <trkpt lat="47.64431" lon="6.18322">
        <ele>230</ele>
        <time>2020-08-24T10:57:05Z</time>
      </trkpt>
      <trkpt lat="47.64435" lon="6.18317">
        <ele>230</ele>
        <time>2020-08-24T11:00:01Z</time>
      </trkpt>
      <trkpt lat="47.64436" lon="6.18324">
        <ele>230</ele>
        <time>2020-08-24T11:00:32Z</time>
      </trkpt>
      <trkpt lat="47.64441" lon="6.18323">
        <ele>231</ele>
        <time>2020-08-24T11:00:42Z</time>
      </trkpt>
      <trkpt lat="47.64437" lon="6.18326">
        <ele>230</ele>
        <time>2020-08-24T11:01:39Z</time>
      </trkpt>
      <trkpt lat="47.64432" lon="6.18329">
        <ele>230</ele>
        <time>2020-08-24T11:02:52Z</time>
      </trkpt>
    </trkseg>
  </trk>
</gpx>